[[[{"header":{"parameterUnit":"kt","parameterCategory":2,"dx":1,"dy":1,"la1":29.285339999999998,"la2":30.599998999999997,"lo1":-89.70041500000002,"lo2":-87.6738589999976,"nx":112,"ny":82,"refTime":"2022-09-26T06:00:00:Z","depth":0,"parameterNumber":1,"parameterNumberName":"U-component_of_WINDS"},"data":[18.3119,18.2566,0.0,17.8528,17.8943,0.0,17.7033,0.0,0.0,0.0,0.0,0.0,0.0,0.0,0.0,0.0,0.0,0.0,0.0,18.3122,18.4195,18.4597,18.7279,18.9528,19.053,19.329,19.5557,19.7097,19.9065,20.0608,20.2165,20.2768,20.2927,20.2549,20.2377,20.2168,20.1936,20.1371,20.0997,20.0583,20.0997,20.0425,19.9248,19.9822,19.9857,19.9232,19.9232,19.9232,19.9232,19.9232,19.9232,19.9232,19.9232,19.9232,19.9232,19.9232,20.1008,20.3899,20.6235,20.7418,20.7813,20.7813,20.7813,20.7813,20.7813,20.7813,20.7813,20.7813,20.7813,20.7813,20.7813,20.7813,20.7813,20.7813,20.7813,20.7813,20.7813,20.7813,20.7813,20.7813,20.7813,20.7813,20.7813,20.7813,20.7813,20.7813,20.7813,20.8964,21.1907,21.2236,21.3436,21.6148,21.6559,21.6559,21.6559,21.6559,21.6559,21.6559,21.6559,21.6559,21.6559,21.7103,21.8484,22.0817,22.1426,22.2789,22.5121,22.5121,22.5121,22.5121,22.5121,22.5121,0.0,0.0,17.8828,17.5575,0.0,0.0,0.0,0.0,0.0,0.0,0.0,0.0,0.0,0.0,0.0,0.0,0.0,0.0,0.0,18.2049,18.4195,18.6676,18.938,19.1097,19.1061,19.4169,19.65,19.7712,19.967,20.1392,20.2727,20.2764,20.2757,20.2534,20.1779,20.161,20.161,20.0793,20.0429,20.0229,20.0429,20.0008,19.9232,19.9604,19.9639,19.9232,19.9232,19.9232,19.9232,19.9232,19.9232,19.9232,19.9232,19.9232,19.9232,19.9232,20.1008,20.3736,20.5643,20.704,20.7813,20.7813,20.7813,20.7813,20.7813,20.7813,20.7813,20.7813,20.7813,20.7813,20.7813,20.7813,20.7813,20.7813,20.7813,20.7813,20.7813,20.7813,20.7813,20.7813,20.7813,20.7813,20.7813,20.7813,20.7813,20.7813,20.7813,20.875,21.1084,21.1496,21.263,21.5573,21.5736,21.5951,21.6559,21.6559,21.6559,21.6559,21.6559,21.6559,21.6559,21.6559,21.7677,22.0028,22.0619,22.1983,22.4332,22.4876,22.5121,22.5121,22.5121,22.5121,0.0,0.0,0.0,17.0625,0.0,0.0,0.0,0.0,17.4782,0.0,0.0,0.0,0.0,0.0,0.0,0.0,0.0,0.0,0.0,18.1553,18.504,18.9303,19.1948,19.2768,19.1243,19.385,19.6119,19.7476,19.9627,20.1172,20.2191,20.2161,20.2363,20.2934,20.1189,20.0778,20.1974,20.0213,19.9658,20.0182,19.9627,19.9232,19.9232,19.9232,19.9232,19.9232,19.9232,19.9232,19.9232,19.9232,19.9232,19.9232,19.9232,19.9232,19.9232,19.9217,20.1187,20.3505,20.3554,20.5462,20.7813,20.7813,20.7813,20.7813,20.7813,20.7813,20.7813,20.7813,20.7813,20.7813,20.7813,20.7813,20.7813,20.7813,20.7813,20.7813,20.7813,20.7813,20.7813,20.7813,20.7813,20.7813,20.7813,20.7813,20.7813,20.7813,20.7813,20.8405,20.9736,20.9933,21.1117,21.401,21.4421,21.4964,21.6328,21.6559,21.6559,21.6559,21.6559,21.6559,21.6559,21.6559,21.7134,21.8698,22.0028,22.1623,22.2938,22.4332,22.5121,22.5121,22.5121,22.5121,17.299,0.0,0.0,0.0,0.0,0.0,0.0,0.0,0.0,0.0,0.0,0.0,0.0,0.0,0.0,0.0,0.0,18.2921,18.3511,18.4783,18.6417,18.8305,19.0382,19.1625,19.1409,19.5379,19.7303,19.63,20.0241,20.2148,20.1544,20.1988,20.1749,20.0991,20.0981,20.0578,20.0043,19.9997,19.981,19.9417,19.9229,19.9232,19.9232,19.9232,19.9232,19.9232,19.9232,19.9232,19.9232,19.9232,19.9232,19.9232,19.9232,19.9232,19.9445,20.0432,20.196,20.3702,20.4706,20.6218,20.7813,20.7813,20.7813,20.7813,20.7813,20.7813,20.7813,20.7813,20.7813,20.7813,20.7813,20.7813,20.7813,20.7813,20.7813,20.7813,20.7813,20.7813,20.7813,20.7813,20.7813,20.7813,20.7813,20.7813,20.7813,20.7813,20.7813,20.8405,20.9736,20.9933,21.1117,21.401,21.4421,21.4964,21.6328,21.6559,21.6559,21.6559,21.6559,21.6559,21.6559,21.6559,21.7134,21.8698,22.0028,22.1623,22.2938,22.4332,22.5121,22.5121,22.5121,22.5121,0.0,0.0,0.0,0.0,0.0,0.0,17.2453,0.0,17.4782,0.0,0.0,0.0,0.0,0.0,0.0,0.0,18.3859,18.5106,18.5038,18.6721,18.857,19.0084,19.083,19.1532,19.2285,19.5374,19.7316,19.7114,20.0409,20.1758,20.0778,20.1164,20.1216,20.0578,20.0394,20.0233,19.9639,19.9829,19.9623,19.9232,19.9232,19.9232,19.9232,19.9232,19.9232,19.9232,19.9232,19.9232,19.9232,19.9232,19.9232,19.9232,19.9232,19.9232,19.9429,20.081,20.2386,20.3686,20.5068,20.6629,20.7813,20.7813,20.7813,20.7813,20.7813,20.7813,20.7813,20.7813,20.7813,20.7813,20.7813,20.7813,20.7813,20.7813,20.7813,20.7813,20.7813,20.7813,20.7813,20.7813,20.7813,20.7813,20.7813,20.7813,20.7813,20.7813,20.7813,20.8158,20.898,20.8947,21.0147,21.3205,21.3435,21.4406,21.6345,21.6559,21.6559,21.6559,21.6559,21.6559,21.6559,21.6559,21.6954,21.7677,21.9273,22.0619,22.1983,22.3513,22.4547,22.5121,22.5121,22.5121,0.0,0.0,0.0,0.0,17.0022,0.0,0.0,0.0,17.497,17.6244,0.0,17.725,17.8817,0.0,0.0,18.1486,18.4919,18.6941,18.5111,18.8008,19.1049,19.3035,19.2189,19.2072,19.3676,19.4789,19.6319,19.8437,20.0225,20.0808,20.0233,20.0182,20.0379,20.0981,19.9841,19.9433,20.0024,19.9433,19.9232,19.9232,19.9232,19.9232,19.9232,19.9232,19.9232,19.9232,19.9232,19.9232,19.9232,19.9232,19.9232,19.9232,19.9232,19.9232,19.9429,20.081,20.2386,20.3686,20.5068,20.6629,20.7813,20.7813,20.7813,20.7813,20.7813,20.7813,20.7813,20.7813,20.7813,20.7813,20.7813,20.7813,20.7813,20.7813,20.7813,20.7813,20.7813,20.7813,20.7813,20.7813,20.7813,20.7813,20.7813,20.7813,20.7813,20.7813,20.7813,20.7813,20.7813,20.7813,20.8947,21.171,21.2087,21.3436,21.6182,21.6511,21.6559,21.6559,21.6559,21.6559,21.6559,21.6559,21.6559,21.6559,21.7875,21.9488,22.0799,22.2198,22.3561,22.4876,22.5073,22.5121,0.0,0.0,0.0,0.0,0.0,17.2247,0.0,0.0,0.0,17.6445,17.7531,17.8805,18.0279,18.1848,18.3256,18.4382,18.626,18.7426,18.7035,19.0319,19.2739,19.2639,19.1925,19.2411,19.4963,19.3983,19.4363,19.7282,19.985,20.0594,19.9401,20.0032,20.0028,19.9623,19.9439,19.9214,19.942,19.9214,19.9232,19.9232,19.9232,19.9232,19.9232,19.9232,19.9232,19.9232,19.9232,19.9232,19.9232,19.9232,19.9232,19.9232,19.9232,19.9232,19.9429,20.081,20.2386,20.3686,20.5068,20.6629,20.7813,20.7813,20.7813,20.7813,20.7813,20.7813,20.7813,20.7813,20.7813,20.7813,20.7813,20.7813,20.7813,20.7813,20.7813,20.7813,20.7813,20.7813,20.7813,20.7813,20.7813,20.7813,20.7813,20.7813,20.7813,20.7813,20.7813,20.7813,20.7813,20.7813,20.8372,21.0131,21.1479,21.3042,21.4602,21.5985,21.6559,21.6559,21.6559,21.6559,21.6559,21.6559,21.6559,21.6559,21.7875,21.9488,22.0799,22.2198,22.3136,22.3381,22.453,22.5121,0.0,0.0,0.0,16.773,0.0,0.0,0.0,17.4447,17.6713,17.7531,17.8281,17.9488,18.1701,18.2787,18.4262,18.7212,18.8285,18.8899,18.9251,19.1913,19.333,19.2086,19.1925,19.2522,19.3928,19.4125,19.4996,19.6927,19.9081,20.0016,19.9248,19.9642,19.9658,19.9232,19.9232,19.9232,19.9232,19.9232,19.9232,19.9232,19.9232,19.9232,19.9232,19.9232,19.9232,19.9232,19.9232,19.9232,19.9232,19.9232,19.9232,19.9232,19.9232,19.9232,19.9429,20.081,20.2386,20.3686,20.5068,20.6629,20.7813,20.7813,20.7813,20.7813,20.7813,20.7813,20.7813,20.7813,20.7813,20.7813,20.7813,20.7813,20.7813,20.7813,20.7813,20.7813,20.7813,20.7813,20.7813,20.7813,20.7813,20.7813,20.7813,20.7813,20.7813,20.7813,20.7813,20.7813,20.7813,20.7813,20.8405,20.972,21.069,21.2087,21.4224,21.5013,21.5753,21.6559,21.6559,21.6559,21.6559,21.6559,21.6559,21.6559,21.73,21.8269,21.9865,22.1229,22.2198,22.2938,22.4499,22.5121,0.0,0.0,0.0,0.0,0.0,0.0,17.2247,17.4648,17.733,17.8549,17.93,18.044,18.2854,18.3792,18.5335,18.8888,18.9975,19.0667,19.1554,19.2913,19.3363,19.2174,19.2013,19.2492,19.3519,19.4737,19.6112,19.767,19.8668,19.9232,19.9232,19.9232,19.9232,19.9232,19.9232,19.9232,19.9232,19.9232,19.9232,19.9232,19.9232,19.9232,19.9232,19.9232,19.9232,19.9232,19.9232,19.9232,19.9232,19.9232,19.9232,19.9232,19.9232,19.9232,19.9445,20.0579,20.1976,20.3291,20.469,20.6235,20.7402,20.778,20.7813,20.7813,20.7813,20.7813,20.7813,20.7813,20.7813,20.7813,20.7813,20.7813,20.7813,20.7813,20.7813,20.7813,20.7813,20.7813,20.7813,20.7813,20.7813,20.7813,20.7813,20.7813,20.7813,20.7813,20.7813,20.7813,20.7813,20.7813,20.8191,20.9342,20.972,21.1134,21.3846,21.4224,21.5013,21.6511,21.6559,21.6559,21.6559,21.6559,21.6559,21.6559,21.6559,21.73,21.8698,21.9668,22.0799,22.2544,22.3938,22.4876,0.0,0.0,0.0,0.0,16.9083,0.0,17.2247,17.5532,17.8616,17.8817,18.0976,18.2934,18.3269,18.5402,18.7266,18.7735,19.0082,19.228,19.3671,19.3111,19.2928,19.3762,19.2043,19.2393,19.6747,19.5709,19.6334,19.9612,19.9429,19.9232,19.9232,19.9232,19.9232,19.9232,19.9232,19.9232,19.9232,19.9232,19.9232,19.9232,19.9232,19.9232,19.9232,19.9232,19.9232,19.9232,19.9232,19.9232,19.9232,19.9232,19.9232,19.9232,19.9232,19.9232,19.9217,19.9429,20.0432,20.1747,20.3307,20.4722,20.6054,20.7418,20.7813,20.7813,20.7813,20.7813,20.7813,20.7813,20.7813,20.7813,20.7813,20.7813,20.7813,20.7813,20.7813,20.7813,20.7813,20.7813,20.7813,20.7813,20.7813,20.7813,20.7813,20.7813,20.7813,20.7813,20.7813,20.7813,20.7813,20.7813,20.7796,20.7994,20.9161,21.069,21.2268,21.3649,21.5013,21.6511,21.6559,21.6559,21.6559,21.6559,21.6559,21.6559,21.6559,21.73,21.8698,21.7546,21.8467,22.0979,22.2544,22.3925,0.0,0.0,16.6859,16.6859,0.0,0.0,17.2247,17.5666,17.9086,17.989,18.1781,18.3524,18.4396,18.6193,18.7869,18.8821,19.1369,19.3389,19.3705,19.3573,19.3259,19.2645,19.2028,19.2807,19.5712,19.5138,19.6103,19.9441,19.9455,19.9232,19.9232,19.9232,19.9232,19.9232,19.9232,19.9232,19.9232,19.9232,19.9232,19.9232,19.9232,19.9232,19.9232,19.9232,19.9232,19.9232,19.9232,19.9232,19.9232,19.9232,19.9232,19.9232,19.9232,19.9232,19.9232,19.9232,20.0184,20.1565,20.2946,20.4459,20.5873,20.7435,20.7813,20.7813,20.7813,20.7813,20.7813,20.7813,20.7813,20.7813,20.7813,20.7813,20.7813,20.7813,20.7813,20.7813,20.7813,20.7813,20.7813,20.7813,20.7813,20.7813,20.7813,20.7813,20.7813,20.7813,20.7813,20.7813,20.7813,20.7813,20.7813,20.7813,20.8405,20.972,21.2038,21.2828,21.4209,21.6345,21.6559,21.6559,21.6559,21.6559,21.6559,21.6559,21.6559,21.6922,21.7514,21.6922,21.7529,21.965,22.1969,22.3351,16.011,0.0,0.0,0.0,0.0,0.0,17.2247,17.5934,17.9756,18.0749,18.2505,18.4195,18.5254,18.693,18.8741,19.0243,19.2576,19.4217,19.426,19.4082,19.3502,19.2159,19.2138,19.2941,19.4753,19.5,19.5914,19.9035,19.9232,19.9232,19.9232,19.9232,19.9232,19.9232,19.9232,19.9232,19.9232,19.9232,19.9232,19.9232,19.9232,19.9232,19.9232,19.9232,19.9232,19.9232,19.9232,19.9232,19.9232,19.9232,19.9232,19.9232,19.9232,19.9232,19.9232,19.9232,19.9808,20.0958,20.2355,20.3883,20.5282,20.6843,20.7402,20.7813,20.7813,20.7813,20.7813,20.7813,20.7813,20.7813,20.7813,20.7813,20.7813,20.7813,20.7813,20.7813,20.7813,20.7813,20.7813,20.7813,20.7813,20.7813,20.7813,20.7813,20.7813,20.7813,20.7813,20.7813,20.7813,20.7813,20.7813,20.7813,20.7813,20.8783,21.1512,21.2038,21.3271,21.5753,21.6362,21.6559,21.6559,21.6559,21.6559,21.6559,21.6559,21.6559,21.6559,21.6559,21.7103,21.8072,22.0654,22.2149,0.0,0.0,0.0,16.3416,16.7864,17.2247,17.2247,17.6726,18.0883,18.095,18.331,18.5388,18.5469,18.7883,19.031,19.1772,19.3233,19.4789,19.6102,19.4761,19.3411,19.3354,19.2232,19.2608,19.536,19.5179,19.5914,19.9035,19.9232,19.9232,19.9232,19.9232,19.9232,19.9232,19.9232,19.9232,19.9232,19.9232,19.9232,19.9232,19.9232,19.9232,19.9232,19.9232,19.9232,19.9232,19.9232,19.9232,19.9232,19.9232,19.9232,19.9232,19.9232,19.9232,19.9232,19.9232,19.9217,19.9414,20.0973,20.2355,20.3899,20.5298,20.6613,20.7813,20.7813,20.7813,20.7813,20.7813,20.7813,20.7813,20.7813,20.7813,20.7813,20.7813,20.7813,20.7813,20.7813,20.7813,20.7813,20.7813,20.7813,20.7813,20.7813,20.7813,20.7813,20.7813,20.7813,20.7813,20.7813,20.7813,20.7813,20.7813,20.7813,20.8388,20.995,21.1512,21.286,21.4438,21.5753,21.6559,21.6559,21.6559,21.6559,21.6559,21.6559,21.6559,21.6559,21.6559,21.6542,21.6708,21.8089,22.0242,15.8139,16.1429,16.5317,16.7182,16.9955,17.2515,17.3441,17.7464,18.095,18.095,18.3377,18.5469,18.5469,18.7064,18.8888,19.0364,19.1839,19.3314,19.4789,19.4337,19.363,19.2865,19.2778,19.3014,19.3653,19.4768,19.6158,19.7716,19.864,19.9232,19.9232,19.9232,19.9232,19.9232,19.9232,19.9232,19.9232,19.9232,19.9232,19.9232,19.9232,19.9232,19.9232,19.9232,19.9232,19.9232,19.9232,19.9232,19.9232,19.9232,19.9232,19.9232,19.9232,19.9232,19.9232,19.9232,19.9232,19.9429,20.081,20.237,20.3736,20.5248,20.6613,20.7813,20.7813,20.7813,20.7813,20.7813,20.7813,20.7813,20.7813,20.7813,20.7813,20.7813,20.7813,20.7813,20.7813,20.7813,20.7813,20.7813,20.7813,20.7813,20.7813,20.7813,20.7813,20.7813,20.7813,20.7813,20.7813,20.7813,20.7813,20.7813,20.7813,20.8388,20.972,21.0311,21.1709,21.4224,21.4799,21.5556,21.6559,21.6559,21.6559,21.6559,21.6559,21.6559,21.6559,21.6559,21.6559,21.6559,21.7103,21.8286,15.8926,16.1831,16.5451,16.8401,17.068,17.2569,17.4044,17.7799,18.095,18.095,18.3377,18.5469,18.5469,18.6595,18.8271,19.0364,19.1906,19.33,19.4775,19.4976,19.4388,19.2656,19.3009,19.3194,19.2671,19.458,19.6138,19.7121,19.8474,19.9232,19.9232,19.9232,19.9232,19.9232,19.9232,19.9232,19.9232,19.9232,19.9232,19.9232,19.9232,19.9232,19.9232,19.9232,19.9232,19.9232,19.9232,19.9232,19.9232,19.9232,19.9232,19.9232,19.9232,19.9232,19.9232,19.9232,19.9232,19.9445,20.0203,20.1565,20.2946,20.4475,20.5824,20.7237,20.7599,20.7813,20.7813,20.7813,20.7813,20.7813,20.7813,20.7813,20.7813,20.7813,20.7813,20.7813,20.7813,20.7813,20.7813,20.7813,20.7813,20.7813,20.7813,20.7813,20.7813,20.7813,20.7813,20.7813,20.7813,20.7813,20.7813,20.7813,20.7813,20.8207,20.9177,20.9522,21.0903,21.3452,21.4192,21.5013,21.6576,21.6559,21.6559,21.6559,21.6559,21.6559,21.6559,21.6559,21.6559,21.6559,21.6559,21.7283,15.868,16.1227,16.4165,16.7194,17.0156,17.2637,17.4111,17.7799,18.0883,18.095,18.331,18.5321,18.5388,18.6528,18.8405,19.1369,19.3099,19.4574,19.613,19.6494,19.5568,19.2899,19.3105,19.3209,19.2651,19.4382,19.5909,19.6892,19.8246,19.9248,19.9232,19.9232,19.9232,19.9232,19.9232,19.9232,19.9232,19.9232,19.9232,19.9232,19.9232,19.9232,19.9232,19.9232,19.9232,19.9232,19.9232,19.9232,19.9232,19.9232,19.9232,19.9232,19.9232,19.9232,19.9232,19.9232,19.9232,19.9232,19.9232,20.0234,20.1549,20.311,20.4525,20.5857,20.7418,20.7813,20.7813,20.7813,20.7813,20.7813,20.7813,20.7813,20.7813,20.7813,20.7813,20.7813,20.7813,20.7813,20.7813,20.7813,20.7813,20.7813,20.7813,20.7813,20.7813,20.7813,20.7813,20.7813,20.7813,20.7813,20.7813,20.7813,20.7813,20.7813,20.7813,20.8947,21.0542,21.2038,21.3452,21.4816,21.6345,21.6328,21.6576,21.6559,21.6559,21.6559,21.6559,21.6559,21.6559,21.6559,21.6559,21.73,15.9602,16.2769,16.5999,17.0089,17.1631,17.2917,17.5373,17.7732,17.9689,18.0749,18.2505,18.4195,18.5268,18.5723,18.6595,18.8405,19.09,19.3113,19.4574,19.5728,19.6142,19.4935,19.3964,19.2984,19.1894,19.3201,19.4605,19.5333,19.6734,19.8064,19.9248,19.9232,19.9232,19.9232,19.9232,19.9232,19.9232,19.9232,19.9232,19.9232,19.9232,19.9232,19.9232,19.9232,19.9232,19.9232,19.9232,19.9232,19.9232,19.9232,19.9232,19.9232,19.9232,19.9232,19.9232,19.9232,19.9232,19.9232,19.9232,20.0234,20.1549,20.311,20.4525,20.5857,20.7418,20.7813,20.7813,20.7813,20.7813,20.7813,20.7813,20.7813,20.7813,20.7813,20.7813,20.7813,20.7813,20.7813,20.7813,20.7813,20.7813,20.7813,20.7813,20.7813,20.7813,20.7813,20.7813,20.7813,20.7813,20.7813,20.7813,20.7813,20.7813,20.7813,20.7813,20.8207,20.898,21.0493,21.0936,21.2251,21.4816,21.4964,21.5408,21.6559,21.6559,21.6559,21.6559,21.6559,21.6559,21.6559,21.6559,21.6757,15.9265,16.2931,16.667,17.1095,17.2247,17.2972,17.5842,17.7732,17.922,18.0682,18.1701,18.2921,18.5066,18.5469,18.5925,18.7333,19.0082,19.2576,19.397,19.6144,19.7338,19.6539,19.5184,19.3855,19.2543,19.3158,19.3915,19.4807,19.6142,19.7685,19.9248,19.9232,19.9232,19.9232,19.9232,19.9232,19.9232,19.9232,19.9232,19.9232,19.9232,19.9232,19.9232,19.9232,19.9232,19.9232,19.9232,19.9232,19.9232,19.9232,19.9232,19.9232,19.9232,19.9232,19.9232,19.9232,19.9232,19.9232,19.9232,19.984,20.0613,20.2173,20.3538,20.5067,20.6416,20.7188,20.7813,20.7813,20.7813,20.7813,20.7813,20.7813,20.7813,20.7813,20.7813,20.7813,20.7813,20.7813,20.7813,20.7813,20.7813,20.7813,20.7813,20.7813,20.7813,20.7813,20.7813,20.7813,20.7813,20.7813,20.7813,20.7813,20.7813,20.7813,20.7813,20.7813,20.8388,20.995,20.9933,21.0903,21.342,21.4027,21.4816,21.5556,21.6148,21.6559,21.6559,21.6559,21.6559,21.6559,21.6559,21.6559,15.8521,16.2315,16.6402,17.0826,17.2033,17.2905,17.5574,17.7397,17.9019,18.0615,18.095,18.1821,18.4664,18.5335,18.5871,18.7064,18.9827,19.2375,19.397,19.6504,19.8275,19.8044,19.6719,19.5371,19.4221,19.3717,19.387,19.4752,19.6153,19.7504,19.8838,19.9069,19.9232,19.9232,19.9232,19.9232,19.9232,19.9232,19.9232,19.9232,19.9232,19.9232,19.9232,19.9232,19.9232,19.9232,19.9232,19.9232,19.9232,19.9232,19.9232,19.9232,19.9232,19.9232,19.9232,19.9232,19.9232,19.9232,19.9232,19.9232,19.9414,20.0973,20.2141,20.3554,20.5068,20.6465,20.7632,20.7829,20.7813,20.7813,20.7813,20.7813,20.7813,20.7813,20.7813,20.7813,20.7813,20.7813,20.7813,20.7813,20.7813,20.7813,20.7813,20.7813,20.7813,20.7813,20.7813,20.7813,20.7813,20.7813,20.7813,20.7813,20.7813,20.7813,20.7813,20.7813,20.8405,20.9539,20.9753,21.0345,21.1907,21.342,21.4192,21.4192,21.5573,21.6345,21.6559,21.6559,21.6559,21.6559,21.6559,21.6559,15.9344,16.2199,16.4769,16.9205,17.1296,17.2649,17.4367,17.5855,17.7665,18.0414,18.095,18.1499,18.3323,18.4664,18.5536,18.5804,18.8352,19.1168,19.3836,19.5728,19.7696,20.0008,19.807,19.6688,19.6916,19.438,19.3532,19.5376,19.533,19.591,19.7275,19.8672,19.9232,19.9232,19.9232,19.9232,19.9232,19.9232,19.9232,19.9232,19.9232,19.9232,19.9232,19.9232,19.9232,19.9232,19.9232,19.9232,19.9232,19.9232,19.9232,19.9232,19.9232,19.9232,19.9232,19.9232,19.9232,19.9232,19.9232,19.9232,19.9414,20.0973,20.1565,20.2141,20.4903,20.589,20.6268,20.7402,20.7813,20.7813,20.7813,20.7813,20.7813,20.7813,20.7813,20.7813,20.7813,20.7813,20.7813,20.7813,20.7813,20.7813,20.7813,20.7813,20.7813,20.7813,20.7813,20.7813,20.7813,20.7813,20.7813,20.7813,20.7813,20.7813,20.7813,20.7813,20.7961,20.8207,20.8207,20.8766,21.0345,21.1907,21.263,21.263,21.4044,21.5359,21.6559,21.6559,21.6559,21.6559,21.6559,21.6559,15.8847,16.163,16.3964,16.6926,16.9955,17.2569,17.4044,17.544,17.7116,17.9421,18.0427,18.1432,18.2988,18.4463,18.5469,18.5469,18.7266,18.9679,19.2643,19.5153,19.7524,20.0407,19.9026,19.827,19.884,19.5182,19.3471,19.5543,19.4388,19.4564,19.6896,19.767,19.8459,19.9232,19.9232,19.9232,19.9232,19.9232,19.9232,19.9232,19.9232,19.9232,19.9232,19.9232,19.9232,19.9232,19.9232,19.9232,19.9232,19.9232,19.9232,19.9232,19.9232,19.9232,19.9232,19.9232,19.9232,19.9232,19.9232,19.9232,19.9445,20.0021,20.0776,20.1747,20.3933,20.51,20.6037,20.7418,20.7813,20.7813,20.7813,20.7813,20.7813,20.7813,20.7813,20.7813,20.7813,20.7813,20.7813,20.7813,20.7813,20.7813,20.7813,20.7813,20.7813,20.7813,20.7813,20.7813,20.7813,20.7813,20.7813,20.7813,20.7813,20.7813,20.7813,20.7813,20.7813,20.7813,20.7813,20.8158,20.8766,21.0312,21.1101,21.1101,21.3238,21.4767,21.5408,21.6148,21.6559,21.6559,21.6559,21.6559,15.814,16.0892,16.3294,16.5128,16.8224,17.1375,17.3441,17.497,17.6512,17.8,17.9743,18.1352,18.2585,18.4262,18.5469,18.5469,18.6407,18.8137,19.1168,19.4133,19.7083,20.0019,20.0041,19.9853,20.0441,19.6148,19.3952,19.5543,19.3841,19.3805,19.6517,19.6912,19.767,19.9232,19.9232,19.9232,19.9232,19.9232,19.9232,19.9232,19.9232,19.9232,19.9232,19.9232,19.9232,19.9232,19.9232,19.9232,19.9232,19.9232,19.9232,19.9232,19.9232,19.9232,19.9232,19.9232,19.9232,19.9232,19.9232,19.9232,19.9232,19.9232,20.0037,20.1155,20.2552,20.408,20.5479,20.704,20.7632,20.7813,20.7813,20.7813,20.7813,20.7813,20.7813,20.7813,20.7813,20.7813,20.7813,20.7813,20.7813,20.7813,20.7813,20.7813,20.7813,20.7813,20.7813,20.7813,20.7813,20.7813,20.7813,20.7813,20.7813,20.7813,20.7813,20.7813,20.7813,20.7813,20.7813,20.7813,20.7813,20.8997,20.9522,20.9933,21.2251,21.3649,21.3995,21.5359,21.6182,21.6182,21.6345,21.6559,15.7854,16.0155,16.202,16.4927,16.5932,16.7273,17.1497,17.3508,17.497,17.6445,17.8993,18.1017,18.1151,18.3511,18.5469,18.5469,18.5536,18.6676,18.9707,19.2576,19.5527,19.8477,20.0581,20.1983,20.1976,19.8048,19.5543,19.5735,19.3841,19.333,19.4958,19.6304,19.767,19.9232,19.9232,19.9232,19.9232,19.9232,19.9232,19.9232,19.9232,19.9232,19.9232,19.9232,19.9232,19.9232,19.9232,19.9232,19.9232,19.9232,19.9232,19.9232,19.9232,19.9232,19.9232,19.9232,19.9232,19.9232,19.9232,19.9232,19.9232,19.9232,19.9217,19.9611,20.1171,20.2552,20.4096,20.5429,20.6826,20.7813,20.7813,20.7813,20.7813,20.7813,20.7813,20.7813,20.7813,20.7813,20.7813,20.7813,20.7813,20.7813,20.7813,20.7813,20.7813,20.7813,20.7813,20.7813,20.7813,20.7813,20.7813,20.7813,20.7813,20.7813,20.7813,20.7813,20.7813,20.7813,20.7813,20.7813,20.7813,20.7961,20.8569,20.9933,21.0114,21.1084,21.2433,21.3829,21.4618,21.4618,21.5968,21.6559,15.5833,15.868,16.1429,16.2635,16.4927,16.7608,17.0211,17.1283,17.2356,17.4702,17.7598,17.9957,18.0816,18.2706,18.4463,18.5335,18.5469,18.6126,18.8218,19.1034,19.3844,19.65,19.9054,20.0974,20.1568,19.8861,19.6742,19.5771,19.3841,19.2885,19.3446,19.4974,19.6339,19.7883,19.8869,19.9232,19.9232,19.9232,19.9232,19.9232,19.9232,19.9232,19.9232,19.9232,19.9232,19.9232,19.9232,19.9232,19.9232,19.9232,19.9232,19.9232,19.9232,19.9232,19.9232,19.9232,19.9232,19.9232,19.9232,19.9232,19.9232,19.9232,19.9232,19.9414,20.0973,20.1763,20.2749,20.5051,20.6071,20.6597,20.7616,20.7813,20.7813,20.7813,20.7813,20.7813,20.7813,20.7813,20.7813,20.7813,20.7813,20.7813,20.7813,20.7813,20.7813,20.7813,20.7813,20.7813,20.7813,20.7813,20.7813,20.7813,20.7813,20.7813,20.7813,20.7813,20.7813,20.7813,20.7813,20.7813,20.7813,20.7813,20.7977,20.8569,20.9555,21.0345,21.0887,21.3238,21.4421,21.4421,21.5985,21.6559,15.3795,15.6792,15.9954,16.0423,16.3507,16.6792,16.8267,16.8925,16.9997,17.249,17.5788,17.8616,18.0078,18.1969,18.3658,18.4664,18.52,18.5791,18.6796,18.9559,19.2222,19.4246,19.7492,19.9826,20.0407,19.942,19.7686,19.5529,19.3901,19.2833,19.2637,19.3577,19.4943,19.7124,19.808,19.8853,19.9232,19.9232,19.9232,19.9232,19.9232,19.9232,19.9232,19.9232,19.9232,19.9232,19.9232,19.9232,19.9232,19.9232,19.9232,19.9232,19.9232,19.9232,19.9232,19.9232,19.9232,19.9232,19.9232,19.9232,19.9232,19.9232,19.9232,19.9429,20.0416,20.1008,20.1747,20.3933,20.5051,20.5873,20.6794,20.7221,20.7205,20.7599,20.7813,20.7813,20.7813,20.7813,20.7813,20.7813,20.7813,20.7813,20.7813,20.7813,20.7813,20.7813,20.7813,20.7813,20.7813,20.7813,20.7813,20.7813,20.7813,20.7813,20.7813,20.7813,20.7813,20.7813,20.7813,20.7813,20.7813,20.7813,20.7813,20.7813,20.8766,20.9375,20.9375,21.1857,21.3221,21.3846,21.521,21.6165,15.1976,15.4512,15.7115,15.8613,16.1227,16.3763,16.5329,16.6737,16.8199,16.9662,17.3416,17.6982,17.8549,18.1311,18.3323,18.3323,18.453,18.5469,18.5455,18.8017,19.0498,19.1892,19.5915,19.8678,19.8828,19.9618,19.8468,19.4934,19.4068,19.3315,19.2652,19.2621,19.4003,19.7074,19.7109,19.7898,19.9232,19.9232,19.9232,19.9232,19.9232,19.9232,19.9232,19.9232,19.9232,19.9232,19.9232,19.9232,19.9232,19.9232,19.9232,19.9232,19.9232,19.9232,19.9232,19.9232,19.9232,19.9232,19.9232,19.9232,19.9232,19.9232,19.9232,19.9232,19.9232,20.0219,20.1368,20.1352,20.3538,20.5676,20.5676,20.5676,20.6071,20.7402,20.7813,20.7813,20.7813,20.7813,20.7813,20.7813,20.7813,20.7813,20.7813,20.7813,20.7813,20.7813,20.7813,20.7813,20.7813,20.7813,20.7813,20.7813,20.7813,20.7813,20.7813,20.7813,20.7813,20.7813,20.7813,20.7813,20.7813,20.7813,20.7813,20.7813,20.7813,20.7796,20.7796,20.9375,21.0722,21.2285,21.3797,21.5161,15.2238,15.5261,15.8601,16.0088,16.1886,16.3428,16.3897,16.5987,16.8132,16.9595,17.1003,17.3093,17.6579,17.8885,18.0909,18.2988,18.3658,18.4329,18.5335,18.7064,18.8724,18.9767,19.42,19.7129,19.6723,19.926,19.9033,19.5131,19.455,19.3461,19.1291,19.2095,19.3082,19.4003,19.596,19.7306,19.767,19.8691,19.9232,19.9232,19.9232,19.9232,19.9232,19.9232,19.9232,19.9232,19.9232,19.9232,19.9232,19.9232,19.9232,19.9232,19.9232,19.9232,19.9232,19.9232,19.9232,19.9232,19.9232,19.9232,19.9232,19.9232,19.9232,19.9232,19.9232,19.9642,20.0184,20.1187,20.1928,20.2733,20.2733,20.3488,20.4509,20.6037,20.6252,20.6629,20.7616,20.7813,20.7813,20.7813,20.7813,20.7813,20.7813,20.7813,20.7813,20.7813,20.7813,20.7813,20.7813,20.7813,20.7813,20.7813,20.7813,20.7813,20.7813,20.7813,20.7813,20.7813,20.7813,20.7813,20.7813,20.7813,20.7813,20.7813,20.7813,20.7813,20.7813,20.9144,21.0114,21.0739,21.2285,21.3649,15.1937,15.4792,15.7674,15.9071,16.0545,16.1819,16.2355,16.3909,16.5853,16.7864,16.8724,17.0278,17.4166,17.7464,18.0225,18.2116,18.339,18.4396,18.5335,18.6193,18.7398,18.9101,19.2329,19.4966,19.6332,19.8862,19.9223,19.6305,19.5539,19.4018,19.1438,19.162,19.208,19.2621,19.4382,19.591,19.7109,19.8095,19.8459,19.8459,19.9051,19.9232,19.9232,19.9232,19.9232,19.9232,19.9232,19.9232,19.9232,19.9232,19.9232,19.9232,19.9232,19.9232,19.9232,19.9232,19.9232,19.9232,19.9232,19.9232,19.9232,19.9232,19.9232,19.9232,19.9232,19.9232,19.9429,20.0382,20.0973,20.1368,20.1368,20.1944,20.3128,20.5248,20.5676,20.6071,20.7402,20.7813,20.7813,20.7813,20.7813,20.7813,20.7813,20.7813,20.7813,20.7813,20.7813,20.7813,20.7813,20.7813,20.7813,20.7813,20.7813,20.7813,20.7813,20.7813,20.7813,20.7813,20.7813,20.7813,20.7813,20.7813,20.7813,20.7813,20.7813,20.7813,20.7813,20.8799,20.9325,20.9917,21.0936,21.2301,15.1339,15.3507,15.4915,15.6445,15.7943,15.935,16.0825,16.1227,16.2099,16.486,16.667,16.8602,17.1363,17.6525,18.0481,18.0883,18.331,18.52,18.5536,18.5603,18.6676,18.9559,19.072,19.2877,19.6919,19.8455,19.866,19.7875,19.6498,19.4742,19.2783,19.1291,19.1079,19.2409,19.2556,19.4003,19.6714,19.6896,19.7109,19.7109,19.8459,19.9069,19.9232,19.9232,19.9232,19.9232,19.9232,19.9232,19.9232,19.9232,19.9232,19.9232,19.9232,19.9232,19.9232,19.9232,19.9232,19.9232,19.9232,19.9232,19.9232,19.9232,19.9232,19.9232,19.9232,19.9232,19.9232,19.9232,20.0234,20.1221,20.1221,20.1221,20.196,20.469,20.5265,20.584,20.7435,20.7599,20.7599,20.7813,20.7829,20.7599,20.7813,20.7829,20.7599,20.7813,20.7813,20.7813,20.7813,20.7813,20.7813,20.7813,20.7813,20.7813,20.7813,20.7813,20.7813,20.7813,20.7813,20.7813,20.7813,20.7813,20.7813,20.7813,20.7813,20.7813,20.7813,20.7813,20.8553,20.972,20.972,21.0525,15.2809,15.4311,15.5183,15.7809,15.8747,15.935,16.0825,16.202,16.2959,16.3696,16.5908,16.7998,16.8669,17.1765,17.5721,18.0212,18.1553,18.3243,18.6595,18.7064,18.7802,18.9707,19.2049,19.3695,19.4212,19.7117,19.8283,19.6294,19.5544,19.4322,19.2687,19.1291,19.0619,19.0947,19.208,19.295,19.3674,19.591,19.7109,19.7109,19.7519,19.8293,19.9232,19.9232,19.9232,19.9232,19.9232,19.9232,19.9232,19.9232,19.9232,19.9232,19.9232,19.9232,19.9232,19.9232,19.9232,19.9232,19.9232,19.9232,19.9232,19.9232,19.9232,19.9232,19.9232,19.9232,19.9232,19.9232,19.9414,19.9855,19.9855,19.9855,20.0234,20.1944,20.2339,20.3144,20.5626,20.6235,20.6465,20.7616,20.6794,20.6465,20.7616,20.6794,20.6449,20.7616,20.7813,20.7813,20.7813,20.7813,20.7813,20.7813,20.7813,20.7813,20.7813,20.7813,20.7813,20.7813,20.7813,20.7813,20.7813,20.7813,20.7813,20.7813,20.7813,20.7813,20.7813,20.7813,20.801,20.8355,20.8355,20.9194,15.3359,15.4512,15.4781,15.573,15.6468,15.7127,15.7943,15.9741,16.1484,16.2154,16.4713,16.7005,16.7663,17.0223,17.3709,17.8188,18.0695,18.284,18.5254,18.6193,18.7413,18.964,19.1052,19.2596,19.456,19.6348,19.7313,19.712,19.6335,19.5156,19.3709,19.2278,19.116,19.0553,19.1225,19.1964,19.2621,19.4266,19.4974,19.5151,19.6532,19.7504,19.8262,19.8822,19.9232,19.9232,19.9232,19.9232,19.9232,19.9232,19.9232,19.9232,19.9232,19.9232,19.9232,19.9232,19.9232,19.9232,19.9232,19.9232,19.9232,19.9232,19.9232,19.9232,19.9232,19.9232,19.9232,19.9232,19.9232,19.9232,19.9232,19.9232,19.9642,20.1023,20.1368,20.1944,20.4098,20.4722,20.51,20.6645,20.6218,20.5873,20.6597,20.6235,20.5676,20.5856,20.5856,20.5856,20.5856,20.6432,20.6826,20.6826,20.7418,20.7813,20.7813,20.7813,20.7813,20.7813,20.6662,20.6021,20.6826,20.7402,20.7813,20.7813,20.7813,20.7813,20.7813,20.7813,20.7813,20.7813,20.7813,20.8191,15.3038,15.4512,15.4646,15.3652,15.4177,15.4982,15.5451,15.754,15.9686,16.0892,16.3708,16.62,16.6926,16.9888,17.3039,17.544,17.9622,18.2854,18.3524,18.4865,18.681,18.9573,18.9438,19.0851,19.535,19.552,19.6349,19.8249,19.7514,19.6346,19.4796,19.3395,19.1949,19.0553,19.0487,19.1094,19.2293,19.2278,19.2424,19.2687,19.5186,19.673,19.7109,19.8246,19.9035,19.9232,19.9232,19.9232,19.9232,19.9232,19.9232,19.9232,19.9232,19.9232,19.9232,19.9232,19.9232,19.9232,19.9232,19.9232,19.9232,19.9232,19.9232,19.9232,19.9232,19.9232,19.9232,19.9232,19.9232,19.9232,19.9232,19.9232,19.9642,20.0776,20.1008,20.1418,20.2913,20.3144,20.3686,20.5265,20.5479,20.5429,20.5692,20.5479,20.4903,20.3686,20.3505,20.3505,20.3505,20.4492,20.5282,20.5282,20.6432,20.7237,20.7237,20.7237,20.7237,20.7237,20.487,20.408,20.5282,20.6416,20.7221,20.7402,20.7599,20.7813,20.7813,20.7813,20.7813,20.7813,20.7813,20.7813,15.1831,15.4512,15.6646,15.7741,15.7194,15.6981,15.954,16.0478,16.0881,16.1082,16.4512,16.6725,16.4366,16.8468,17.2368,17.2783,17.6605,18.0842,18.4597,18.6327,18.7936,18.9707,18.9825,19.0535,19.2562,19.3234,19.4572,19.6938,19.6337,19.5524,19.4746,19.3395,19.1949,19.0553,19.0487,19.0619,19.0816,19.0816,19.1423,19.2621,19.3082,19.4579,19.7109,19.7306,19.808,19.9232,19.9232,19.9232,19.9232,19.9232,19.9232,19.9232,19.9232,19.9232,19.9232,19.9232,19.9232,19.9232,19.9232,19.9232,19.9232,19.9232,19.9232,19.9232,19.9232,19.9232,19.9232,19.9232,19.9232,19.9232,19.9232,19.9232,19.9217,19.9414,19.9642,20.0037,20.1368,20.1779,20.2568,20.5068,20.4722,20.4294,20.5495,20.4656,20.3736,20.3488,20.3505,20.3505,20.3505,20.3686,20.3899,20.3899,20.4096,20.413,20.413,20.413,20.413,20.413,20.3686,20.3718,20.3899,20.4096,20.4706,20.6037,20.7221,20.7813,20.7813,20.7813,20.7813,20.7813,20.7813,20.7813,15.2971,15.4512,15.5708,15.6401,15.6054,15.6043,15.8255,15.9406,15.9954,15.9954,16.3507,16.592,16.3696,16.745,17.1216,17.2113,17.4581,17.7933,18.2371,18.4986,18.6997,18.8472,18.8674,18.9559,19.1839,19.2737,19.4039,19.5925,19.6937,19.6557,19.4241,19.4226,19.3167,19.0568,19.0487,19.0487,19.0487,19.0487,19.0816,19.1488,19.2278,19.3345,19.4741,19.632,19.7504,19.8064,19.8838,19.9232,19.9232,19.9232,19.9232,19.9232,19.9232,19.9232,19.9232,19.9232,19.9232,19.9232,19.9232,19.9232,19.9232,19.9232,19.9232,19.9232,19.9232,19.9232,19.9232,19.9232,19.9232,19.9232,19.9232,19.9232,19.9232,19.9232,19.9232,19.9429,20.0006,20.0219,20.081,20.293,20.2733,20.2552,20.3357,20.2733,20.2173,20.1384,20.1155,20.1155,20.1155,20.1976,20.2355,20.2355,20.311,20.3505,20.3505,20.2173,20.1155,20.1155,20.1155,20.1565,20.237,20.2355,20.311,20.4459,20.5051,20.584,20.6613,20.6613,20.7007,20.7813,20.7813,20.7813,15.4579,0.0,15.5585,15.5585,15.5585,15.5987,0.0,15.8669,15.9619,15.9954,16.2982,16.525,16.4031,16.7182,17.0412,17.1979,17.3441,17.5788,17.989,18.2773,18.5187,18.7333,18.7266,18.8271,19.1235,19.2075,19.3125,19.4961,19.6688,19.6721,19.3977,19.4552,19.3708,19.0792,19.0727,19.0727,19.0727,19.0562,19.0562,19.0727,19.1695,19.2278,19.2687,19.4989,19.6532,19.7093,19.8277,19.8822,19.9232,19.9232,19.9232,19.9232,19.9232,19.9232,19.9232,19.9232,19.9232,19.9232,19.9232,19.9232,19.9232,19.9232,19.9232,19.9232,19.9232,19.9232,19.9232,19.9232,19.9232,19.9232,19.9232,19.9232,19.9232,19.9232,19.9232,19.9232,19.9232,19.9232,19.9627,20.1187,20.1368,20.1368,20.1368,20.1368,20.081,19.9429,19.9232,19.9232,19.9232,20.0234,20.081,20.081,20.1747,20.2568,20.2568,20.0416,19.9232,19.9232,19.9232,19.9855,20.081,20.081,20.1565,20.2946,20.2946,20.3736,20.5068,20.5068,20.589,20.7188,20.7188,20.7402,0.0,15.7596,15.8692,15.8692,15.8692,15.9082,16.049,16.0881,0.0,16.2691,16.4378,16.5597,16.5463,16.7864,17.0412,17.1979,17.3441,17.5452,17.8536,18.0293,18.2827,18.7064,18.6394,18.6743,18.9774,19.0121,19.1063,19.3211,19.4308,19.4754,19.4577,19.3462,19.2412,19.1462,19.141,19.141,19.141,19.0801,19.0801,19.1395,19.0918,19.1357,19.2621,19.2819,19.4382,19.7109,19.7322,19.8095,19.9232,19.9232,19.9232,19.9232,19.9232,19.9232,19.9232,19.9232,19.9232,19.9232,19.9232,19.9232,19.9232,19.9232,19.9232,19.9232,19.9232,19.9232,19.9232,19.9232,19.9232,19.9232,19.9232,19.9232,19.9232,19.9232,19.9232,19.9232,19.9232,19.9232,19.9627,20.1187,20.1368,20.1368,20.1368,20.1368,20.081,19.9429,19.9232,19.9232,19.9232,19.9217,19.9445,19.9445,19.9414,19.9642,19.9642,19.9445,19.9232,19.9232,19.9232,19.9217,19.9445,19.9445,20.0021,20.1581,20.1581,20.2141,20.3702,20.3702,20.4475,20.5824,20.5824,20.6465,15.611,15.7809,15.9027,15.9027,15.9027,15.935,16.0825,16.0411,16.049,16.2813,16.3763,16.4445,16.5463,16.7206,16.9339,17.1844,17.2637,17.4392,17.8281,18.0078,18.1969,18.4597,18.52,18.626,18.8285,18.9371,19.0616,19.236,19.457,19.519,19.3933,19.4199,19.4318,19.4036,19.2778,19.233,19.2806,19.1629,19.1218,19.1469,19.0801,19.0975,19.1891,19.2408,19.3279,19.4331,19.5384,19.6552,0.0,19.7883,19.8459,19.9232,19.9232,19.9232,19.9232,19.9232,19.9232,19.9232,19.9232,19.9232,19.9232,19.9232,19.9232,19.9232,19.9232,19.9232,19.9232,19.9232,19.9232,19.9232,19.9232,19.9232,19.9232,19.9232,19.9232,19.9232,19.9232,19.9232,19.9445,20.0037,20.0021,20.0021,20.0021,20.0021,19.9824,19.9217,19.9232,19.9232,19.9232,19.9232,19.9232,19.9232,19.9232,19.9232,19.9232,19.9232,19.9232,19.9232,19.9232,19.9232,19.9232,19.9232,19.9414,20.0021,20.0021,20.0382,20.081,20.1779,20.2946,20.4327,20.4327,20.4672,15.6914,15.8211,15.9027,15.9027,15.935,15.9954,16.0959,16.0423,16.049,16.344,16.3629,16.3897,16.5932,16.7072,16.8535,17.1095,17.1899,17.3454,17.6927,17.9073,18.0695,18.1781,18.3994,18.5656,18.6193,18.8419,19.031,19.1302,19.395,19.4942,19.3697,19.4245,19.4567,19.477,19.3513,19.3225,19.4208,19.3059,19.2426,19.2426,19.1982,19.1576,19.1159,19.1909,19.2423,19.2687,19.3643,19.4958,19.6355,19.6355,19.7306,19.8672,19.8672,19.8853,19.9232,19.9232,19.9232,19.9232,19.9232,19.9232,19.9232,19.9232,19.9232,19.9232,19.9232,19.9232,19.9232,19.9232,19.9232,19.9232,19.9232,19.9232,19.9232,19.9232,19.9232,19.9232,19.9232,19.9232,19.9232,19.9232,19.9232,19.9232,19.9232,19.9232,19.9232,19.9232,19.9232,19.9232,19.9232,19.9232,19.9232,19.9232,19.9232,19.9232,19.9232,19.9232,19.9232,19.9232,19.9232,19.9232,19.9232,19.9232,19.9232,19.9232,19.9232,19.9232,19.9232,20.0219,20.1155,20.2157,20.2552,20.311,15.8211,15.9027,15.9027,15.9027,16.0088,16.116,16.1149,16.116,16.2032,16.4994,16.4378,16.4232,16.7194,16.773,16.8199,16.9674,17.1229,17.2704,17.4179,17.6927,17.8817,17.8817,18.272,18.4865,18.3457,18.7293,18.9908,18.9908,19.2082,19.3601,19.4143,19.3072,19.2749,19.3464,19.3411,19.4145,19.5532,19.4988,19.4584,19.4584,19.4569,19.3191,19.0598,19.1188,19.192,19.2637,19.2637,19.3461,19.4746,19.4746,19.5778,19.7124,19.7124,19.7867,19.9232,19.9232,19.9232,19.9232,19.9232,19.9232,19.9232,19.9232,19.9232,19.9232,19.9232,19.9232,19.9232,19.9232,19.9232,19.9232,19.9232,19.9232,19.9232,19.9232,19.9232,19.9232,19.9232,19.9232,19.9232,19.9232,19.9232,19.9232,19.9232,19.9232,19.9232,19.9232,19.9232,19.9232,19.9232,19.9232,19.9232,19.9232,19.9232,19.9232,19.9232,19.9232,19.9232,19.9232,19.9232,19.9232,19.9232,19.9232,19.9232,19.9232,19.9232,19.9232,19.9232,19.9232,19.9232,19.9217,20.0613,20.2173,15.8211,15.9027,15.9027,15.9027,16.0088,16.1429,16.2422,16.1886,16.2288,16.6322,16.5037,16.4232,16.7194,16.773,16.8199,16.9674,17.0278,17.1484,17.4044,17.5976,17.7598,17.8683,18.1835,18.3792,18.3323,18.5402,18.7614,18.9774,19.1471,19.2983,19.4104,19.2896,19.3184,19.5539,19.4601,19.4346,19.5547,19.5344,19.5338,19.5147,19.4297,19.395,19.4023,19.2272,19.1579,19.1797,19.1797,19.2385,19.3264,19.3264,19.4103,19.5565,19.5565,19.5747,19.6142,19.6142,19.6718,19.767,19.767,19.8474,19.9232,19.9232,19.9232,19.9035,19.808,19.767,19.7867,19.9066,19.9232,19.9232,19.9232,19.9232,19.9232,19.9232,19.9232,19.9232,19.9232,19.9232,19.9232,19.9232,19.9232,19.9232,19.9232,19.9232,19.9232,19.9232,19.9232,19.9232,19.9232,19.9232,19.9232,19.9232,19.9232,19.9232,19.9232,19.9232,19.9232,19.9232,19.9232,19.9232,19.9232,19.9232,19.9232,19.9232,19.9232,19.9232,19.9232,19.9232,19.9232,19.9232,19.9627,20.0006,15.7462,15.8546,15.9027,15.9027,16.0088,16.1484,16.2947,16.2154,16.2434,16.6859,16.5372,16.4232,16.7194,16.773,16.8065,16.8937,16.9528,17.0735,17.3173,17.4769,17.6177,17.7732,18.0024,18.1781,18.2304,18.3712,18.5804,18.8754,19.0364,19.1571,19.2442,19.2174,19.2912,19.475,19.4387,19.4739,19.5922,19.5922,19.5778,19.5532,19.5571,19.5336,19.476,19.3596,19.2816,19.2329,19.1985,19.2146,19.2553,19.2263,19.305,19.4307,19.3998,19.4285,19.4796,19.4796,19.5353,19.6157,19.6157,19.6734,19.7523,19.7523,19.7523,19.731,19.6502,19.6157,19.6355,19.7275,19.7523,19.767,19.8277,19.8474,19.8443,19.9019,19.9232,19.9232,19.9232,19.9232,19.9232,19.9232,19.9232,19.9232,19.9232,19.9232,19.9232,19.9232,19.9232,19.9232,19.9232,19.9232,19.9232,19.9232,19.9232,19.9232,19.9232,19.9232,19.9232,19.9232,19.9232,19.9232,19.9232,19.9232,19.9232,19.9232,19.9232,19.9232,19.9232,19.9232,19.9232,19.9232,19.9232,19.9232,15.6311,15.7809,15.9027,15.9027,16.0088,16.1484,16.2947,16.2288,16.2556,16.6859,16.5506,16.4366,16.7261,16.773,16.773,16.773,16.8858,17.0278,17.1765,17.3106,17.4514,17.611,17.7665,17.9153,18.0615,18.2317,18.4396,18.6997,18.8754,18.964,18.9506,19.0833,19.1772,19.204,19.3314,19.4789,19.636,19.6494,19.6099,19.5715,19.7476,19.6934,19.4102,19.5186,19.4973,19.3748,19.3066,19.2635,19.2401,19.1779,19.2292,19.3348,19.2852,19.3401,19.4412,19.4412,19.459,19.498,19.4564,19.4776,19.5004,19.4746,19.4792,19.4544,19.461,19.4579,19.4599,19.4746,19.4796,19.5156,19.6502,19.6912,19.7306,19.864,19.9248,19.9232,19.9232,19.9232,19.9232,19.9232,19.9232,19.9232,19.9232,19.9232,19.9232,19.9232,19.9232,19.9232,19.9232,19.9232,19.9232,19.9232,19.9232,19.9232,19.9232,19.9232,19.9232,19.9232,19.9232,19.9232,19.9232,19.9232,19.9232,19.9232,19.9232,19.9232,19.9232,19.9232,19.9232,19.9232,19.9232,19.9232,15.6311,15.7809,15.9027,15.9027,16.0088,16.1484,16.2947,16.3026,16.3763,16.706,16.6334,16.5652,16.7395,16.773,16.773,16.773,16.7998,16.8736,17.0211,17.068,17.182,17.4501,17.6123,17.7598,17.9153,18.1714,18.3524,18.4195,18.6595,18.7601,18.6474,18.7735,18.9612,19.1973,19.2375,19.3247,19.456,19.5943,19.6504,19.6347,19.6337,19.6728,19.7521,19.6168,19.5373,19.514,19.4938,19.3988,19.243,19.2299,19.2095,19.1962,19.2316,19.2352,19.2187,19.2187,19.3887,19.5928,19.3811,19.4996,19.7128,19.539,19.4388,19.3837,19.3858,19.3511,19.333,19.4386,19.4796,19.4781,19.514,19.5368,19.5778,19.7144,19.8474,19.9232,19.9232,19.9232,19.9232,19.9232,19.9232,19.9232,19.9232,19.9232,19.9232,19.9232,19.9232,19.9232,19.9232,19.9232,19.9232,19.9232,19.9232,19.9232,19.9232,19.9232,19.9232,19.9232,19.9232,19.9232,19.9232,19.9232,19.9232,19.9232,19.9232,19.9232,19.9232,19.9232,19.9232,19.9232,19.9232,19.9232,15.525,15.6725,15.8065,15.8814,15.9552,16.049,16.1953,16.2221,16.3093,16.6121,16.6133,16.6066,16.7462,16.773,16.773,16.773,16.773,16.8267,16.9674,16.9863,17.0735,17.3039,17.4568,17.6056,17.7598,17.9823,18.1781,18.3189,18.4664,18.52,18.4463,18.5133,18.6877,18.9813,19.1288,19.2375,19.3166,19.4574,19.5393,19.5378,19.5721,19.6314,19.7078,19.6328,19.5917,19.5547,19.5946,19.5325,19.4393,19.4755,19.4796,19.4356,19.4356,19.4312,19.3979,19.3979,19.5181,19.6554,19.5182,19.5733,19.7313,19.6156,19.4939,19.4112,19.4067,19.3381,19.2672,19.3084,19.3191,19.3248,19.3654,19.3709,19.4103,19.5535,19.6521,19.7113,19.7113,19.7654,19.8474,19.9019,19.9232,19.9232,19.9232,19.9232,19.9232,19.9232,19.9232,19.9232,19.9232,19.9232,19.9232,19.9232,19.9232,19.9232,19.9232,19.9232,19.8822,19.8277,19.8293,19.7867,19.7113,19.7113,19.7113,19.7113,19.7113,19.7113,19.7113,19.7113,19.7523,19.8293,19.8293,19.8672,15.3842,15.5373,15.6981,15.8278,15.8814,15.935,16.0825,16.1362,16.23,16.5061,16.5798,16.6334,16.7529,16.773,16.773,16.773,16.773,16.8199,16.9327,16.9528,17.0064,17.1631,17.2838,17.4233,17.5976,17.7531,17.9555,18.2317,18.225,18.2384,18.2854,18.3122,18.4396,18.6796,18.9679,19.1503,19.204,19.3233,19.3903,19.4172,19.5541,19.5926,19.572,19.6318,19.6113,19.572,19.6333,19.6331,19.6154,19.6939,19.7117,19.689,19.6732,19.6548,19.654,19.6725,19.708,19.7338,19.6931,19.6902,19.7301,19.7072,19.6164,19.5145,19.5145,19.406,19.266,19.2176,19.183,19.1778,19.243,19.2534,19.2773,19.4256,19.459,19.4386,19.4746,19.5747,19.7109,19.8246,19.864,19.8838,19.8838,19.9019,19.9232,19.9232,19.9232,19.9232,19.9232,19.8853,19.8443,19.8443,19.8443,19.8443,19.8443,19.8443,19.7902,19.6683,19.6714,19.6157,19.4796,19.4796,19.4796,19.4796,19.4796,19.4796,19.4796,19.4796,19.5322,19.6714,19.6714,19.7488,15.2647,15.4646,15.6713,15.6914,15.7998,15.935,16.0825,16.2087,16.3495,16.525,16.6603,16.7529,16.773,16.773,16.773,16.773,16.773,16.7797,16.7998,16.8065,16.8602,17.001,17.0399,17.1551,17.4367,17.5976,17.7518,17.93,17.8201,17.8536,18.1164,18.2585,18.3457,18.3859,18.6662,18.9411,19.204,19.2241,19.2979,19.4172,19.4373,19.5149,19.6337,19.6518,19.6518,19.6351,19.6518,19.5728,19.4588,19.4556,19.4402,19.4188,19.5932,19.6146,19.5965,19.7084,19.8689,19.985,19.7479,19.7863,19.9455,19.8661,19.7855,19.7284,19.7284,19.597,19.4289,19.4201,19.3257,19.2365,19.241,19.208,19.1997,19.3405,19.3329,19.3264,19.4564,19.4943,19.514,19.5337,19.6502,19.7291,19.7291,19.8474,19.9232,19.9232,19.9232,19.9232,19.9232,19.69,19.5322,19.5322,19.5322,19.5322,19.5322,19.5322,19.5353,19.5156,19.5156,19.4993,19.4796,19.4796,19.4796,19.4796,19.4796,19.4796,19.4796,19.4796,19.4958,19.5156,19.5156,19.596,15.1898,15.3306,15.4635,15.6244,15.7194,15.8065,15.9619,16.1026,16.2489,16.3976,16.5518,16.6804,16.7596,16.773,16.773,16.773,16.773,16.773,16.773,16.773,16.7998,16.8602,16.9406,17.0399,17.1753,17.3227,17.505,17.733,17.6123,17.6244,17.8322,17.9957,18.158,18.3256,18.453,18.6609,18.9478,19.0431,19.1182,19.1772,19.1772,19.2576,19.3984,19.3984,19.4373,19.534,19.6144,19.6144,19.5527,19.6317,19.6495,19.651,19.729,19.75,19.7322,19.8087,19.8849,19.941,19.8256,19.7908,19.8049,19.8443,19.7888,19.7084,19.7084,19.5716,19.4293,19.4014,19.3446,19.2822,19.2057,19.1925,19.2095,19.2322,19.2172,19.2176,19.282,19.3244,19.3577,19.3577,19.4761,19.5747,19.5747,19.6339,19.6718,19.6718,19.6718,19.6718,19.6718,19.5585,19.4796,19.4796,19.4796,19.4796,19.4796,19.4796,19.4402,19.3643,19.3577,19.3249,19.2379,19.2379,19.2379,19.2379,19.2379,19.2379,19.2379,19.2379,19.2773,19.3577,19.3577,19.4366,15.1111,15.1846,15.2434,15.497,15.5842,15.6523,15.8065,15.9552,16.1026,16.2422,16.4244,16.5932,16.7005,16.7529,16.773,16.773,16.773,16.773,16.773,16.773,16.773,16.773,16.8736,16.9461,16.9863,17.0948,17.249,17.4622,17.3831,17.4044,17.5842,17.7397,17.9421,18.2049,18.2518,18.3926,18.6461,18.8017,18.9157,18.9908,18.9908,19.0498,19.1503,19.1503,19.2107,19.3166,19.4334,19.4789,19.4951,19.5929,19.6681,19.7097,19.7323,19.7471,19.7524,19.7859,19.7888,19.7485,19.6748,19.5742,19.5153,19.6547,19.636,19.5393,19.5714,19.5124,19.4087,19.3701,19.364,19.3426,19.2436,19.2407,19.2575,19.2057,19.1705,19.1528,19.1676,19.1942,19.2141,19.2307,19.3041,19.3825,19.4154,19.4564,19.4796,19.4796,19.4796,19.4564,19.3759,19.3694,19.3694,19.3694,19.3694,19.3694,19.3694,19.3694,19.3233,19.2146,19.208,19.162,19.0553,19.0158,18.9976,18.9976,18.9567,18.9435,18.9435,18.9779,19.0502,19.1569,19.1898,19.2854,14.9905,15.0293,15.0547,15.2233,15.3641,15.5037,15.6445,15.7998,15.9563,16.0948,16.3586,16.5664,16.5731,16.6871,16.773,16.773,16.773,16.773,16.773,16.773,16.773,16.773,16.7797,16.8401,16.9729,16.9997,17.0064,17.0198,17.0131,17.1417,17.4313,17.5842,17.7397,17.9019,18.036,18.1835,18.3524,18.4932,18.7078,18.9908,18.9908,18.9975,19.0042,19.0042,19.0042,19.0109,19.0243,19.0243,19.0243,19.031,19.1168,19.2509,19.3903,19.4373,19.4574,19.6144,19.5742,19.4037,19.1302,19.031,19.0511,19.1906,19.2375,19.2509,19.3917,19.4239,19.4157,19.4129,19.4129,19.4115,19.4045,19.3701,19.3354,19.3311,19.2349,19.1632,19.227,19.1432,19.0813,19.1439,19.1052,19.1145,19.2556,19.3906,19.4796,19.4796,19.4796,19.3759,19.1079,19.0684,19.0684,19.0684,19.0684,19.0684,19.0684,19.0684,19.0684,19.0619,19.0619,19.0553,19.0487,18.9202,18.8493,18.8493,18.7097,18.6425,18.6425,18.7836,18.8493,18.8625,18.9976,19.1342,14.8345,14.7989,14.7777,15.0278,15.1284,15.2289,15.4781,15.6445,15.7931,15.9484,16.1362,16.3038,16.3964,16.5384,16.6402,16.6402,16.7127,16.773,16.773,16.773,16.773,16.773,16.773,16.7931,16.8468,16.8535,16.8535,16.8535,16.9339,17.0332,17.1417,17.2892,17.4849,17.7263,17.7786,17.9274,18.1768,18.2304,18.3109,18.4181,18.4181,18.5187,18.7011,18.7011,18.8084,18.9908,18.9908,18.9908,18.9908,18.9908,19.0243,19.0699,19.1235,19.1436,19.1503,19.2054,19.192,19.1168,18.909,18.909,18.9975,19.0498,19.1302,19.1973,19.1571,19.1436,19.1436,19.1436,19.1436,19.1339,19.0935,19.1713,19.2424,19.2,19.232,19.2807,19.3024,19.2013,19.1188,19.144,19.1292,19.1127,19.122,19.2032,19.2481,19.211,19.2065,19.1671,19.0619,19.0487,19.0487,19.0487,19.0487,19.0487,19.0487,19.0487,19.0487,19.0487,19.0487,19.0108,18.9136,18.8625,18.7901,18.6966,18.6505,18.6242,18.6242,18.6703,18.6966,18.6966,18.7477,18.8003,14.6817,14.6058,14.5452,14.7922,14.8581,14.9329,15.2356,15.3764,15.5037,15.706,15.9082,16.0691,16.1685,16.3495,16.4982,16.553,16.6402,16.7194,16.7663,16.773,16.773,16.773,16.773,16.773,16.773,16.773,16.773,16.773,16.8657,16.9394,16.9863,17.0893,17.2569,17.497,17.5037,17.6458,17.9475,17.9475,18.0011,18.095,18.095,18.2036,18.3913,18.3913,18.4986,18.6877,18.6877,18.6877,18.6877,18.6877,18.748,18.8419,18.8419,18.8687,18.9157,18.9157,18.8151,18.681,18.6327,18.681,18.7695,18.7695,18.8366,18.8888,18.795,18.8017,18.85,18.9023,18.9492,18.9812,18.9397,19.0327,19.1191,19.0773,19.1336,19.2105,19.2799,19.1922,19.1241,19.2006,19.194,19.1573,19.0935,19.1188,19.1262,19.0592,19.0487,19.0637,19.1069,19.1129,19.104,19.0846,19.0816,19.0727,19.0502,19.0487,19.0487,19.0487,19.0487,18.9844,18.8427,18.7901,18.6966,18.5504,18.5059,18.4796,18.4796,18.5241,18.5504,18.5504,18.5965,18.6242,14.5258,14.4542,14.3762,14.5174,14.5565,14.6292,14.9262,14.9932,15.0871,15.3775,15.6736,15.8814,15.8893,16.1227,16.3629,16.5195,16.5463,16.6066,16.7462,16.7663,16.773,16.773,16.773,16.773,16.773,16.773,16.773,16.773,16.773,16.8334,16.9729,16.9796,17.0533,17.21,17.218,17.3508,17.6378,17.6378,17.7853,18.0682,18.0749,18.0749,18.0749,18.0883,18.095,18.095,18.095,18.095,18.095,18.095,18.2706,18.5335,18.5335,18.6126,18.74,18.7467,18.4691,18.1218,18.272,18.3256,18.3323,18.3256,18.3256,18.3323,18.3256,18.4195,18.5603,18.6997,18.8472,18.964,18.9707,18.9707,18.9774,18.9841,18.9371,18.9561,19.1579,19.099,19.0677,19.2882,19.2827,19.2203,19.1551,19.1462,19.1322,19.0637,19.0547,19.098,19.2284,19.2444,19.2226,19.1573,19.1499,19.1247,19.0592,19.0532,19.0517,19.0481,19.0451,18.9809,18.8326,18.6944,18.5548,18.4072,18.2669,18.1908,18.1908,18.3232,18.3926,18.3941,18.5322,18.5979,14.2141,14.2261,14.223,14.3684,14.4019,14.4535,14.638,14.7721,14.9072,15.0938,15.2837,15.4524,15.5585,15.8211,16.0356,16.0758,16.2556,16.4445,16.5999,16.6188,16.6603,16.7663,16.773,16.773,16.773,16.773,16.773,16.773,16.773,16.7931,16.8334,16.8321,16.9004,17.0479,17.0533,17.1484,17.3374,17.3374,17.3843,17.4648,17.5721,17.619,17.6257,17.8402,17.9957,18.095,18.095,18.095,18.095,18.095,18.1486,18.2224,18.2224,18.2425,18.2958,18.4395,18.3254,18.1017,18.1486,18.2371,18.3122,18.1969,18.2384,18.3122,18.1969,18.1902,18.2304,18.2693,18.3095,18.3712,18.4865,18.5871,18.6944,18.8003,18.8952,18.9821,19.0403,18.9873,18.9421,19.0071,19.0891,19.1244,19.0596,19.183,19.2677,19.2021,19.0977,19.0747,19.2268,19.2444,19.2372,19.2211,19.2197,19.2123,19.1948,19.1455,19.0918,19.0271,18.9839,18.8482,18.5923,18.5877,18.5031,18.3137,18.2078,18.1493,18.1493,18.0508,17.9983,17.9983,17.993,18.0441,13.9105,13.8895,13.8806,14.0313,14.1167,14.2161,14.4232,14.5905,14.7216,14.8072,14.9474,15.096,15.2434,15.4646,15.6881,15.8692,16.0423,16.2221,16.4378,16.4646,16.5183,16.667,16.6255,16.6121,16.6804,16.6859,16.7127,16.773,16.773,16.773,16.773,16.773,16.8132,16.9004,16.8992,16.9741,17.1216,17.1229,17.1564,17.2247,17.3106,17.3441,17.3508,17.5264,17.6525,17.733,17.733,17.733,17.733,17.7933,17.9077,18.0363,18.0971,18.1633,18.1989,18.0698,17.9404,17.8418,17.8296,17.922,18.0293,17.9408,18.0158,18.1244,18.036,18.0078,18.0225,18.0816,18.095,18.1164,18.2103,18.2974,18.3779,18.4651,18.5522,18.6542,18.7748,18.7744,18.787,18.9087,19.0024,19.0362,18.9713,19.0725,19.1486,19.1372,19.061,19.0344,19.1291,19.1358,19.1358,19.1358,19.1116,19.0858,19.0571,19.0238,18.9783,18.9252,18.895,18.7453,18.4487,18.4758,18.3777,18.1281,18.0517,18.0108,18.0108,17.8683,17.8149,17.8449,17.7775,17.7285,13.5661,13.4813,13.4358,13.6137,13.7758,13.9539,0.0,14.3991,14.5308,14.5297,14.6591,14.8098,14.9564,15.0957,15.325,15.7339,15.8144,15.935,16.2355,16.2813,16.3294,16.4713,16.4086,16.4046,16.5231,16.5723,16.6494,16.7691,16.8005,16.8109,16.8094,16.8231,16.8214,16.7742,16.7961,16.8565,16.9662,16.9674,17.0456,17.2045,17.218,17.2247,17.2259,17.2628,17.2615,17.2259,17.2429,17.2391,17.2326,17.3826,17.6322,17.9331,18.0606,18.2093,18.2796,17.7315,17.51,17.4894,17.4354,17.497,17.6043,17.6043,17.6994,17.808,17.808,17.8214,17.8616,17.9877,18.0347,18.0481,18.0682,18.0762,18.0762,18.095,18.095,18.1687,18.4382,18.4919,18.5723,18.8433,18.917,18.926,18.8626,18.8795,18.9124,18.9342,18.9425,18.9573,18.9908,18.9908,18.9908,18.9908,18.9397,18.8838,18.826,18.7933,18.7801,18.7672,18.7468,18.6126,18.3444,18.338,18.2023,17.9137,17.8558,17.8155,17.7957,17.7156,17.7021,17.7554,17.6883,17.5294,0.0,0.0,0.0,0.0,0.0,0.0,0.0,13.999,14.2375,14.3455,14.5058,14.6607,14.8083,14.8561,14.9474,15.1485,15.2837,15.5127,15.9295,15.982,15.9965,16.0234,16.347,16.5104,16.3869,16.6298,16.8055,16.8197,16.947,17.0136,16.9978,17.1377,17.0796,16.784,16.9185,16.9391,16.8212,16.8199,16.9034,17.0838,17.1971,17.2503,17.263,17.5253,17.4881,17.2334,17.3772,17.3567,17.2371,17.4079,17.6029,17.7849,17.8184,17.9413,18.077,17.8112,17.6232,17.4758,17.3155,17.2838,17.3051,17.3051,17.324,17.3521,17.3521,17.4313,17.5318,17.5586,17.6458,17.7652,17.8952,17.922,17.9555,18.0682,18.095,18.1151,18.1687,18.1835,18.2036,18.2639,18.4651,18.63,18.6178,18.8107,18.8952,18.6649,18.634,18.7212,18.964,18.9908,18.9908,18.9908,18.9798,18.9674,18.9549,18.7914,18.6615,18.5934,18.4362,18.2689,18.0957,18.1252,18.0463,17.8183,17.7311,17.6291,17.5167,17.3306,17.2267,17.2034,17.1457,17.1402,0.0,0.0,0.0,0.0,0.0,0.0,0.0,0.0,0.0,0.0,0.0,14.2975,14.5175,0.0,14.67,14.9648,15.0796,15.23,15.5261,15.7648,15.85,15.6995,16.0273,16.2275,16.1239,16.4927,16.7308,16.711,16.872,16.9955,17.0598,17.1572,17.1144,16.9141,17.0886,17.0503,16.7755,16.8685,16.9561,17.0457,17.1196,17.2037,17.2984,17.4578,17.4394,17.28,17.3697,17.3573,17.2755,17.3719,17.5549,17.7893,17.7964,17.8546,17.9182,17.7463,17.6187,17.5058,17.2315,17.1808,17.2249,17.1361,17.22,17.3441,17.2478,17.3357,17.4486,17.3528,17.3843,17.4715,17.619,17.6592,17.6994,17.8402,17.8724,17.8926,17.9743,17.989,18.0091,18.0816,18.2157,18.3243,18.3243,18.445,18.4932,18.3444,18.3243,18.3779,18.5254,18.5469,18.6099,18.7896,18.8082,18.8082,18.8082,18.705,18.5513,18.3363,18.2213,18.0636,17.8455,17.8582,17.759,17.5098,17.4282,17.3547,17.2811,17.1504,17.0837,17.0862,16.9144,16.889,0.0,0.0,0.0,0.0,0.0,0.0,0.0,0.0,0.0,0.0,0.0,0.0,0.0,0.0,0.0,14.8663,14.9292,14.9992,15.2087,15.5814,15.7312,15.4514,15.7466,15.9423,15.867,16.3313,16.6055,16.5547,16.774,16.9588,17.0827,17.1201,17.1117,17.0597,17.2338,17.1844,16.882,17.023,17.121,17.1507,0.0,0.0,17.373,17.407,17.3844,17.3209,17.3564,17.3512,17.3209,17.3575,17.5348,17.782,17.8286,17.846,17.8202,17.6507,17.5903,17.5465,17.2152,17.1751,17.2437,17.0587,17.2113,17.4292,17.2442,17.3107,0.0,17.2689,17.2277,17.2515,17.3642,17.3977,17.4246,17.5373,17.5909,17.6458,17.7745,17.8214,17.8737,17.9877,18.0347,18.0561,18.0561,18.0279,18.0356,18.0986,18.0755,18.0772,18.147,18.1212,18.2057,18.4927,18.5238,18.5238,18.5238,18.5544,18.4109,18.0356,18.0469,17.9176,17.58,17.6034,17.4783,17.1844,17.1569,17.121,17.0608,17.0152,17.0114,17.0336,16.7304,16.6421,0.0,0.0,0.0,0.0,0.0,0.0,0.0,0.0,0.0,0.0,0.0,0.0,0.0,0.0,0.0,0.0,14.6182,14.769,15.1783,15.4102,15.4771,15.3002,15.8167,16.0576,15.7381,16.2964,16.6111,16.4538,16.8587,17.1115,17.1065,17.2582,0.0,0.0,0.0,17.325,17.2593,17.2775,17.371,17.5267,17.5267,17.5435,17.567,17.7167,17.6173,17.3282,17.488,17.4669,17.3314,17.491,17.5809,17.6349,17.7869,17.846,17.8202,17.6507,17.5903,17.5641,17.3595,0.0,0.0,17.1036,17.1775,17.3082,17.1264,17.1695,17.2822,17.2602,17.242,17.2247,17.2435,17.2435,17.2515,17.2649,17.3709,17.4648,17.4836,17.5842,17.678,17.6982,17.8134,17.9086,17.9086,17.7933,17.8036,18.1015,18.0114,18.0186,18.316,18.2008,18.1122,18.1504,18.1544,0.0,18.1544,18.3162,18.2115,17.7324,17.866,17.7514,17.2925,17.4246,17.3541,17.0235,17.1649,17.1051,16.8169,16.8108,16.782,16.7366,16.3679,16.2712,0.0,0.0,0.0,0.0,0.0,0.0,0.0,0.0,0.0,0.0,0.0,0.0,0.0,0.0,0.0,0.0,14.4507,14.633,14.8185,14.9851,15.0943,15.1174,15.5226,15.7351,15.5762,16.0737,16.376,16.2969,16.5666,16.8105,16.9856,17.0654,17.1071,17.0951,17.2782,17.2679,17.051,17.1492,17.2806,17.4537,17.4537,17.5536,17.7389,17.8095,17.768,17.6297,17.7065,17.6972,17.6317,17.7084,17.7361,0.0,0.0,0.0,0.0,0.0,17.7361,17.714,17.5416,17.4749,17.4467,17.2647,17.3293,17.4427,17.2604,17.2504,17.2975,17.2975,17.1337,17.0091,17.1952,17.1642,17.1082,17.2046,17.2704,17.3106,17.3106,17.3575,17.4044,17.4044,17.5251,0.0,17.7848,17.6699,17.6039,17.7525,17.7867,17.8508,17.9877,18.0273,18.1528,18.4402,18.3861,18.3355,18.3355,18.3258,0.0,0.0,0.0,17.5412,17.2334,17.2121,0.0,0.0,0.0,16.7904,16.6648,16.57,0.0,0.0,16.1145,16.1134,0.0,0.0,0.0,0.0,0.0,0.0,0.0,0.0,0.0,0.0,0.0,0.0,0.0,0.0,0.0,0.0,14.2335,14.4035,14.322,14.5516,14.7682,14.8868,15.2136,15.4121,15.3554,15.7937,16.0576,16.0024,16.2366,16.4807,16.7082,16.7589,16.8436,16.9846,17.1566,17.1496,16.9325,17.0998,17.2442,17.361,17.361,17.4864,17.7158,17.7158,17.7158,17.7167,17.7595,17.7809,17.7809,17.8246,17.846,17.8389,17.7524,17.7158,17.7158,17.7158,17.7158,17.6999,17.5744,17.5343,17.4999,17.321,17.3826,17.497,17.3169,17.2921,17.3289,17.3289,17.1375,16.9681,17.157,17.1402,17.0798,17.0964,17.1661,17.2188,17.1688,17.1899,17.2409,17.2843,17.348,17.4506,17.6525,17.6168,17.5802,17.6367,17.7042,17.7629,17.8071,17.88,18.0682,18.4289,18.3622,18.2981,18.2981,18.245,18.0099,17.5367,17.5117,17.4117,17.1826,17.017,16.9071,16.8507,16.7115,16.5777,0.0,0.0,0.0,0.0,0.0,0.0,0.0,0.0,0.0,0.0,0.0,0.0,0.0,0.0,0.0,0.0,0.0,0.0,0.0,0.0,0.0,0.0,0.0,0.0,13.7163,14.1906,14.5738,14.5891,14.999,15.2228,15.0549,15.4768,15.6888,15.5288,15.9517,16.223,16.2302,16.3737,16.5298,16.6834,16.8429,16.9893,17.1314,17.2908,17.371,17.3781,17.3781,17.3798,17.3922,17.3922,17.3922,17.3993,17.5509,17.6159,17.6302,17.7809,17.846,17.8175,17.5072,17.3922,17.3922,17.3922,17.3922,17.3913,17.3861,17.3852,17.3528,17.1725,17.2358,17.3493,17.1687,17.2272,17.3596,17.3596,17.3309,17.2625,17.0999,17.1796,17.2188,16.8749,17.0309,17.2117,17.0372,17.1162,17.2775,17.4513,17.3662,17.3269,17.5069,17.6483,17.8013,17.995,17.8675,0.0,18.006,17.8713,17.7635,17.777,17.777,17.7689,17.7689,17.9368,17.8984,17.5572,17.5423,17.4014,17.0651,16.8789,16.8602,17.0332,16.8968,16.5911,16.1259,0.0,0.0,0.0,0.0,0.0,0.0,0.0,0.0,0.0,0.0,0.0,0.0,0.0,0.0,0.0,0.0,0.0,0.0,0.0,0.0,0.0,0.0,0.0,0.0,13.859,14.2533,14.2533,14.6721,14.894,14.7312,15.1556,15.4142,15.3523,15.6003,15.7902,15.8957,15.9535,16.1034,16.3602,16.4228,16.5235,16.6813,16.7312,16.8651,17.072,17.072,17.179,17.3779,17.3779,17.3779,17.3842,17.435,17.4572,17.4644,17.5143,17.4153,17.2155,17.1085,17.072,17.072,17.072,17.072,17.072,17.072,17.072,17.0564,16.9976,17.015,17.0769,17.1185,17.0877,17.0824,17.3083,17.2004,17.0475,17.2144,17.2087,17.1307,16.9888,17.0386,17.1014,17.0412,16.976,17.0157,17.322,17.2503,17.2067,17.3981,17.5469,17.6291,17.595,17.7186,17.8318,17.8881,17.9464,18.0207,18.1216,18.0419,17.9773,17.9773,17.9375,17.8105,17.588,17.574,17.4165,17.0593,16.8956,16.7903,16.7249,16.4808,16.2316,15.9724,0.0,0.0,0.0,0.0,0.0,0.0,0.0,0.0,0.0,0.0,0.0,0.0,0.0,0.0,0.0,0.0,0.0,0.0,0.0,0.0,0.0,0.0,0.0,0.0,0.0,0.0,13.9201,14.2918,0.0,14.3254,14.6407,14.8555,14.8555,15.056,15.2408,15.397,15.5183,15.6967,15.9535,16.0161,16.0954,16.1961,16.254,16.4102,16.6654,16.6654,16.7938,17.0435,17.0435,17.0435,17.0506,17.1005,17.1299,17.1157,16.9507,16.7589,16.5814,16.5814,16.5814,16.5814,16.5814,16.5814,16.5814,16.5814,16.5814,16.5814,16.5814,16.5378,16.5235,16.6821,16.6496,16.6252,16.9521,16.9215,16.8478,17.1189,17.1461,17.0854,16.9959,17.0275,17.0508,16.9916,16.8865,16.9066,17.273,17.1642,17.0714,17.2649,17.3708,17.4186,17.3734,17.5459,17.716,17.8157,17.9335,18.0449,18.1457,18.0672,18.0093,18.0093,17.9102,17.7969,17.6897,17.6231,17.4299,17.0795,16.9713,16.7623,16.4132,16.2214,16.0029,0.0,0.0,0.0,0.0,0.0,0.0,0.0,0.0,0.0,0.0,0.0,0.0,0.0,0.0,0.0,0.0,0.0,0.0,0.0,0.0,0.0,0.0,0.0,0.0,0.0,0.0,0.0,13.5576,13.8637,0.0,0.0,0.0,0.0,14.055,14.3475,14.5893,14.7413,15.0481,15.2986,15.4714,15.6197,15.7109,15.7323,15.8838,16.0328,16.1874,16.1874,16.273,16.4252,16.4252,16.4252,16.4316,16.5767,16.6418,16.6053,16.1343,15.9416,15.9416,15.9337,15.9266,15.9337,15.9408,15.9408,15.9337,15.948,15.948,15.9416,15.9416,15.8402,15.7466,15.8909,15.9337,0.0,0.0,16.5109,16.6647,16.8049,16.9715,17.0636,16.8872,16.9676,17.0404,16.8917,16.841,16.925,0.0,17.0679,16.8996,17.057,0.0,17.1664,17.3066,17.3494,17.4786,17.7809,17.8246,17.8389,17.846,17.846,17.846,17.846,17.846,17.8389,17.8318,17.6803,17.4336,17.0815,17.0565,16.7483,16.0954,16.0889,0.0,0.0,0.0,0.0,0.0,0.0,0.0,0.0,0.0,0.0,0.0,0.0,0.0,0.0,0.0,0.0,0.0,0.0,0.0,0.0,0.0,0.0,0.0,0.0,0.0,0.0,12.3938,12.7584,12.9134,13.3136,13.4628,0.0,0.0,0.0,0.0,0.0,0.0,14.0971,14.2904,14.5772,14.9633,15.0196,15.2059,15.5706,15.6134,15.7125,15.8671,15.8671,15.9464,16.0978,16.0978,16.0978,16.0978,16.1414,16.1557,16.1192,15.6483,15.4556,15.4485,15.3178,15.2671,15.2813,15.412,15.3756,15.3027,15.5492,15.5563,15.4556,15.4556,15.4334,15.3827,15.2964,0.0,0.0,0.0,0.0,16.0446,16.3109,16.5017,16.6327,16.6787,16.7251,16.7808,16.8536,16.6712,16.4959,0.0,16.5348,16.4938,16.3054,0.0,0.0,0.0,0.0,17.2726,17.4715,17.6008,17.7158,17.8318,17.846,17.846,17.846,17.846,17.7961,17.6802,17.6297,17.3474,16.7783,16.6473,16.282,15.6197,0.0,0.0,0.0,0.0,0.0,0.0,0.0,0.0,0.0,0.0,0.0,0.0,0.0,0.0,0.0,0.0,0.0,0.0,0.0,0.0,0.0,0.0,0.0,0.0,0.0,0.0,0.0,11.8022,12.2297,12.4562,12.7124,12.8064,0.0,0.0,0.0,0.0,0.0,0.0,0.0,0.0,0.0,14.3689,14.3831,14.548,14.8848,15.0275,15.1766,15.3257,15.4755,15.619,15.7775,15.7775,15.7775,15.7775,15.7775,15.6562,15.4413,15.1766,14.9847,14.8562,0.0,0.0,0.0,0.0,14.6978,14.6393,14.827,14.8348,0.0,14.7627,0.0,0.0,0.0,0.0,0.0,0.0,0.0,0.0,0.0,0.0,16.1743,16.315,16.3997,16.4784,16.5642,16.1565,15.8027,0.0,15.9186,15.8972,15.7918,0.0,0.0,0.0,0.0,16.9453,17.2369,17.4724,17.6436,17.731,17.8023,17.846,17.846,17.7809,17.7016,17.6151,17.4804,17.1497,16.5692,16.4111,15.9864,0.0,0.0,0.0,0.0,0.0,0.0,0.0,0.0,0.0,0.0,0.0,0.0,0.0,0.0,0.0,0.0,0.0,0.0,0.0,0.0,0.0,0.0,0.0,0.0,0.0,0.0,0.0,0.0,0.0,11.7362,12.0496,0.0,0.0,0.0,0.0,0.0,0.0,0.0,0.0,0.0,0.0,0.0,0.0,0.0,13.8331,14.0271,14.3189,14.5394,14.6771,14.9768,15.1916,15.3287,15.3287,15.3501,15.3858,15.343,0.0,14.7271,14.6835,0.0,0.0,0.0,0.0,0.0,0.0,0.0,0.0,0.0,0.0,0.0,0.0,0.0,0.0,0.0,0.0,0.0,0.0,0.0,0.0,0.0,0.0,15.6816,15.8187,15.9749,16.0804,0.0,15.5017,15.103,15.3636,15.3065,0.0,0.0,0.0,0.0,0.0,0.0,0.0,16.9889,17.3234,17.5437,17.6079,17.731,17.8166,17.8166,17.6873,17.5865,17.5223,17.2449,16.8457,16.3219,16.1823,0.0,0.0,0.0,0.0,0.0,0.0,0.0,0.0,0.0,0.0,0.0,0.0,0.0,0.0,0.0,0.0,0.0,0.0,0.0,0.0,0.0,0.0,0.0,0.0,0.0,0.0,0.0,0.0,0.0,0.0,0.0,0.0,0.0,0.0,0.0,0.0,0.0,0.0,0.0,0.0,0.0,0.0,0.0,0.0,0.0,0.0,0.0,0.0,0.0,0.0,14.2119,14.3125,14.3418,14.3418,14.4837,14.7113,14.4552,14.3639,14.386,14.1263,0.0,0.0,0.0,0.0,0.0,0.0,0.0,0.0,0.0,0.0,0.0,0.0,0.0,0.0,0.0,0.0,0.0,0.0,0.0,0.0,0.0,0.0,0.0,0.0,15.3178,15.3692,0.0,0.0,0.0,0.0,0.0,0.0,0.0,0.0,0.0,0.0,0.0,0.0,16.5037,16.8382,17.1799,17.5731,17.6373,17.6516,17.6516,17.6293,17.4438,17.0586,16.8605,16.4272,0.0,0.0,0.0,0.0,0.0,0.0,0.0,0.0,0.0,0.0,0.0,0.0,0.0,0.0,0.0,0.0,0.0,0.0,0.0,0.0,0.0,0.0,0.0,0.0,0.0,0.0,0.0,0.0,0.0,0.0,0.0,0.0,0.0,0.0,0.0,0.0,0.0,0.0,0.0,0.0,0.0,0.0,0.0,0.0,0.0,0.0,0.0,0.0,0.0,0.0,0.0,0.0,0.0,0.0,0.0,0.0,0.0,0.0,0.0,13.6925,0.0,0.0,0.0,0.0,0.0,0.0,0.0,0.0,0.0,0.0,0.0,0.0,0.0,0.0,0.0,0.0,0.0,0.0,0.0,0.0,0.0,0.0,0.0,0.0,0.0,0.0,0.0,0.0,0.0,0.0,0.0,0.0,0.0,0.0,0.0,0.0,0.0,0.0,0.0,0.0,16.3745,16.7161,17.0577,17.4501,17.4929,17.5214,17.6008,17.3868,17.1165,16.8105,16.411,0.0,0.0,0.0,0.0,0.0,0.0,0.0,0.0,0.0,0.0,0.0,0.0,0.0,0.0,0.0,0.0,0.0,0.0,0.0,0.0,0.0,0.0,0.0,0.0,0.0,0.0,0.0,0.0,0.0,0.0,0.0,0.0,0.0,0.0,0.0,0.0,0.0,0.0,0.0,0.0,0.0,0.0,0.0,0.0,0.0,0.0,0.0,0.0,0.0,0.0,0.0,0.0,0.0,0.0,0.0,0.0,0.0,0.0,0.0,13.372,0.0,0.0,0.0,0.0,0.0,0.0,0.0,0.0,0.0,0.0,0.0,0.0,0.0,0.0,0.0,0.0,0.0,0.0,0.0,0.0,0.0,0.0,0.0,0.0,0.0,0.0,0.0,0.0,0.0,0.0,0.0,0.0,0.0,0.0,0.0,0.0,0.0,0.0,0.0,0.0,0.0,16.1755,16.5734,16.9293,17.2424,17.3066,17.3788,17.5009,17.1442,16.8026,16.5482,16.0043,0.0,0.0,0.0,0.0,0.0,0.0,0.0,0.0,0.0,0.0,0.0,0.0,0.0,0.0,0.0,0.0,0.0,0.0,0.0,0.0,0.0,0.0,0.0,0.0,0.0,0.0,0.0,0.0,0.0,0.0,0.0,0.0,0.0,0.0,0.0,0.0,0.0,0.0,0.0,0.0,0.0,0.0,0.0,0.0,0.0,0.0,0.0,0.0,0.0,0.0,0.0,0.0,0.0,0.0,0.0,0.0,0.0,0.0,0.0,0.0,0.0,0.0,0.0,0.0,0.0,0.0,0.0,0.0,0.0,0.0,0.0,0.0,0.0,0.0,0.0,0.0,0.0,0.0,0.0,0.0,0.0,0.0,0.0,0.0,0.0,0.0,0.0,0.0,0.0,0.0,0.0,0.0,0.0,0.0,0.0,0.0,0.0,0.0,0.0,0.0,0.0,15.5499,16.1192,16.6099,16.9222,17.0808,17.1736,17.1887,17.0158,16.659,16.0764,0.0,0.0,0.0,0.0,0.0,0.0,0.0,0.0,0.0,0.0,0.0,0.0,0.0,0.0,0.0,0.0,0.0,0.0,0.0,0.0,0.0,0.0,0.0,0.0,0.0,0.0,0.0,0.0,0.0,0.0,0.0,0.0,0.0,0.0,0.0,0.0,0.0,0.0,0.0,0.0,0.0,0.0,0.0,0.0,0.0,0.0,0.0,0.0,0.0,0.0,0.0,0.0,0.0,0.0,0.0,0.0,0.0,0.0,0.0,0.0,0.0,0.0,0.0,0.0,0.0,0.0,0.0,0.0,0.0,0.0,0.0,0.0,0.0,0.0,0.0,0.0,0.0,0.0,0.0,0.0,0.0,0.0,0.0,0.0,0.0,0.0,0.0,0.0,0.0,0.0,0.0,0.0,0.0,0.0,0.0,0.0,0.0,0.0,0.0,0.0,0.0,0.0,15.5976,16.1184,16.5671,16.8794,16.9658,17.0023,17.0023,16.774,16.361,15.7347,0.0,0.0,0.0,0.0,0.0,0.0,0.0,0.0,0.0,0.0,0.0,0.0,0.0,0.0,0.0,0.0,0.0,0.0,0.0,0.0,0.0,0.0,0.0,0.0,0.0,0.0,0.0,0.0,0.0,0.0,0.0,0.0,0.0,0.0,0.0,0.0,0.0,0.0,0.0,0.0,0.0,0.0,0.0,0.0,0.0,0.0,0.0,0.0,0.0,0.0,0.0,0.0,0.0,0.0,0.0,0.0,0.0,0.0,0.0,0.0,0.0,0.0,0.0,0.0,0.0,0.0,0.0,0.0,0.0,0.0,0.0,0.0,0.0,0.0,0.0,0.0,0.0,0.0,0.0,0.0,0.0,0.0,0.0,0.0,0.0,0.0,0.0,0.0,0.0,0.0,0.0,0.0,0.0,0.0,0.0,0.0,0.0,0.0,0.0,0.0,0.0,0.0,15.4819,15.9892,16.4244,16.7375,16.7732,16.7946,16.8382,16.51,16.0621,15.4786,0.0,0.0,0.0,0.0,0.0,0.0,0.0,0.0,0.0,0.0,0.0,0.0,0.0,0.0,0.0,0.0,0.0,0.0,0.0,0.0,0.0,0.0,0.0,0.0,0.0,0.0,0.0,0.0,0.0,0.0,0.0,0.0,0.0,0.0,0.0,0.0,0.0,0.0,0.0,0.0,0.0,0.0,0.0,0.0,0.0,0.0,0.0,0.0,0.0,0.0,0.0,0.0,0.0,0.0,0.0,0.0,0.0,0.0,0.0,0.0,0.0,0.0,0.0,0.0,0.0,0.0,0.0,0.0,0.0,0.0,0.0,0.0,0.0,0.0,0.0,0.0,0.0,0.0,0.0,0.0,0.0,0.0,0.0,0.0,0.0,0.0,0.0,0.0,0.0,0.0,0.0,0.0,0.0,0.0,0.0,0.0,0.0,0.0,0.0,0.0,0.0,0.0,15.0159,15.5889,16.105,16.4173,16.453,16.5109,16.6695,16.2556,15.7839,0.0,0.0,0.0,0.0,0.0,0.0,0.0,0.0,0.0,0.0,0.0,0.0,0.0,0.0,0.0,0.0,0.0,0.0,0.0,0.0,0.0,0.0,0.0,0.0,0.0,0.0,0.0,0.0,0.0,0.0,0.0,0.0,0.0,0.0,0.0,0.0,0.0,0.0,0.0,0.0,0.0,0.0,0.0,0.0,0.0,0.0,0.0,0.0,0.0,0.0,0.0,0.0,0.0,0.0,0.0,0.0,0.0,0.0,0.0,0.0,0.0,0.0,0.0,0.0,0.0,0.0,0.0,0.0,0.0,0.0,0.0,0.0,0.0,0.0,0.0,0.0,0.0,0.0,0.0,0.0,0.0,0.0,0.0,0.0,0.0,0.0,0.0,0.0,0.0,0.0,0.0,0.0,0.0,0.0,0.0,0.0,0.0,0.0,0.0,0.0,0.0,0.0,0.0,14.9945,15.4882,15.9393,0.0,16.3816,16.4244,16.3673,16.1256,15.726,15.1458,0.0,0.0,0.0,0.0,0.0,0.0,0.0,0.0,0.0,0.0,0.0,0.0,0.0,0.0,0.0,0.0,0.0,0.0,0.0,0.0,0.0,0.0,0.0,0.0,0.0,0.0,0.0,0.0,0.0,0.0,0.0,0.0,0.0,0.0,0.0,0.0,0.0,0.0,0.0,0.0,0.0,0.0,0.0,0.0,0.0,0.0,0.0,0.0,0.0,0.0,0.0,0.0,0.0,0.0,0.0,0.0,0.0,0.0,0.0,0.0,0.0,0.0,0.0,0.0,0.0,0.0,0.0,0.0,0.0,0.0,0.0,0.0,0.0,0.0,0.0,0.0,0.0,0.0,0.0,0.0,0.0,0.0,0.0,0.0,0.0,0.0,0.0,0.0,0.0,0.0,0.0,0.0,0.0,0.0,0.0,0.0,0.0,0.0,0.0,0.0,0.0,0.0,0.0,15.3613,15.7759,0.0,16.2112,16.2326,16.1311,15.9266,15.5547,14.9746,0.0,0.0,0.0,0.0,0.0,0.0,0.0,0.0,0.0,0.0,0.0,0.0,0.0,0.0,0.0,0.0,0.0,0.0,0.0,0.0,0.0,0.0,0.0,0.0,0.0,0.0,0.0,0.0,0.0,0.0,0.0,0.0,0.0,0.0,0.0,0.0,0.0,0.0,0.0,0.0,0.0,0.0,0.0,0.0,0.0,0.0,0.0,0.0,0.0,0.0,0.0,0.0,0.0,0.0,0.0,0.0,0.0,0.0,0.0,0.0,0.0,0.0,0.0,0.0,0.0,0.0,0.0,0.0,0.0,0.0,0.0,0.0,0.0,0.0,0.0,0.0,0.0,0.0,0.0,0.0,0.0,0.0,0.0,0.0,0.0,0.0,0.0,0.0,0.0,0.0,0.0,0.0,0.0,0.0,0.0,0.0,0.0,0.0,0.0,0.0,0.0,0.0,0.0,15.1995,15.5999,15.9266,15.9559,15.948,15.9622,15.6776,15.2923,14.8198,14.6328,0.0,0.0,0.0,0.0,0.0,0.0,0.0,0.0,0.0,0.0,0.0,0.0,0.0,0.0,0.0,0.0,0.0,0.0,0.0,0.0,0.0,0.0,0.0,0.0,0.0,0.0,0.0,0.0,0.0,0.0,0.0,0.0,0.0,0.0,0.0,0.0,0.0,0.0,0.0,0.0,0.0,0.0,0.0,0.0,0.0,0.0,0.0,0.0,0.0,0.0,0.0,0.0,0.0,0.0,0.0,0.0,0.0,0.0,0.0,0.0,0.0,0.0,0.0,0.0,0.0,0.0,0.0,0.0,0.0,0.0,0.0,0.0,0.0,0.0,0.0,0.0,0.0,0.0,0.0,0.0,0.0,0.0,0.0,0.0,0.0,0.0,0.0,0.0,0.0,0.0,0.0,0.0,0.0,0.0,0.0,0.0,0.0,0.0,0.0,0.0,0.0,0.0,15.0744,15.3099,15.7537,15.6911,15.6705,15.7902,15.5127,15.1773,14.8127,14.5344,0.0,0.0,0.0,0.0,0.0,0.0,0.0,0.0,0.0,0.0,0.0,0.0,0.0,0.0,0.0,0.0,0.0,0.0,0.0,0.0,0.0,0.0,0.0,0.0,0.0,0.0,0.0,0.0,0.0,0.0,0.0,0.0,0.0,0.0,0.0,0.0,0.0,0.0,0.0,0.0,0.0,0.0,0.0,0.0,0.0,0.0,0.0,0.0,0.0,0.0,0.0,0.0,0.0,0.0,0.0,0.0,0.0,0.0,0.0,0.0,0.0,0.0,0.0,0.0,0.0,0.0,0.0,0.0,0.0,0.0,0.0,0.0,0.0,0.0,0.0,0.0,0.0,0.0,0.0,0.0,0.0,0.0,0.0,0.0,0.0,0.0,0.0,0.0,0.0,0.0,0.0,0.0,0.0,0.0,0.0,0.0,0.0,0.0,0.0,0.0,0.0,0.0,14.6179,14.9182,15.4755,15.5206,15.5142,15.5333,15.3764,15.1124,14.7121,14.3261,0.0,0.0,0.0,0.0,0.0,0.0,0.0,0.0,0.0,0.0,0.0,0.0,0.0,0.0,0.0,0.0,0.0,0.0,0.0,0.0,0.0,0.0,0.0,0.0,0.0,0.0,0.0,0.0,0.0,0.0,0.0,0.0,0.0,0.0,0.0,0.0,0.0,0.0,0.0,0.0,0.0,0.0,0.0,0.0,0.0,0.0,0.0,0.0,0.0,0.0,0.0,0.0,0.0,0.0,0.0,0.0,0.0,0.0,0.0,0.0,0.0,0.0,0.0,0.0,0.0,0.0,0.0,0.0,0.0,0.0,0.0,0.0,0.0,0.0,0.0,0.0,0.0,0.0,0.0,0.0,0.0,0.0,0.0,0.0,0.0,0.0,0.0,0.0,0.0,0.0,0.0,0.0,0.0,0.0,0.0,0.0,0.0,0.0,0.0,0.0,0.0,0.0,0.0,14.5708,15.1124,15.3343,15.3922,15.2915,15.2337,15.0125,14.5536,0.0,0.0,0.0,0.0,0.0,0.0,0.0,0.0,0.0,0.0,0.0,0.0,0.0,0.0,0.0,0.0,0.0,0.0,0.0,0.0,0.0,0.0,0.0,0.0,0.0,0.0,0.0,0.0,0.0,0.0,0.0,0.0,0.0,0.0,0.0,0.0,0.0,0.0,0.0,0.0,0.0,0.0,0.0,0.0,0.0,0.0,0.0,0.0,0.0,0.0,0.0,0.0,0.0,0.0,0.0,0.0,0.0,0.0,0.0,0.0,0.0,0.0,0.0,0.0,0.0,0.0,0.0,0.0,0.0,0.0,0.0,0.0,0.0,0.0,0.0,0.0,0.0,0.0,0.0,0.0,0.0,0.0,0.0,0.0,0.0,0.0,0.0,0.0,0.0,0.0,0.0,0.0,0.0,0.0,0.0,0.0,0.0,0.0,0.0,0.0,0.0,0.0,0.0,0.0,0.0,14.6607,14.9318,15.1458,15.2701,15.0267,14.7207,14.3853,0.0,0.0,0.0,0.0,0.0,0.0,0.0,0.0,0.0,0.0,0.0,0.0,0.0,0.0]}],[{"header":{"parameterUnit":"kt","parameterCategory":2,"dx":1,"dy":1,"la1":29.285339999999998,"la2":30.599998999999997,"lo1":-89.70041500000002,"lo2":-87.6738589999976,"nx":112,"ny":82,"refTime":"2022-09-26T06:00:00:Z","depth":0,"parameterNumber":2,"parameterNumberName":"V-component_of_WINDS"},"data":[8.0992,8.26,0.0,8.8464,9.0011,0.0,9.3388,0.0,0.0,0.0,0.0,0.0,0.0,0.0,0.0,0.0,0.0,0.0,0.0,9.7304,9.7874,9.8087,9.9513,10.1105,10.261,10.3248,10.4322,10.6112,10.6298,10.663,10.7422,10.7743,10.8253,10.9118,10.9596,10.9982,11.0249,11.112,11.1952,11.2692,11.1952,11.2818,11.5036,11.3883,11.3975,11.5063,11.5063,11.5063,11.5063,11.5063,11.5063,11.5063,11.5063,11.5063,11.5063,11.5063,11.6088,11.761,11.9032,11.9715,11.9943,11.9943,11.9943,11.9943,11.9943,11.9943,11.9943,11.9943,11.9943,11.9943,11.9943,11.9943,11.9943,11.9943,11.9943,11.9943,11.9943,11.9943,11.9943,11.9943,11.9943,11.9943,11.9943,11.9943,11.9943,11.9943,11.9943,12.0531,12.2267,12.2457,12.3111,12.4793,12.4991,12.4991,12.4991,12.4991,12.4991,12.4991,12.4991,12.4991,12.4991,12.5265,12.6062,12.7489,12.78,12.8628,13.0056,13.0056,13.0056,13.0056,13.0056,13.0056,0.0,0.0,8.5416,8.724,0.0,0.0,0.0,0.0,0.0,0.0,0.0,0.0,0.0,0.0,0.0,0.0,0.0,0.0,0.0,9.6733,9.7874,9.9192,10.106,10.268,10.3704,10.4501,10.5618,10.7209,10.6936,10.7258,10.8466,10.8558,10.8732,10.9146,11.0378,11.1001,11.1001,11.2162,11.2965,11.332,11.2965,11.3555,11.5063,11.4264,11.4356,11.5063,11.5063,11.5063,11.5063,11.5063,11.5063,11.5063,11.5063,11.5063,11.5063,11.5063,11.6088,11.759,11.869,11.9459,11.9943,11.9943,11.9943,11.9943,11.9943,11.9943,11.9943,11.9943,11.9943,11.9943,11.9943,11.9943,11.9943,11.9943,11.9943,11.9943,11.9943,11.9943,11.9943,11.9943,11.9943,11.9943,11.9943,11.9943,11.9943,11.9943,11.9943,12.0446,12.187,12.2069,12.2685,12.4422,12.4595,12.4679,12.4991,12.4991,12.4991,12.4991,12.4991,12.4991,12.4991,12.4991,12.5637,12.7033,12.7375,12.8202,12.96,12.9873,13.0056,13.0056,13.0056,13.0056,0.0,0.0,0.0,9.0723,0.0,0.0,0.0,0.0,9.2933,0.0,0.0,0.0,0.0,0.0,0.0,0.0,0.0,0.0,0.0,9.6534,9.8387,10.072,10.334,10.4698,10.4005,10.5252,10.6484,10.7325,10.7018,10.767,10.9781,10.9836,10.9303,10.8079,11.1449,11.2189,11.002,11.3347,11.4475,11.3402,11.453,11.5063,11.5063,11.5063,11.5063,11.5063,11.5063,11.5063,11.5063,11.5063,11.5063,11.5063,11.5063,11.5063,11.5063,11.509,11.6082,11.7382,11.7448,11.8549,11.9943,11.9943,11.9943,11.9943,11.9943,11.9943,11.9943,11.9943,11.9943,11.9943,11.9943,11.9943,11.9943,11.9943,11.9943,11.9943,11.9943,11.9943,11.9943,11.9943,11.9943,11.9943,11.9943,11.9943,11.9943,11.9943,11.9943,12.0285,12.1168,12.1281,12.1965,12.3636,12.3835,12.411,12.4936,12.4991,12.4991,12.4991,12.4991,12.4991,12.4991,12.4991,12.5362,12.6146,12.7033,12.7914,12.8673,12.96,13.0056,13.0056,13.0056,13.0056,8.9813,0.0,0.0,0.0,0.0,0.0,0.0,0.0,0.0,0.0,0.0,0.0,0.0,0.0,0.0,0.0,0.0,9.7197,9.7542,9.919,10.1118,10.3207,10.384,10.4891,10.6851,10.6255,10.6848,10.9617,10.8439,10.8582,11.0964,11.0313,11.0433,11.1806,11.198,11.2545,11.3647,11.3729,11.4056,11.459,11.4916,11.5063,11.5063,11.5063,11.5063,11.5063,11.5063,11.5063,11.5063,11.5063,11.5063,11.5063,11.5063,11.5063,11.515,11.5719,11.6565,11.7496,11.8187,11.906,11.9943,11.9943,11.9943,11.9943,11.9943,11.9943,11.9943,11.9943,11.9943,11.9943,11.9943,11.9943,11.9943,11.9943,11.9943,11.9943,11.9943,11.9943,11.9943,11.9943,11.9943,11.9943,11.9943,11.9943,11.9943,11.9943,11.9943,12.0285,12.1168,12.1281,12.1965,12.3636,12.3835,12.411,12.4936,12.4991,12.4991,12.4991,12.4991,12.4991,12.4991,12.4991,12.5362,12.6146,12.7033,12.7914,12.8673,12.96,13.0056,13.0056,13.0056,13.0056,0.0,0.0,0.0,0.0,0.0,0.0,9.1003,0.0,9.2933,0.0,0.0,0.0,0.0,0.0,0.0,0.0,9.7695,9.8585,9.9197,10.0395,10.2086,10.4385,10.5235,10.6475,10.8548,10.8158,10.8567,11.0495,10.9877,11.0259,11.2189,11.1651,11.1715,11.2545,11.2873,11.3467,11.4356,11.4176,11.4383,11.5063,11.5063,11.5063,11.5063,11.5063,11.5063,11.5063,11.5063,11.5063,11.5063,11.5063,11.5063,11.5063,11.5063,11.5063,11.5177,11.5974,11.6737,11.7524,11.8471,11.926,11.9943,11.9943,11.9943,11.9943,11.9943,11.9943,11.9943,11.9943,11.9943,11.9943,11.9943,11.9943,11.9943,11.9943,11.9943,11.9943,11.9943,11.9943,11.9943,11.9943,11.9943,11.9943,11.9943,11.9943,11.9943,11.9943,11.9943,12.0104,12.0655,12.0712,12.1367,12.3055,12.3266,12.3709,12.4907,12.4991,12.4991,12.4991,12.4991,12.4991,12.4991,12.4991,12.5219,12.5637,12.6518,12.7375,12.8202,12.9045,12.9683,13.0056,13.0056,13.0056,0.0,0.0,0.0,0.0,9.0402,0.0,0.0,0.0,9.3064,9.3741,0.0,9.4276,9.5048,0.0,0.0,9.6498,9.8291,9.9824,10.0181,10.0888,10.2286,10.4843,10.7012,10.8462,10.9019,11.0136,11.0825,11.0775,11.1308,11.2134,11.3467,11.3402,11.29,11.198,11.4002,11.4563,11.3528,11.4563,11.5063,11.5063,11.5063,11.5063,11.5063,11.5063,11.5063,11.5063,11.5063,11.5063,11.5063,11.5063,11.5063,11.5063,11.5063,11.5063,11.5177,11.5974,11.6737,11.7524,11.8471,11.926,11.9943,11.9943,11.9943,11.9943,11.9943,11.9943,11.9943,11.9943,11.9943,11.9943,11.9943,11.9943,11.9943,11.9943,11.9943,11.9943,11.9943,11.9943,11.9943,11.9943,11.9943,11.9943,11.9943,11.9943,11.9943,11.9943,11.9943,11.9943,11.9943,11.9943,12.056,12.2154,12.241,12.3111,12.4734,12.4924,12.4991,12.4991,12.4991,12.4991,12.4991,12.4991,12.4991,12.4991,12.575,12.6602,12.7519,12.8286,12.9114,12.9873,12.9987,13.0056,0.0,0.0,0.0,0.0,0.0,9.1555,0.0,0.0,0.0,9.3848,9.4395,9.5072,9.5856,9.6627,9.7375,9.8006,9.9004,9.9722,9.9809,10.2362,10.4751,10.6199,10.7483,10.7859,10.6857,10.9401,11.1651,11.297,11.2136,11.2518,11.4617,11.3821,11.3675,11.4383,11.4856,11.4944,11.4737,11.4944,11.5063,11.5063,11.5063,11.5063,11.5063,11.5063,11.5063,11.5063,11.5063,11.5063,11.5063,11.5063,11.5063,11.5063,11.5063,11.5063,11.5177,11.5974,11.6737,11.7524,11.8471,11.926,11.9943,11.9943,11.9943,11.9943,11.9943,11.9943,11.9943,11.9943,11.9943,11.9943,11.9943,11.9943,11.9943,11.9943,11.9943,11.9943,11.9943,11.9943,11.9943,11.9943,11.9943,11.9943,11.9943,11.9943,11.9943,11.9943,11.9943,11.9943,11.9943,11.9943,12.0341,12.1395,12.2097,12.2884,12.3978,12.462,12.4991,12.4991,12.4991,12.4991,12.4991,12.4991,12.4991,12.4991,12.575,12.6602,12.7519,12.8286,12.8787,12.8969,12.9714,13.0056,0.0,0.0,0.0,8.9213,0.0,0.0,0.0,9.2755,9.3991,9.4395,9.4763,9.5404,9.658,9.7125,9.7909,9.9477,10.0047,10.0671,10.1622,10.3085,10.4936,10.7195,10.7483,10.7817,10.857,11.0076,11.1767,11.3589,11.3496,11.3849,11.5036,11.4503,11.4475,11.5063,11.5063,11.5063,11.5063,11.5063,11.5063,11.5063,11.5063,11.5063,11.5063,11.5063,11.5063,11.5063,11.5063,11.5063,11.5063,11.5063,11.5063,11.5063,11.5063,11.5063,11.5177,11.5974,11.6737,11.7524,11.8471,11.926,11.9943,11.9943,11.9943,11.9943,11.9943,11.9943,11.9943,11.9943,11.9943,11.9943,11.9943,11.9943,11.9943,11.9943,11.9943,11.9943,11.9943,11.9943,11.9943,11.9943,11.9943,11.9943,11.9943,11.9943,11.9943,11.9943,11.9943,11.9943,11.9943,11.9943,12.0285,12.1196,12.1642,12.241,12.3721,12.4177,12.4565,12.4991,12.4991,12.4991,12.4991,12.4991,12.4991,12.4991,12.5379,12.5978,12.6859,12.7686,12.8286,12.8673,12.9615,13.0056,0.0,0.0,0.0,0.0,0.0,0.0,9.1555,9.2862,9.4288,9.4905,9.5273,9.5878,9.7161,9.766,9.8479,10.0368,10.0912,10.1713,10.3431,10.3791,10.4715,10.7038,10.7326,10.818,11.022,11.0844,11.1804,11.3515,11.4521,11.5063,11.5063,11.5063,11.5063,11.5063,11.5063,11.5063,11.5063,11.5063,11.5063,11.5063,11.5063,11.5063,11.5063,11.5063,11.5063,11.5063,11.5063,11.5063,11.5063,11.5063,11.5063,11.5063,11.5063,11.5063,11.515,11.5768,11.6537,11.7296,11.8215,11.9032,11.9744,11.9848,11.9943,11.9943,11.9943,11.9943,11.9943,11.9943,11.9943,11.9943,11.9943,11.9943,11.9943,11.9943,11.9943,11.9943,11.9943,11.9943,11.9943,11.9943,11.9943,11.9943,11.9943,11.9943,11.9943,11.9943,11.9943,11.9943,11.9943,11.9943,12.0199,12.094,12.1196,12.1936,12.3464,12.3721,12.4177,12.4924,12.4991,12.4991,12.4991,12.4991,12.4991,12.4991,12.4991,12.5379,12.6146,12.6745,12.7519,12.8445,12.9372,12.9873,0.0,0.0,0.0,0.0,8.9903,0.0,9.1555,9.3301,9.4941,9.5048,9.6163,9.7172,9.735,9.8515,9.9538,9.9788,10.1035,10.2237,10.318,10.5021,10.5673,10.3976,10.7274,10.9128,10.7869,11.0515,11.2641,11.3331,11.4416,11.5063,11.5063,11.5063,11.5063,11.5063,11.5063,11.5063,11.5063,11.5063,11.5063,11.5063,11.5063,11.5063,11.5063,11.5063,11.5063,11.5063,11.5063,11.5063,11.5063,11.5063,11.5063,11.5063,11.5063,11.5063,11.509,11.5177,11.5719,11.6479,11.7269,11.8159,11.904,11.9715,11.9943,11.9943,11.9943,11.9943,11.9943,11.9943,11.9943,11.9943,11.9943,11.9943,11.9943,11.9943,11.9943,11.9943,11.9943,11.9943,11.9943,11.9943,11.9943,11.9943,11.9943,11.9943,11.9943,11.9943,11.9943,11.9943,11.9943,11.9943,11.9971,12.0085,12.0797,12.1642,12.2553,12.335,12.4177,12.4924,12.4991,12.4991,12.4991,12.4991,12.4991,12.4991,12.4991,12.5379,12.6146,12.5561,12.6092,12.7663,12.8445,12.9242,0.0,0.0,8.875,8.875,0.0,0.0,9.1555,9.3373,9.519,9.5618,9.6591,9.7517,9.7981,9.8968,9.9859,10.0332,10.1686,10.3064,10.4082,10.4487,10.5067,10.6031,10.73,10.8704,11.0201,11.1672,11.3042,11.4243,11.4829,11.5063,11.5063,11.5063,11.5063,11.5063,11.5063,11.5063,11.5063,11.5063,11.5063,11.5063,11.5063,11.5063,11.5063,11.5063,11.5063,11.5063,11.5063,11.5063,11.5063,11.5063,11.5063,11.5063,11.5063,11.5063,11.5063,11.5063,11.554,11.6337,11.7134,11.8007,11.8898,11.9687,11.9943,11.9943,11.9943,11.9943,11.9943,11.9943,11.9943,11.9943,11.9943,11.9943,11.9943,11.9943,11.9943,11.9943,11.9943,11.9943,11.9943,11.9943,11.9943,11.9943,11.9943,11.9943,11.9943,11.9943,11.9943,11.9943,11.9943,11.9943,11.9943,11.9943,12.0285,12.1044,12.2343,12.2799,12.3596,12.4907,12.4991,12.4991,12.4991,12.4991,12.4991,12.4991,12.4991,12.5122,12.5463,12.5122,12.559,12.6775,12.8073,12.887,8.4294,0.0,0.0,0.0,0.0,0.0,9.1555,9.3515,9.5547,9.6106,9.7008,9.7874,9.8469,9.936,10.0322,10.1054,10.2327,10.3607,10.4653,10.4182,10.4619,10.7064,10.7259,10.8467,11.1734,11.2371,11.3218,11.4949,11.5063,11.5063,11.5063,11.5063,11.5063,11.5063,11.5063,11.5063,11.5063,11.5063,11.5063,11.5063,11.5063,11.5063,11.5063,11.5063,11.5063,11.5063,11.5063,11.5063,11.5063,11.5063,11.5063,11.5063,11.5063,11.5063,11.5063,11.5063,11.5432,11.6023,11.6793,11.7638,11.8557,11.9345,11.9744,11.9943,11.9943,11.9943,11.9943,11.9943,11.9943,11.9943,11.9943,11.9943,11.9943,11.9943,11.9943,11.9943,11.9943,11.9943,11.9943,11.9943,11.9943,11.9943,11.9943,11.9943,11.9943,11.9943,11.9943,11.9943,11.9943,11.9943,11.9943,11.9943,11.9943,12.0541,12.204,12.2343,12.3093,12.4565,12.4877,12.4991,12.4991,12.4991,12.4991,12.4991,12.4991,12.4991,12.4991,12.4991,12.5265,12.5864,12.7315,12.8218,0.0,0.0,0.0,8.6976,8.9284,9.1555,9.1555,9.3967,9.6177,9.6213,9.7435,9.854,9.8551,9.9833,10.109,10.19,10.271,10.3503,10.4269,10.4683,10.4945,10.5051,10.6933,10.8903,11.067,11.1907,11.3218,11.4949,11.5063,11.5063,11.5063,11.5063,11.5063,11.5063,11.5063,11.5063,11.5063,11.5063,11.5063,11.5063,11.5063,11.5063,11.5063,11.5063,11.5063,11.5063,11.5063,11.5063,11.5063,11.5063,11.5063,11.5063,11.5063,11.5063,11.5063,11.5063,11.509,11.5204,11.5996,11.6793,11.761,11.8529,11.9288,11.9943,11.9943,11.9943,11.9943,11.9943,11.9943,11.9943,11.9943,11.9943,11.9943,11.9943,11.9943,11.9943,11.9943,11.9943,11.9943,11.9943,11.9943,11.9943,11.9943,11.9943,11.9943,11.9943,11.9943,11.9943,11.9943,11.9943,11.9943,11.9943,11.9943,12.0313,12.1253,12.204,12.2895,12.3806,12.4565,12.4991,12.4991,12.4991,12.4991,12.4991,12.4991,12.4991,12.4991,12.4991,12.5021,12.5038,12.5835,12.7117,8.3311,8.5861,8.7929,8.8951,9.0367,9.1698,9.222,9.4359,9.6213,9.6213,9.7471,9.8551,9.8551,9.9431,10.0368,10.1152,10.1935,10.2719,10.3503,10.3705,10.4382,10.5946,10.6104,10.7403,11.0752,11.1249,11.2184,11.4044,11.4721,11.5063,11.5063,11.5063,11.5063,11.5063,11.5063,11.5063,11.5063,11.5063,11.5063,11.5063,11.5063,11.5063,11.5063,11.5063,11.5063,11.5063,11.5063,11.5063,11.5063,11.5063,11.5063,11.5063,11.5063,11.5063,11.5063,11.5063,11.5063,11.5177,11.5974,11.6765,11.759,11.8463,11.9288,11.9943,11.9943,11.9943,11.9943,11.9943,11.9943,11.9943,11.9943,11.9943,11.9943,11.9943,11.9943,11.9943,11.9943,11.9943,11.9943,11.9943,11.9943,11.9943,11.9943,11.9943,11.9943,11.9943,11.9943,11.9943,11.9943,11.9943,11.9943,11.9943,11.9943,12.0313,12.1196,12.1538,12.2307,12.3721,12.4092,12.4451,12.4991,12.4991,12.4991,12.4991,12.4991,12.4991,12.4991,12.4991,12.4991,12.4991,12.5265,12.5948,8.3283,8.6075,8.8001,8.957,9.0782,9.1757,9.2541,9.4537,9.6213,9.6213,9.7471,9.8551,9.8551,9.9182,10.0073,10.1152,10.1971,10.2746,10.353,10.3637,10.4414,10.6482,10.5683,10.6608,11.0784,11.0965,11.1606,11.3557,11.4553,11.5063,11.5063,11.5063,11.5063,11.5063,11.5063,11.5063,11.5063,11.5063,11.5063,11.5063,11.5063,11.5063,11.5063,11.5063,11.5063,11.5063,11.5063,11.5063,11.5063,11.5063,11.5063,11.5063,11.5063,11.5063,11.5063,11.5063,11.5063,11.515,11.566,11.6337,11.7134,11.7979,11.8832,11.9573,11.9857,11.9943,11.9943,11.9943,11.9943,11.9943,11.9943,11.9943,11.9943,11.9943,11.9943,11.9943,11.9943,11.9943,11.9943,11.9943,11.9943,11.9943,11.9943,11.9943,11.9943,11.9943,11.9943,11.9943,11.9943,11.9943,11.9943,11.9943,11.9943,12.0171,12.0769,12.1082,12.188,12.3236,12.3625,12.4177,12.4962,12.4991,12.4991,12.4991,12.4991,12.4991,12.4991,12.4991,12.4991,12.4991,12.4991,12.5409,8.3099,8.5754,8.7346,8.8928,9.0474,9.1792,9.2577,9.4537,9.6177,9.6213,9.7435,9.8505,9.854,9.9146,10.0144,10.1686,10.2639,10.3423,10.4216,10.434,10.4945,10.6514,10.5667,10.6581,11.0667,11.0853,11.1547,11.3497,11.4493,11.5036,11.5063,11.5063,11.5063,11.5063,11.5063,11.5063,11.5063,11.5063,11.5063,11.5063,11.5063,11.5063,11.5063,11.5063,11.5063,11.5063,11.5063,11.5063,11.5063,11.5063,11.5063,11.5063,11.5063,11.5063,11.5063,11.5063,11.5063,11.5063,11.5063,11.5605,11.6365,11.7155,11.8045,11.8927,11.9715,11.9943,11.9943,11.9943,11.9943,11.9943,11.9943,11.9943,11.9943,11.9943,11.9943,11.9943,11.9943,11.9943,11.9943,11.9943,11.9943,11.9943,11.9943,11.9943,11.9943,11.9943,11.9943,11.9943,11.9943,11.9943,11.9943,11.9943,11.9943,11.9943,11.9943,12.0712,12.1595,12.2343,12.3236,12.4063,12.4907,12.4936,12.4962,12.4991,12.4991,12.4991,12.4991,12.4991,12.4991,12.4991,12.4991,12.5379,8.2807,8.6574,8.8263,9.0438,9.1258,9.1911,9.3278,9.4502,9.5511,9.6106,9.7008,9.7874,9.8444,9.8718,9.9182,10.0144,10.1437,10.2612,10.3423,10.4002,10.484,10.6117,10.5519,10.6046,10.8776,10.9551,11.0769,11.2705,11.362,11.4352,11.5036,11.5063,11.5063,11.5063,11.5063,11.5063,11.5063,11.5063,11.5063,11.5063,11.5063,11.5063,11.5063,11.5063,11.5063,11.5063,11.5063,11.5063,11.5063,11.5063,11.5063,11.5063,11.5063,11.5063,11.5063,11.5063,11.5063,11.5063,11.5063,11.5605,11.6365,11.7155,11.8045,11.8927,11.9715,11.9943,11.9943,11.9943,11.9943,11.9943,11.9943,11.9943,11.9943,11.9943,11.9943,11.9943,11.9943,11.9943,11.9943,11.9943,11.9943,11.9943,11.9943,11.9943,11.9943,11.9943,11.9943,11.9943,11.9943,11.9943,11.9943,11.9943,11.9943,11.9943,11.9943,12.0171,12.0655,12.1528,12.1822,12.2582,12.4063,12.411,12.4405,12.4991,12.4991,12.4991,12.4991,12.4991,12.4991,12.4991,12.4991,12.5105,8.0467,8.5128,8.862,9.0973,9.1555,9.1971,9.3528,9.4502,9.5261,9.607,9.658,9.7197,9.8337,9.8551,9.8825,9.9574,10.1035,10.2327,10.3102,10.4189,10.5341,10.6504,10.5976,10.6352,10.8555,10.9318,11.0446,11.2401,11.3278,11.4098,11.5036,11.5063,11.5063,11.5063,11.5063,11.5063,11.5063,11.5063,11.5063,11.5063,11.5063,11.5063,11.5063,11.5063,11.5063,11.5063,11.5063,11.5063,11.5063,11.5063,11.5063,11.5063,11.5063,11.5063,11.5063,11.5063,11.5063,11.5063,11.5063,11.5378,11.586,11.6651,11.7476,11.8321,11.9174,11.9658,11.9943,11.9943,11.9943,11.9943,11.9943,11.9943,11.9943,11.9943,11.9943,11.9943,11.9943,11.9943,11.9943,11.9943,11.9943,11.9943,11.9943,11.9943,11.9943,11.9943,11.9943,11.9943,11.9943,11.9943,11.9943,11.9943,11.9943,11.9943,11.9943,11.9943,12.0313,12.1253,12.1281,12.188,12.314,12.3607,12.4063,12.4451,12.4793,12.4991,12.4991,12.4991,12.4991,12.4991,12.4991,12.4991,7.8389,8.3346,8.8477,9.083,9.1472,9.1935,9.3385,9.4323,9.5155,9.6035,9.6213,9.6676,9.8123,9.8479,9.8764,9.9431,10.0866,10.222,10.3102,10.4483,10.5841,10.7075,10.681,10.7219,10.8978,10.9565,11.0525,11.2192,11.3107,11.3957,11.4835,11.5041,11.5063,11.5063,11.5063,11.5063,11.5063,11.5063,11.5063,11.5063,11.5063,11.5063,11.5063,11.5063,11.5063,11.5063,11.5063,11.5063,11.5063,11.5063,11.5063,11.5063,11.5063,11.5063,11.5063,11.5063,11.5063,11.5063,11.5063,11.5063,11.5204,11.5996,11.6706,11.7448,11.8471,11.924,11.9801,11.9915,11.9943,11.9943,11.9943,11.9943,11.9943,11.9943,11.9943,11.9943,11.9943,11.9943,11.9943,11.9943,11.9943,11.9943,11.9943,11.9943,11.9943,11.9943,11.9943,11.9943,11.9943,11.9943,11.9943,11.9943,11.9943,11.9943,11.9943,11.9943,12.0285,12.1054,12.1139,12.1481,12.2267,12.314,12.3625,12.3625,12.4422,12.4907,12.4991,12.4991,12.4991,12.4991,12.4991,12.4991,8.2646,8.5705,8.7667,8.9998,9.108,9.1769,9.2743,9.3504,9.4466,9.5928,9.6213,9.6473,9.741,9.8123,9.8586,9.8729,10.0083,10.1579,10.3031,10.4002,10.5152,10.6626,10.7823,10.8291,10.7718,10.9625,11.0963,11.1102,11.21,11.3073,11.3897,11.4667,11.5063,11.5063,11.5063,11.5063,11.5063,11.5063,11.5063,11.5063,11.5063,11.5063,11.5063,11.5063,11.5063,11.5063,11.5063,11.5063,11.5063,11.5063,11.5063,11.5063,11.5063,11.5063,11.5063,11.5063,11.5063,11.5063,11.5063,11.5063,11.5204,11.5996,11.6337,11.6706,11.8301,11.887,11.9126,11.9744,11.9943,11.9943,11.9943,11.9943,11.9943,11.9943,11.9943,11.9943,11.9943,11.9943,11.9943,11.9943,11.9943,11.9943,11.9943,11.9943,11.9943,11.9943,11.9943,11.9943,11.9943,11.9943,11.9943,11.9943,11.9943,11.9943,11.9943,11.9943,11.9991,12.0171,12.0171,12.0569,12.1481,12.2267,12.2685,12.2685,12.3578,12.4337,12.4991,12.4991,12.4991,12.4991,12.4991,12.4991,8.327,8.5968,8.7239,8.8785,9.0367,9.1757,9.2541,9.3314,9.4205,9.5368,9.5903,9.6438,9.7232,9.8016,9.8551,9.8551,9.9538,10.0821,10.2363,10.3628,10.4991,10.6523,10.8449,10.9197,10.7996,10.9903,11.1068,11.0809,11.1454,11.2367,11.3642,11.4125,11.458,11.5063,11.5063,11.5063,11.5063,11.5063,11.5063,11.5063,11.5063,11.5063,11.5063,11.5063,11.5063,11.5063,11.5063,11.5063,11.5063,11.5063,11.5063,11.5063,11.5063,11.5063,11.5063,11.5063,11.5063,11.5063,11.5063,11.5063,11.515,11.5519,11.5882,11.6479,11.7704,11.8415,11.8918,11.9715,11.9943,11.9943,11.9943,11.9943,11.9943,11.9943,11.9943,11.9943,11.9943,11.9943,11.9943,11.9943,11.9943,11.9943,11.9943,11.9943,11.9943,11.9943,11.9943,11.9943,11.9943,11.9943,11.9943,11.9943,11.9943,11.9943,11.9943,11.9943,11.9943,11.9943,11.9943,12.0104,12.0569,12.1385,12.1841,12.1841,12.3152,12.3996,12.4405,12.4793,12.4991,12.4991,12.4991,12.4991,8.3146,8.5576,8.6882,8.78,8.9417,9.1092,9.222,9.3064,9.3884,9.4644,9.5571,9.6427,9.7019,9.7909,9.8551,9.8551,9.9049,10.0001,10.1579,10.312,10.4688,10.6282,10.8649,10.9785,10.8866,11.02,11.0993,11.0809,11.1035,11.1858,11.3388,11.3615,11.4125,11.5063,11.5063,11.5063,11.5063,11.5063,11.5063,11.5063,11.5063,11.5063,11.5063,11.5063,11.5063,11.5063,11.5063,11.5063,11.5063,11.5063,11.5063,11.5063,11.5063,11.5063,11.5063,11.5063,11.5063,11.5063,11.5063,11.5063,11.5063,11.5063,11.5491,11.6137,11.6907,11.7752,11.8671,11.9459,11.9801,11.9943,11.9943,11.9943,11.9943,11.9943,11.9943,11.9943,11.9943,11.9943,11.9943,11.9943,11.9943,11.9943,11.9943,11.9943,11.9943,11.9943,11.9943,11.9943,11.9943,11.9943,11.9943,11.9943,11.9943,11.9943,11.9943,11.9943,11.9943,11.9943,11.9943,11.9943,11.9943,12.0626,12.1082,12.1281,12.2582,12.335,12.3511,12.4337,12.4734,12.4734,12.4907,12.4991,8.385,8.5184,8.6204,8.7693,8.8228,8.8941,9.1186,9.2256,9.3064,9.3848,9.5203,9.6248,9.632,9.7542,9.8551,9.8551,9.8586,9.9192,10.0769,10.2327,10.3895,10.5463,10.8129,10.9846,10.97,11.0381,11.0809,11.0777,11.1035,11.1619,11.2595,11.3301,11.4125,11.5063,11.5063,11.5063,11.5063,11.5063,11.5063,11.5063,11.5063,11.5063,11.5063,11.5063,11.5063,11.5063,11.5063,11.5063,11.5063,11.5063,11.5063,11.5063,11.5063,11.5063,11.5063,11.5063,11.5063,11.5063,11.5063,11.5063,11.5063,11.5063,11.509,11.5318,11.6109,11.6907,11.7724,11.8605,11.9374,11.9943,11.9943,11.9943,11.9943,11.9943,11.9943,11.9943,11.9943,11.9943,11.9943,11.9943,11.9943,11.9943,11.9943,11.9943,11.9943,11.9943,11.9943,11.9943,11.9943,11.9943,11.9943,11.9943,11.9943,11.9943,11.9943,11.9943,11.9943,11.9943,11.9943,11.9943,11.9943,11.9991,12.0455,12.1281,12.1424,12.187,12.2571,12.3493,12.3949,12.3949,12.465,12.4991,8.215,8.4399,8.5861,8.6503,8.7693,8.9119,9.0532,9.1103,9.1673,9.2921,9.443,9.5654,9.6141,9.7115,9.8016,9.8479,9.8551,9.8932,10.0011,10.1508,10.334,10.5618,10.7761,10.9475,11.0763,11.1261,11.1311,11.0868,11.1035,11.1327,11.1721,11.2568,11.3392,11.4212,11.4781,11.5063,11.5063,11.5063,11.5063,11.5063,11.5063,11.5063,11.5063,11.5063,11.5063,11.5063,11.5063,11.5063,11.5063,11.5063,11.5063,11.5063,11.5063,11.5063,11.5063,11.5063,11.5063,11.5063,11.5063,11.5063,11.5063,11.5063,11.5063,11.5204,11.5996,11.6451,11.702,11.8349,11.9012,11.9316,11.9829,11.9943,11.9943,11.9943,11.9943,11.9943,11.9943,11.9943,11.9943,11.9943,11.9943,11.9943,11.9943,11.9943,11.9943,11.9943,11.9943,11.9943,11.9943,11.9943,11.9943,11.9943,11.9943,11.9943,11.9943,11.9943,11.9943,11.9943,11.9943,11.9943,11.9943,11.9943,12.0114,12.0455,12.1025,12.1481,12.1756,12.3152,12.3835,12.3835,12.462,12.4991,8.0969,8.3422,8.5077,8.5326,8.6967,8.8714,8.9498,8.9878,9.0449,9.1745,9.3468,9.4941,9.5749,9.6723,9.7589,9.8123,9.8408,9.8754,9.9289,10.0724,10.2509,10.4679,10.6498,10.8567,11.098,11.1038,11.1028,11.1295,11.0929,11.0807,11.1149,11.1797,11.2621,11.3702,11.4325,11.4808,11.5063,11.5063,11.5063,11.5063,11.5063,11.5063,11.5063,11.5063,11.5063,11.5063,11.5063,11.5063,11.5063,11.5063,11.5063,11.5063,11.5063,11.5063,11.5063,11.5063,11.5063,11.5063,11.5063,11.5063,11.5063,11.5063,11.5063,11.5177,11.5747,11.6088,11.6479,11.7704,11.8349,11.8898,11.943,11.9601,11.963,11.9857,11.9943,11.9943,11.9943,11.9943,11.9943,11.9943,11.9943,11.9943,11.9943,11.9943,11.9943,11.9943,11.9943,11.9943,11.9943,11.9943,11.9943,11.9943,11.9943,11.9943,11.9943,11.9943,11.9943,11.9943,11.9943,11.9943,11.9943,11.9943,11.9943,11.9943,12.0569,12.0883,12.0883,12.2354,12.3181,12.3464,12.4291,12.4764,8.0834,8.221,8.3622,8.4364,8.5754,8.7132,8.7907,8.8655,8.9463,9.027,9.2268,9.4134,9.4905,9.6342,9.741,9.741,9.8052,9.8551,9.8576,9.9904,10.1223,10.1997,10.4135,10.6858,11.007,10.9266,10.9624,11.2333,11.0638,10.9965,11.1123,11.1175,11.1972,11.3638,11.3729,11.4185,11.5063,11.5063,11.5063,11.5063,11.5063,11.5063,11.5063,11.5063,11.5063,11.5063,11.5063,11.5063,11.5063,11.5063,11.5063,11.5063,11.5063,11.5063,11.5063,11.5063,11.5063,11.5063,11.5063,11.5063,11.5063,11.5063,11.5063,11.5063,11.5063,11.5633,11.6223,11.6251,11.7476,11.8785,11.8785,11.8785,11.9012,11.9744,11.9943,11.9943,11.9943,11.9943,11.9943,11.9943,11.9943,11.9943,11.9943,11.9943,11.9943,11.9943,11.9943,11.9943,11.9943,11.9943,11.9943,11.9943,11.9943,11.9943,11.9943,11.9943,11.9943,11.9943,11.9943,11.9943,11.9943,11.9943,11.9943,11.9943,11.9943,11.9971,11.9971,12.0883,12.1737,12.2524,12.3397,12.4224,8.0176,8.2581,8.4385,8.5148,8.6133,8.6953,8.7203,8.8286,8.9427,9.0235,9.0984,9.2066,9.392,9.5083,9.6128,9.7232,9.7589,9.7945,9.8479,9.9431,10.0677,10.2266,10.3802,10.6372,11.0417,11.07,11.1108,11.2446,11.1935,11.1238,11.0442,11.0871,11.1441,11.1972,11.3138,11.3843,11.4125,11.4786,11.5063,11.5063,11.5063,11.5063,11.5063,11.5063,11.5063,11.5063,11.5063,11.5063,11.5063,11.5063,11.5063,11.5063,11.5063,11.5063,11.5063,11.5063,11.5063,11.5063,11.5063,11.5063,11.5063,11.5063,11.5063,11.5063,11.5063,11.5264,11.554,11.6082,11.662,11.7048,11.7048,11.741,11.8073,11.8918,11.9154,11.926,11.9829,11.9943,11.9943,11.9943,11.9943,11.9943,11.9943,11.9943,11.9943,11.9943,11.9943,11.9943,11.9943,11.9943,11.9943,11.9943,11.9943,11.9943,11.9943,11.9943,11.9943,11.9943,11.9943,11.9943,11.9943,11.9943,11.9943,11.9943,11.9943,11.9943,11.9943,12.0826,12.1424,12.1709,12.2524,12.335,8.0097,8.2331,8.3865,8.4635,8.542,8.6097,8.6383,8.7181,8.8215,8.9284,8.9771,9.0568,9.2636,9.4359,9.5796,9.6769,9.7446,9.7981,9.8479,9.8968,9.9936,10.1741,10.3274,10.5583,10.9249,11.0479,11.1392,11.2233,11.2043,11.1488,11.0492,11.0632,11.0898,11.1175,11.2226,11.3073,11.3729,11.4298,11.458,11.458,11.4922,11.5063,11.5063,11.5063,11.5063,11.5063,11.5063,11.5063,11.5063,11.5063,11.5063,11.5063,11.5063,11.5063,11.5063,11.5063,11.5063,11.5063,11.5063,11.5063,11.5063,11.5063,11.5063,11.5063,11.5063,11.5063,11.5177,11.5654,11.5996,11.6223,11.6223,11.6592,11.7276,11.8463,11.8785,11.9012,11.9744,11.9943,11.9943,11.9943,11.9943,11.9943,11.9943,11.9943,11.9943,11.9943,11.9943,11.9943,11.9943,11.9943,11.9943,11.9943,11.9943,11.9943,11.9943,11.9943,11.9943,11.9943,11.9943,11.9943,11.9943,11.9943,11.9943,11.9943,11.9943,11.9943,11.9943,12.0512,12.0968,12.131,12.1822,12.2495,8.0415,8.1675,8.2424,8.3265,8.4007,8.4756,8.554,8.5754,8.6218,8.7657,8.862,8.9677,9.1115,9.386,9.5963,9.6177,9.7435,9.8408,9.8586,9.8622,9.9192,10.0724,10.2578,10.4656,10.6918,10.9017,11.0686,11.1774,11.1279,11.0988,11.1198,11.0442,11.0354,11.1087,11.1137,11.1972,11.3502,11.3642,11.3729,11.3729,11.458,11.5041,11.5063,11.5063,11.5063,11.5063,11.5063,11.5063,11.5063,11.5063,11.5063,11.5063,11.5063,11.5063,11.5063,11.5063,11.5063,11.5063,11.5063,11.5063,11.5063,11.5063,11.5063,11.5063,11.5063,11.5063,11.5063,11.5063,11.5605,11.6175,11.6175,11.6175,11.6565,11.8215,11.8585,11.8804,11.9687,11.9857,11.9857,11.9943,11.9915,11.9857,11.9943,11.9915,11.9857,11.9943,11.9943,11.9943,11.9943,11.9943,11.9943,11.9943,11.9943,11.9943,11.9943,11.9943,11.9943,11.9943,11.9943,11.9943,11.9943,11.9943,11.9943,11.9943,11.9943,11.9943,11.9943,11.9943,12.0332,12.1196,12.1196,12.1623,8.0397,8.2103,8.2566,8.3936,8.4435,8.4756,8.554,8.6204,8.6704,8.7096,8.8273,8.9356,8.9712,9.1329,9.3432,9.5821,9.6534,9.74,9.9182,9.9431,9.9823,10.0769,10.2349,10.394,10.538,10.8457,11.0583,11.1023,11.1727,11.1874,11.1213,11.0442,11.0088,11.0278,11.0898,11.1365,11.1782,11.3073,11.3729,11.3729,11.393,11.4412,11.5063,11.5063,11.5063,11.5063,11.5063,11.5063,11.5063,11.5063,11.5063,11.5063,11.5063,11.5063,11.5063,11.5063,11.5063,11.5063,11.5063,11.5063,11.5063,11.5063,11.5063,11.5063,11.5063,11.5063,11.5063,11.5063,11.5204,11.535,11.535,11.535,11.5605,11.6592,11.682,11.7248,11.8719,11.9032,11.924,11.9829,11.943,11.924,11.9829,11.943,11.9268,11.9829,11.9943,11.9943,11.9943,11.9943,11.9943,11.9943,11.9943,11.9943,11.9943,11.9943,11.9943,11.9943,11.9943,11.9943,11.9943,11.9943,11.9943,11.9943,11.9943,11.9943,11.9943,11.9943,12.0057,12.0218,12.0218,12.074,8.098,8.221,8.2352,8.2831,8.3223,8.3601,8.4007,8.4992,8.5919,8.6276,8.7609,8.8798,8.9177,9.0509,9.2363,9.4776,9.6046,9.7186,9.8469,9.8968,9.9584,10.0734,10.212,10.3418,10.4575,10.8278,11.0606,11.064,11.2179,11.2709,11.1873,11.1011,11.0366,11.005,11.0404,11.0795,11.1175,11.2124,11.2568,11.2564,11.3361,11.3957,11.4466,11.4862,11.5063,11.5063,11.5063,11.5063,11.5063,11.5063,11.5063,11.5063,11.5063,11.5063,11.5063,11.5063,11.5063,11.5063,11.5063,11.5063,11.5063,11.5063,11.5063,11.5063,11.5063,11.5063,11.5063,11.5063,11.5063,11.5063,11.5063,11.5063,11.5264,11.6061,11.6223,11.6592,11.7873,11.8159,11.8415,11.9232,11.906,11.8898,11.9316,11.9032,11.8785,11.8776,11.8776,11.8776,11.8776,11.9146,11.9374,11.9374,11.9715,11.9943,11.9943,11.9943,11.9943,11.9943,11.9203,11.8946,11.9374,11.9744,11.9943,11.9943,11.9943,11.9943,11.9943,11.9943,11.9943,11.9943,11.9943,12.0199,8.1425,8.221,8.2281,8.1725,8.2031,8.2459,8.2709,8.3793,8.4934,8.5576,8.7074,8.837,8.8785,9.0331,9.2006,9.3314,9.5475,9.7161,9.7517,9.823,9.9263,10.0698,10.1756,10.2816,10.3904,10.7578,10.9996,11.0174,11.2104,11.3075,11.2572,11.1657,11.0822,11.005,11.0012,11.0328,11.0985,11.1011,11.1061,11.1213,11.2655,11.3475,11.3729,11.4493,11.4949,11.5063,11.5063,11.5063,11.5063,11.5063,11.5063,11.5063,11.5063,11.5063,11.5063,11.5063,11.5063,11.5063,11.5063,11.5063,11.5063,11.5063,11.5063,11.5063,11.5063,11.5063,11.5063,11.5063,11.5063,11.5063,11.5063,11.5063,11.5264,11.5882,11.6088,11.6289,11.7041,11.7248,11.7524,11.8585,11.8671,11.8605,11.8756,11.8671,11.8301,11.7524,11.7382,11.7382,11.7382,11.8101,11.8557,11.8557,11.9146,11.9573,11.9573,11.9573,11.9573,11.9573,11.8207,11.7752,11.8557,11.9174,11.9601,11.9744,11.9857,11.9943,11.9943,11.9943,11.9943,11.9943,11.9943,11.9943,8.0783,8.221,8.3372,8.39,8.3636,8.3551,8.4885,8.5384,8.5598,8.5705,8.7502,8.8678,8.7453,8.9605,9.165,9.184,9.3872,9.6092,9.8087,9.9039,9.9894,10.0769,10.1032,10.1476,10.2354,10.4475,10.6781,10.9094,11.0482,11.161,11.2507,11.1657,11.0822,11.005,11.0012,11.0088,11.0202,11.0202,11.0518,11.1175,11.1441,11.234,11.3729,11.3843,11.4325,11.5063,11.5063,11.5063,11.5063,11.5063,11.5063,11.5063,11.5063,11.5063,11.5063,11.5063,11.5063,11.5063,11.5063,11.5063,11.5063,11.5063,11.5063,11.5063,11.5063,11.5063,11.5063,11.5063,11.5063,11.5063,11.5063,11.5063,11.509,11.5204,11.5264,11.5491,11.6223,11.6424,11.6879,11.8471,11.8159,11.7838,11.8643,11.8121,11.759,11.741,11.7382,11.7382,11.7382,11.7524,11.761,11.761,11.7724,11.7817,11.7817,11.7817,11.7817,11.7817,11.7524,11.7468,11.761,11.7724,11.8187,11.8918,11.9601,11.9943,11.9943,11.9943,11.9943,11.9943,11.9943,11.9943,8.1389,8.221,8.2873,8.3187,8.303,8.3051,8.4229,8.4813,8.5077,8.5077,8.6967,8.825,8.7096,8.9093,9.1067,9.1484,9.2826,9.4609,9.6937,9.8326,9.9396,10.018,10.0287,10.0724,10.1935,10.3798,10.5698,10.7314,10.941,11.0712,11.0947,11.0974,11.0684,11.0024,11.0012,11.0012,11.0012,11.0012,11.0202,11.0556,11.1011,11.1593,11.2363,11.3274,11.3957,11.4352,11.4835,11.5063,11.5063,11.5063,11.5063,11.5063,11.5063,11.5063,11.5063,11.5063,11.5063,11.5063,11.5063,11.5063,11.5063,11.5063,11.5063,11.5063,11.5063,11.5063,11.5063,11.5063,11.5063,11.5063,11.5063,11.5063,11.5063,11.5063,11.5063,11.5177,11.5546,11.5633,11.5974,11.7162,11.7048,11.6907,11.7334,11.7048,11.6651,11.6196,11.6137,11.6137,11.6137,11.6537,11.6793,11.6793,11.7155,11.7382,11.7382,11.6651,11.6137,11.6137,11.6137,11.6337,11.6765,11.6793,11.7155,11.8007,11.8349,11.8804,11.9288,11.9288,11.9516,11.9943,11.9943,11.9943,8.2245,0.0,8.278,8.278,8.278,8.2994,0.0,8.4421,8.4899,8.5077,8.6659,8.7894,8.7274,8.8951,9.0639,9.1413,9.222,9.3468,9.5618,9.715,9.8433,9.9574,9.9538,10.0073,10.1615,10.3104,10.4518,10.5752,10.8291,10.9641,10.9258,11.0247,11.0503,10.9634,10.9597,10.9597,10.9597,10.9882,10.9882,10.9597,11.0501,11.1011,11.1213,11.2542,11.3361,11.3756,11.4439,11.4862,11.5063,11.5063,11.5063,11.5063,11.5063,11.5063,11.5063,11.5063,11.5063,11.5063,11.5063,11.5063,11.5063,11.5063,11.5063,11.5063,11.5063,11.5063,11.5063,11.5063,11.5063,11.5063,11.5063,11.5063,11.5063,11.5063,11.5063,11.5063,11.5063,11.5063,11.5291,11.6082,11.6223,11.6223,11.6223,11.6223,11.5974,11.5177,11.5063,11.5063,11.5063,11.5605,11.5974,11.5974,11.6479,11.6879,11.6879,11.5747,11.5063,11.5063,11.5063,11.535,11.5974,11.5974,11.6337,11.7134,11.7134,11.759,11.8471,11.8471,11.887,11.9658,11.9658,11.9744,0.0,8.385,8.4378,8.4378,8.4378,8.4613,8.5362,8.5598,0.0,8.6561,8.743,8.8049,8.7978,8.9284,9.0639,9.1413,9.222,9.329,9.4929,9.5832,9.7211,9.9431,9.9075,9.9228,10.0805,10.1122,10.226,10.4837,10.6946,10.8023,10.8029,11.0013,11.0321,10.8462,10.8398,10.8398,10.8398,10.9466,10.9466,10.8424,10.9568,11.048,11.1175,11.1289,11.2226,11.3729,11.3816,11.4298,11.5063,11.5063,11.5063,11.5063,11.5063,11.5063,11.5063,11.5063,11.5063,11.5063,11.5063,11.5063,11.5063,11.5063,11.5063,11.5063,11.5063,11.5063,11.5063,11.5063,11.5063,11.5063,11.5063,11.5063,11.5063,11.5063,11.5063,11.5063,11.5063,11.5063,11.5291,11.6082,11.6223,11.6223,11.6223,11.6223,11.5974,11.5177,11.5063,11.5063,11.5063,11.509,11.515,11.515,11.5204,11.5264,11.5264,11.515,11.5063,11.5063,11.5063,11.509,11.515,11.515,11.5519,11.631,11.631,11.6706,11.7496,11.7496,11.7979,11.8832,11.8832,11.924,8.3087,8.3936,8.4556,8.4556,8.4556,8.4756,8.554,8.5348,8.5362,8.6655,8.7132,8.7466,8.7978,8.8905,9.0069,9.1341,9.1792,9.2696,9.4763,9.5749,9.6723,9.8087,9.8408,9.9004,10.0047,10.0591,10.1486,10.3055,10.4717,10.5807,10.6051,10.7301,10.7712,10.6969,10.7202,10.7848,10.9015,10.8936,10.8737,10.8294,10.9466,10.9774,10.9397,11.0633,11.1555,11.2162,11.2769,11.3479,0.0,11.4212,11.458,11.5063,11.5063,11.5063,11.5063,11.5063,11.5063,11.5063,11.5063,11.5063,11.5063,11.5063,11.5063,11.5063,11.5063,11.5063,11.5063,11.5063,11.5063,11.5063,11.5063,11.5063,11.5063,11.5063,11.5063,11.5063,11.5063,11.5063,11.515,11.5491,11.5519,11.5519,11.5519,11.5519,11.5405,11.509,11.5063,11.5063,11.5063,11.5063,11.5063,11.5063,11.5063,11.5063,11.5063,11.5063,11.5063,11.5063,11.5063,11.5063,11.5063,11.5063,11.5204,11.5519,11.5519,11.5654,11.5974,11.6424,11.7134,11.7931,11.7931,11.8093,8.3515,8.415,8.4556,8.4556,8.4756,8.5077,8.5612,8.5326,8.5362,8.6931,8.706,8.7203,8.8228,8.8834,8.9641,9.0973,9.14,9.2197,9.4074,9.5215,9.6046,9.6591,9.7767,9.8683,9.8968,10.0118,10.109,10.165,10.3464,10.4506,10.4418,10.5638,10.6157,10.5786,10.6028,10.6866,10.8379,10.8257,10.8143,10.8143,10.8929,10.9183,10.8842,10.9824,11.0606,11.1213,11.1835,11.2595,11.3365,11.3365,11.3843,11.4667,11.4667,11.4808,11.5063,11.5063,11.5063,11.5063,11.5063,11.5063,11.5063,11.5063,11.5063,11.5063,11.5063,11.5063,11.5063,11.5063,11.5063,11.5063,11.5063,11.5063,11.5063,11.5063,11.5063,11.5063,11.5063,11.5063,11.5063,11.5063,11.5063,11.5063,11.5063,11.5063,11.5063,11.5063,11.5063,11.5063,11.5063,11.5063,11.5063,11.5063,11.5063,11.5063,11.5063,11.5063,11.5063,11.5063,11.5063,11.5063,11.5063,11.5063,11.5063,11.5063,11.5063,11.5063,11.5063,11.5633,11.6137,11.6679,11.6907,11.7155,8.415,8.4556,8.4556,8.4556,8.5148,8.5719,8.5741,8.5719,8.6182,8.7729,8.743,8.7381,8.8928,8.9213,8.9463,9.0247,9.1044,9.1828,9.2612,9.4074,9.5048,9.5048,9.709,9.823,9.7482,9.9487,10.0876,10.0876,10.3412,10.4434,10.3262,10.541,10.6157,10.5008,10.4945,10.5344,10.6131,10.7286,10.786,10.786,10.7886,10.8642,10.9972,10.8789,10.9345,11.1149,11.1149,11.1695,11.2507,11.2507,11.2997,11.3702,11.3702,11.4239,11.5063,11.5063,11.5063,11.5063,11.5063,11.5063,11.5063,11.5063,11.5063,11.5063,11.5063,11.5063,11.5063,11.5063,11.5063,11.5063,11.5063,11.5063,11.5063,11.5063,11.5063,11.5063,11.5063,11.5063,11.5063,11.5063,11.5063,11.5063,11.5063,11.5063,11.5063,11.5063,11.5063,11.5063,11.5063,11.5063,11.5063,11.5063,11.5063,11.5063,11.5063,11.5063,11.5063,11.5063,11.5063,11.5063,11.5063,11.5063,11.5063,11.5063,11.5063,11.5063,11.5063,11.5063,11.5063,11.509,11.586,11.6651,8.415,8.4556,8.4556,8.4556,8.5148,8.5861,8.6418,8.6133,8.6347,8.8464,8.7809,8.7381,8.8928,8.9213,8.9463,9.0247,9.0568,9.121,9.2541,9.3599,9.443,9.4976,9.6651,9.766,9.741,9.8515,9.9691,10.0805,10.2142,10.3017,10.3173,10.3342,10.3768,10.4518,10.4017,10.4494,10.6104,10.6477,10.6647,10.6681,10.8221,10.8374,10.7306,10.7953,10.8563,10.9101,10.9101,11.0062,11.1581,11.1581,11.2101,11.291,11.291,11.305,11.3278,11.3278,11.3647,11.4125,11.4125,11.4553,11.5063,11.5063,11.5063,11.4949,11.4325,11.4125,11.4239,11.4895,11.5063,11.5063,11.5063,11.5063,11.5063,11.5063,11.5063,11.5063,11.5063,11.5063,11.5063,11.5063,11.5063,11.5063,11.5063,11.5063,11.5063,11.5063,11.5063,11.5063,11.5063,11.5063,11.5063,11.5063,11.5063,11.5063,11.5063,11.5063,11.5063,11.5063,11.5063,11.5063,11.5063,11.5063,11.5063,11.5063,11.5063,11.5063,11.5063,11.5063,11.5063,11.5063,11.5291,11.5546,8.3779,8.4328,8.4556,8.4556,8.5148,8.5919,8.6726,8.6276,8.6396,8.875,8.7988,8.7381,8.8928,8.9213,8.9391,8.9855,9.0199,9.0841,9.2078,9.2957,9.3706,9.4502,9.5689,9.6591,9.6901,9.7649,9.8729,10.0296,10.1152,10.1793,10.2256,10.2114,10.2505,10.3414,10.3289,10.392,10.541,10.541,10.5677,10.6131,10.7329,10.7755,10.7541,10.745,10.7913,10.878,10.7998,10.8331,10.9462,10.9818,11.0582,11.1443,11.1828,11.2241,11.2572,11.2572,11.2823,11.3251,11.3251,11.362,11.4076,11.4076,11.4076,11.3989,11.3414,11.3251,11.3365,11.3897,11.4076,11.4125,11.4439,11.4553,11.4607,11.4976,11.5063,11.5063,11.5063,11.5063,11.5063,11.5063,11.5063,11.5063,11.5063,11.5063,11.5063,11.5063,11.5063,11.5063,11.5063,11.5063,11.5063,11.5063,11.5063,11.5063,11.5063,11.5063,11.5063,11.5063,11.5063,11.5063,11.5063,11.5063,11.5063,11.5063,11.5063,11.5063,11.5063,11.5063,11.5063,11.5063,11.5063,11.5063,8.3194,8.3936,8.4556,8.4556,8.5148,8.5919,8.6726,8.6347,8.649,8.875,8.8059,8.7453,8.8963,8.9213,8.9213,8.9213,8.9842,9.0568,9.1329,9.2042,9.2791,9.367,9.4466,9.5226,9.6035,9.6876,9.7981,9.9396,10.0296,10.0734,10.0662,10.1401,10.19,10.2042,10.2719,10.3503,10.4269,10.434,10.492,10.5954,10.5726,10.6892,10.919,10.7083,10.7312,10.9199,10.7466,10.6677,10.6787,10.7745,10.869,10.96,11.0469,11.1344,11.2173,11.2173,11.217,11.2253,11.2367,11.2454,11.2515,11.2507,11.2428,11.2249,11.2287,11.234,11.2458,11.2507,11.2572,11.2709,11.3414,11.3615,11.3843,11.4721,11.5036,11.5063,11.5063,11.5063,11.5063,11.5063,11.5063,11.5063,11.5063,11.5063,11.5063,11.5063,11.5063,11.5063,11.5063,11.5063,11.5063,11.5063,11.5063,11.5063,11.5063,11.5063,11.5063,11.5063,11.5063,11.5063,11.5063,11.5063,11.5063,11.5063,11.5063,11.5063,11.5063,11.5063,11.5063,11.5063,11.5063,11.5063,8.3194,8.3936,8.4556,8.4556,8.5148,8.5919,8.6726,8.6739,8.7132,8.8857,8.8442,8.8108,8.9035,8.9213,8.9213,8.9213,8.9356,8.9748,9.0532,9.0782,9.1388,9.2814,9.3646,9.443,9.5226,9.6555,9.7517,9.7874,9.9182,9.9716,9.9085,9.9788,10.0785,10.2007,10.222,10.2684,10.3449,10.4082,10.4483,10.4778,10.5599,10.6156,10.6444,10.6234,10.6424,10.685,10.6429,10.6425,10.6734,10.697,10.7647,10.8503,10.7874,10.8274,10.9184,10.9184,10.9417,10.9971,11.1088,11.1767,11.2169,11.2454,11.1454,11.0122,11.0239,11.0846,11.1619,11.237,11.2572,11.2598,11.2735,11.2796,11.2997,11.3821,11.4553,11.5063,11.5063,11.5063,11.5063,11.5063,11.5063,11.5063,11.5063,11.5063,11.5063,11.5063,11.5063,11.5063,11.5063,11.5063,11.5063,11.5063,11.5063,11.5063,11.5063,11.5063,11.5063,11.5063,11.5063,11.5063,11.5063,11.5063,11.5063,11.5063,11.5063,11.5063,11.5063,11.5063,11.5063,11.5063,11.5063,11.5063,8.2602,8.3387,8.41,8.4471,8.4863,8.5362,8.6169,8.6311,8.6775,8.8357,8.8335,8.8299,8.907,8.9213,8.9213,8.9213,8.9213,8.9498,9.0247,9.0377,9.0841,9.2006,9.285,9.3611,9.443,9.5582,9.6591,9.7339,9.8123,9.8408,9.8016,9.8372,9.9299,10.0892,10.1676,10.222,10.2674,10.3423,10.3824,10.385,10.4821,10.5483,10.5825,10.5456,10.558,10.6104,10.5526,10.5398,10.5684,10.6605,10.7319,10.7802,10.7802,10.8194,10.8634,10.8634,10.8818,10.9162,10.9903,11.0318,11.0606,11.0803,10.9871,10.8708,10.8787,10.8923,10.9252,11.0217,11.0488,11.0695,11.1665,11.1873,11.2101,11.2963,11.3533,11.3875,11.3875,11.4152,11.4553,11.4976,11.5063,11.5063,11.5063,11.5063,11.5063,11.5063,11.5063,11.5063,11.5063,11.5063,11.5063,11.5063,11.5063,11.5063,11.5063,11.5063,11.4862,11.4439,11.4412,11.4239,11.3875,11.3875,11.3875,11.3875,11.3875,11.3875,11.3875,11.3875,11.4076,11.4412,11.4412,11.4667,8.1853,8.2695,8.3551,8.4185,8.4471,8.4756,8.554,8.5826,8.6325,8.7764,8.8156,8.8442,8.9106,8.9213,8.9213,8.9213,8.9213,8.9463,9.0092,9.0199,9.0484,9.1258,9.1899,9.2672,9.3599,9.4395,9.544,9.6876,9.684,9.6912,9.7161,9.7304,9.7981,9.9289,10.0821,10.1757,10.2042,10.271,10.3066,10.3209,10.3868,10.4759,10.5784,10.4831,10.4893,10.5784,10.4804,10.4323,10.4332,10.5923,10.6713,10.6972,10.7896,10.8388,10.8559,10.8696,10.8682,10.8684,10.895,10.9004,10.8909,10.8538,10.8142,10.7788,10.7788,10.7396,10.7102,10.7968,10.8118,10.8365,10.9983,11.0565,11.0912,11.1836,11.217,11.237,11.2507,11.305,11.3729,11.4493,11.4721,11.4835,11.4835,11.4976,11.5063,11.5063,11.5063,11.5063,11.5063,11.4808,11.4607,11.4607,11.4607,11.4607,11.4607,11.4607,11.4331,11.3555,11.3502,11.3251,11.2572,11.2572,11.2572,11.2572,11.2572,11.2572,11.2572,11.2572,11.2876,11.3502,11.3502,11.3984,8.119,8.2281,8.3408,8.3515,8.4064,8.4756,8.554,8.624,8.6989,8.7894,8.8584,8.9106,8.9213,8.9213,8.9213,8.9213,8.9213,8.9249,8.9356,8.9391,8.9677,9.0425,9.0663,9.1246,9.2743,9.3599,9.4419,9.5273,9.4751,9.4929,9.6295,9.7019,9.7482,9.7695,9.9217,10.0679,10.2042,10.2149,10.2541,10.3209,10.3316,10.3797,10.4635,10.4456,10.4456,10.4608,10.4456,10.4002,10.3396,10.3618,10.4388,10.5264,10.5071,10.5635,10.6608,10.7252,10.7319,10.7243,10.8586,10.8833,10.8295,10.657,10.6625,10.736,10.736,10.7548,10.7765,10.7924,10.7434,10.7007,10.7238,10.7983,10.8903,10.9807,11.0706,11.1581,11.2367,11.2621,11.2735,11.2849,11.3414,11.387,11.387,11.4553,11.5063,11.5063,11.5063,11.5063,11.5063,11.3788,11.2876,11.2876,11.2876,11.2876,11.2876,11.2876,11.2823,11.2709,11.2709,11.2686,11.2572,11.2572,11.2572,11.2572,11.2572,11.2572,11.2572,11.2572,11.2595,11.2709,11.2709,11.3138,8.0819,8.1568,8.2302,8.3158,8.3636,8.41,8.4899,8.5647,8.6454,8.7216,8.8036,8.8691,8.9142,8.9213,8.9213,8.9213,8.9213,8.9213,8.9213,8.9213,8.9356,8.9677,9.0104,9.0663,9.1352,9.2137,9.3076,9.4288,9.3646,9.3741,9.4847,9.5654,9.6484,9.7375,9.8052,9.9156,10.0714,10.1187,10.1553,10.19,10.19,10.2327,10.3076,10.3076,10.3316,10.3761,10.4189,10.4189,10.3895,10.4349,10.4822,10.5278,10.5108,10.5358,10.5852,10.6193,10.6217,10.6133,10.6841,10.6688,10.6103,10.5688,10.56,10.5655,10.5655,10.5472,10.539,10.6061,10.5991,10.6025,10.7248,10.7483,10.7647,10.8637,10.921,10.9664,11.0066,11.1008,11.1797,11.1797,11.2481,11.305,11.305,11.3392,11.3647,11.3647,11.3647,11.3647,11.3647,11.3028,11.2572,11.2572,11.2572,11.2572,11.2572,11.2572,11.2344,11.1835,11.1797,11.1607,11.114,11.114,11.114,11.114,11.114,11.114,11.114,11.114,11.1368,11.1797,11.1797,11.2253,7.9057,7.9943,8.1104,8.2481,8.2944,8.328,8.41,8.4863,8.5647,8.6418,8.7359,8.8228,8.8798,8.9106,8.9213,8.9213,8.9213,8.9213,8.9213,8.9213,8.9213,8.9213,8.9748,9.0163,9.0377,9.0925,9.1745,9.291,9.2458,9.2541,9.3528,9.4323,9.5368,9.6733,9.6983,9.7731,9.911,9.9904,10.051,10.0876,10.0876,10.1223,10.1757,10.1757,10.2078,10.2674,10.3227,10.3503,10.3521,10.4109,10.4474,10.4661,10.4884,10.4928,10.4991,10.5169,10.5115,10.4901,10.4509,10.3975,10.3628,10.4403,10.4269,10.3824,10.4029,10.3681,10.3368,10.425,10.4523,10.4919,10.6566,10.6619,10.6472,10.7248,10.7876,10.8189,10.7928,10.9461,11.0793,11.0504,11.1207,11.1976,11.2165,11.2367,11.2572,11.2572,11.2572,11.2367,11.1938,11.19,11.19,11.19,11.19,11.19,11.19,11.19,11.1634,11.0936,11.0898,11.0632,11.005,10.9823,10.9683,10.9683,10.9481,10.9405,10.9405,10.9569,10.9986,11.0568,11.0758,11.1379,7.474,7.6836,8.0126,8.0997,8.1746,8.2516,8.3265,8.4064,8.4841,8.5634,8.698,8.8085,8.8121,8.8727,8.9213,8.9213,8.9213,8.9213,8.9213,8.9213,8.9213,8.9213,8.9249,8.957,9.0306,9.0449,9.0484,9.0556,9.052,9.1174,9.2684,9.3528,9.4323,9.5155,9.5867,9.6651,9.7517,9.8266,9.9406,10.0876,10.0876,10.0912,10.0947,10.0947,10.0947,10.0983,10.1054,10.1054,10.1054,10.109,10.1579,10.2292,10.3066,10.3316,10.3423,10.4189,10.3975,10.3138,10.165,10.109,10.1197,10.1971,10.222,10.2292,10.304,10.3245,10.3235,10.3288,10.3288,10.3315,10.3447,10.425,10.5051,10.513,10.6724,10.8006,10.7023,10.8514,10.975,10.8656,10.9334,11.0392,11.1137,11.1987,11.2572,11.2572,11.2572,11.1938,11.0354,11.0126,11.0126,11.0126,11.0126,11.0126,11.0126,11.0126,11.0126,11.0088,11.0088,11.005,11.0012,10.9201,10.8758,10.8758,10.7987,10.7633,10.7633,10.8379,10.8758,10.8834,10.9683,11.0506,7.2929,7.5506,7.8704,7.9983,8.0518,8.1054,8.2352,8.3265,8.4029,8.4827,8.5826,8.6717,8.7239,8.7965,8.8477,8.8477,8.8892,8.9213,8.9213,8.9213,8.9213,8.9213,8.9213,8.932,8.9605,8.9641,8.9641,8.9641,9.0069,9.0627,9.1174,9.1959,9.2969,9.4252,9.4562,9.5322,9.6616,9.6901,9.7329,9.7899,9.7899,9.8433,9.937,9.937,9.994,10.0876,10.0876,10.0876,10.0876,10.0876,10.1054,10.133,10.1615,10.1722,10.1757,10.2016,10.1945,10.1579,10.0475,10.0475,10.0912,10.1223,10.165,10.2007,10.1793,10.1722,10.1722,10.1722,10.1722,10.1904,10.266,10.2977,10.3258,10.4044,10.5203,10.6051,10.5657,10.7326,10.8789,10.8346,10.8607,10.9203,11.0262,11.0068,11.0047,11.0845,11.0924,11.0696,11.0088,11.0012,11.0012,11.0012,11.0012,11.0012,11.0012,11.0012,11.0012,11.0012,11.0012,10.9759,10.9163,10.8834,10.8417,10.7911,10.7645,10.7493,10.7493,10.7759,10.7911,10.7911,10.824,10.8544,7.2079,7.4445,7.7415,7.8755,7.9132,7.9504,8.1089,8.1838,8.2516,8.3565,8.4613,8.5469,8.6026,8.6989,8.7751,8.8014,8.8477,8.8928,8.9177,8.9213,8.9213,8.9213,8.9213,8.9213,8.9213,8.9213,8.9213,8.9213,8.9735,9.0128,9.0377,9.0866,9.1757,9.3064,9.31,9.3824,9.5429,9.5429,9.5714,9.6213,9.6213,9.6758,9.7756,9.7756,9.8326,9.9299,9.9299,9.9299,9.9299,9.9299,9.9619,10.0118,10.0118,10.0261,10.051,10.051,9.9976,9.9263,9.9039,9.9263,9.9701,9.9701,10.0057,10.0368,9.9869,9.9904,10.0128,10.0439,10.0688,10.1057,10.1833,10.1865,10.1859,10.264,10.3516,10.4169,10.4002,10.5769,10.7306,10.7185,10.7457,10.8111,10.9232,10.8789,10.8659,10.9831,11.0012,10.9753,10.8998,10.8894,10.905,10.9388,10.944,10.9597,10.9986,11.0012,11.0012,11.0012,11.0012,10.9607,10.872,10.8417,10.7911,10.7101,10.681,10.6658,10.6658,10.6949,10.7101,10.7101,10.7367,10.7493,7.1978,7.3573,7.6389,7.7292,7.7526,7.7938,7.9469,7.9825,8.0325,8.1817,8.3365,8.4471,8.4485,8.5754,8.706,8.7836,8.7978,8.8299,8.907,8.9177,8.9213,8.9213,8.9213,8.9213,8.9213,8.9213,8.9213,8.9213,8.9213,8.9534,9.0306,9.0342,9.0734,9.1507,9.1519,9.2256,9.3813,9.3813,9.4597,9.607,9.6106,9.6106,9.6106,9.6177,9.6213,9.6213,9.6213,9.6213,9.6213,9.6213,9.7115,9.8479,9.8479,9.8932,9.9609,9.9482,9.8073,9.6355,9.709,9.7375,9.741,9.7375,9.7375,9.741,9.7375,9.7874,9.8622,9.9396,10.018,10.0734,10.0769,10.0769,10.0805,10.0841,10.172,10.2488,10.2099,10.3834,10.5354,10.4965,10.5857,10.6986,10.7995,10.8152,10.8555,10.9753,10.9908,10.9154,10.6997,10.6708,10.7101,10.8111,10.8241,10.8685,10.9831,10.9934,10.996,10.9871,10.9922,10.9517,10.8593,10.7796,10.7025,10.6241,10.5331,10.4826,10.4826,10.5722,10.619,10.6165,10.6962,10.7341,6.9543,7.2363,7.555,7.6373,7.6551,7.6876,7.7934,7.8648,7.9341,8.0361,8.1318,8.2189,8.278,8.415,8.5291,8.5505,8.649,8.7466,8.8263,8.8393,8.8584,8.9177,8.9213,8.9213,8.9213,8.9213,8.9213,8.9213,8.9213,8.932,8.9534,8.9557,8.9891,9.0675,9.0734,9.121,9.2185,9.2185,9.2434,9.2862,9.3432,9.3682,9.3717,9.4858,9.5654,9.6213,9.6213,9.6213,9.6213,9.6213,9.6498,9.689,9.689,9.6997,9.6801,9.3701,9.4098,9.6248,9.6498,9.6937,9.7304,9.6723,9.6912,9.7304,9.6723,9.6687,9.6901,9.714,9.7353,9.7649,9.823,9.8764,9.9334,9.993,10.0732,10.1362,10.1239,10.239,10.3383,10.3301,10.4017,10.4954,10.6125,10.6094,10.6288,10.7468,10.7157,10.679,10.6713,10.6708,10.6839,10.7128,10.7154,10.7285,10.7599,10.832,10.8188,10.6864,10.7474,10.725,10.576,10.4763,10.4253,10.4208,10.2687,10.1869,10.1869,10.2224,10.2381,10.2381,10.3392,10.4178,6.6047,6.8401,7.1778,7.414,7.3658,7.339,7.6312,7.6231,7.6177,7.8472,7.9555,8.0319,8.1104,8.2281,8.3415,8.4378,8.5326,8.6311,8.743,8.7573,8.7858,8.862,8.8429,8.8357,8.8691,8.875,8.8892,8.9213,8.9213,8.9213,8.9213,8.9213,8.9427,8.9891,8.9914,9.0283,9.1067,9.1044,9.1222,9.1555,9.2042,9.222,9.2256,9.3159,9.386,9.4288,9.4288,9.4288,9.4288,9.4609,9.3905,9.2582,9.2894,9.3265,9.3072,8.9386,8.96,9.2045,9.4086,9.5261,9.5832,9.5393,9.576,9.6306,9.5867,9.5749,9.5796,9.6141,9.6213,9.6295,9.6794,9.7257,9.7685,9.8148,9.8612,9.9121,9.9762,10.0417,10.1144,10.1767,10.227,10.2922,10.4114,10.4162,10.4036,10.4245,10.3897,10.3752,10.4235,10.4271,10.4271,10.4271,10.4714,10.5183,10.5703,10.63,10.6181,10.5106,10.5648,10.5214,10.3516,10.2875,10.2296,10.1782,10.1127,10.0769,10.0769,10.1287,10.1305,10.093,10.1961,10.2355,6.2115,6.3043,6.6099,7.0327,6.9153,6.8294,0.0,7.2307,7.1362,7.526,7.7049,7.8098,7.8898,8.0001,8.1511,8.3686,8.4114,8.4756,8.6383,8.6655,8.6882,8.7609,8.6359,8.6109,8.7768,8.7162,8.7163,8.8314,8.8041,8.8008,8.8526,8.8101,8.8297,8.919,8.8778,8.9098,9.027,9.0247,9.0395,9.0637,9.0708,9.0743,9.072,9.0344,9.0697,9.1532,9.105,9.112,9.1567,9.1818,8.981,8.665,8.7327,8.7739,8.7679,8.5586,8.5107,8.6219,9.0975,9.3064,9.3635,9.3635,9.411,9.4656,9.4656,9.4727,9.4941,9.5642,9.5892,9.5963,9.607,9.6081,9.6081,9.6213,9.6213,9.6605,9.8006,9.8291,9.8718,10.0093,10.0484,10.0963,10.1983,10.2308,10.2019,10.0808,10.0653,10.0698,10.0876,10.0876,10.0876,10.0876,10.1833,10.2865,10.3919,10.4039,10.3966,10.3727,10.3782,10.3072,10.1488,10.129,10.0605,9.9234,9.9806,10.0059,9.9948,10.0901,10.0984,10.0199,10.1225,10.0792,0.0,0.0,0.0,0.0,0.0,0.0,0.0,6.4513,6.5142,6.6609,6.9967,7.2846,7.363,7.6719,7.9555,8.0625,8.1318,8.251,8.4699,8.5006,8.5055,8.5198,8.0199,7.9442,8.6444,8.1502,7.9428,8.3145,8.0521,8.0355,8.417,8.1284,8.2497,8.9007,8.6088,8.6018,8.944,8.9463,8.7876,8.4828,8.5449,8.5743,8.5659,8.3035,8.5384,9.1391,8.8124,8.8526,9.132,8.819,8.4581,8.1051,8.1232,7.9236,7.6674,7.9359,8.2559,8.6152,9.0319,9.1899,9.1983,9.1983,9.2113,9.2232,9.2232,9.2684,9.3218,9.3361,9.3824,9.449,9.5119,9.5261,9.544,9.607,9.6213,9.632,9.6605,9.6651,9.6758,9.7079,9.8148,9.909,9.9319,10.0381,10.0732,9.9243,9.9014,9.9477,10.0734,10.0876,10.0876,10.0876,10.1083,10.1316,10.1549,10.1863,10.139,9.9775,9.997,9.9709,9.8603,9.7741,9.7283,9.7186,9.5928,9.4941,9.4305,9.471,9.5182,9.5759,9.679,9.6267,0.0,0.0,0.0,0.0,0.0,0.0,0.0,0.0,0.0,0.0,0.0,6.7098,6.813,0.0,7.5025,7.643,7.8839,8.1033,8.2581,8.1793,8.1633,8.3201,7.8956,7.8491,8.5085,7.9108,7.6715,8.1223,7.8004,7.695,7.9551,7.7795,7.9636,8.6007,8.2311,8.3102,8.9167,8.7228,8.5176,8.3195,8.3585,8.2721,8.0721,7.9072,8.057,8.428,8.2239,8.25,8.42,8.2192,7.9137,7.5483,7.3147,7.0894,6.9483,7.3564,7.638,7.9116,8.5269,8.7629,8.8269,9.0307,8.9851,8.8939,9.0956,9.0424,8.9565,9.157,9.2434,9.2898,9.3682,9.3896,9.411,9.4858,9.5061,9.5168,9.5571,9.5618,9.5725,9.6141,9.6854,9.74,9.74,9.8041,9.8266,9.7507,9.74,9.7685,9.8469,9.8551,9.7846,9.6029,9.5832,9.5832,9.5832,9.6015,9.6508,9.7335,9.7555,9.7123,9.5887,9.5329,9.4768,9.4114,9.3707,9.3311,9.2915,9.3574,9.3845,9.3799,9.3457,9.3287,0.0,0.0,0.0,0.0,0.0,0.0,0.0,0.0,0.0,0.0,0.0,0.0,0.0,0.0,0.0,7.1582,7.5454,7.8575,7.9647,7.6839,7.6196,8.0248,7.6748,7.6362,8.2461,7.6127,7.377,7.9045,7.5396,7.3464,7.4804,7.4135,7.6214,8.1685,7.7944,7.9391,8.6802,8.366,8.1634,8.0831,0.0,0.0,7.5935,7.5152,7.5674,7.7117,7.6314,7.6432,7.7117,7.629,7.429,7.128,6.6714,6.4927,6.5411,6.9444,7.0958,7.2036,7.9448,8.2439,8.3638,8.7682,8.6693,8.4685,8.8724,8.7757,0.0,8.9239,9.0849,9.1698,9.2327,9.2505,9.2648,9.3278,9.3563,9.3824,9.4477,9.4727,9.5036,9.5642,9.5892,9.5974,9.5974,9.5856,9.555,9.4843,9.5446,9.5739,9.5065,9.5719,9.5089,9.2138,9.1852,9.1852,9.1852,9.106,9.2076,9.555,9.5012,9.4207,9.3444,9.2677,9.1958,9.1341,9.1375,9.1724,9.2362,9.3198,9.3268,9.2545,8.969,8.9246,0.0,0.0,0.0,0.0,0.0,0.0,0.0,0.0,0.0,0.0,0.0,0.0,0.0,0.0,0.0,0.0,6.9554,7.2883,7.5057,6.9064,6.7171,7.4469,6.696,6.5515,7.6574,6.8284,6.538,7.3069,6.7579,6.5711,6.9957,6.6761,0.0,0.0,0.0,7.3401,7.8485,7.8085,7.5982,7.2318,7.2318,7.2108,7.1533,6.7953,7.0286,7.6952,7.3249,7.3749,7.6881,7.3177,7.1394,7.0663,6.653,6.4927,6.5411,6.9444,7.0958,7.1605,7.6243,0.0,0.0,8.2699,8.133,7.8878,8.2925,8.4293,8.4583,8.503,8.8268,9.1555,9.1686,9.1686,9.1698,9.1769,9.2363,9.2862,9.2993,9.3528,9.4027,9.4134,9.4716,9.519,9.519,9.4609,9.3112,8.9943,9.2734,9.408,9.0915,9.3866,9.6051,9.5652,9.5578,0.0,9.5578,9.2102,9.114,9.3975,9.0572,8.9474,9.1734,8.8364,8.7739,9.0486,8.7106,8.6773,8.9682,8.9796,9.0173,9.0695,8.368,8.0876,0.0,0.0,0.0,0.0,0.0,0.0,0.0,0.0,0.0,0.0,0.0,0.0,0.0,0.0,0.0,0.0,6.6141,6.7266,6.5928,6.5157,6.6073,6.9817,6.4942,6.4174,7.1653,6.4713,6.2196,6.8077,6.3801,6.2069,6.475,6.3275,6.5401,7.2015,6.8333,6.9411,7.6083,7.3845,7.191,7.049,7.049,6.9422,6.7373,6.5703,6.6819,6.9974,6.8218,6.846,6.9925,6.817,6.7445,0.0,0.0,0.0,0.0,0.0,6.7445,6.8025,7.2156,7.3559,7.4226,7.8367,7.6928,7.4321,7.8461,7.9954,8.0201,8.0201,8.5018,8.9785,8.785,8.9114,9.0996,9.1448,9.1828,9.2042,9.2042,9.2292,9.2541,9.2541,9.3183,0.0,8.6922,8.7708,8.852,8.7064,8.6362,8.6432,8.7611,8.7317,8.6281,8.4432,8.3972,8.3801,8.3801,8.1801,0.0,0.0,0.0,8.7906,9.1391,8.9511,0.0,0.0,0.0,8.5926,8.4711,8.4229,0.0,0.0,7.9249,7.7885,0.0,0.0,0.0,0.0,0.0,0.0,0.0,0.0,0.0,0.0,0.0,0.0,0.0,0.0,0.0,0.0,6.1497,6.2348,6.0195,6.1394,6.3092,6.4754,6.2483,6.244,6.6543,6.189,6.0312,6.4451,6.1591,6.0036,6.089,6.1049,6.2923,6.6878,6.4306,6.5777,7.1765,6.9115,6.7954,6.8305,6.8305,6.696,6.4508,6.4508,6.4508,6.4484,6.4639,6.4717,6.4717,6.4849,6.4927,6.4901,6.4613,6.4508,6.4508,6.4508,6.4508,6.4942,6.7847,6.8876,6.9541,7.369,7.2224,6.9613,7.3785,7.5132,7.5236,7.5236,8.0398,8.5613,8.4376,8.54,8.7437,9.0246,9.0226,8.9874,9.0988,9.14,9.125,9.0096,9.0188,8.8018,8.0476,8.1798,8.3471,8.2271,8.0624,8.0249,8.2387,8.116,7.9179,7.6924,7.6352,7.6115,7.6115,7.4613,7.6505,8.3147,8.3497,8.5217,8.909,8.9798,8.9277,8.7573,8.6792,8.4581,0.0,0.0,0.0,0.0,0.0,0.0,0.0,0.0,0.0,0.0,0.0,0.0,0.0,0.0,0.0,0.0,0.0,0.0,0.0,0.0,0.0,0.0,0.0,0.0,6.1002,5.6794,5.4897,5.8689,5.7177,5.7271,6.0945,5.8926,5.8902,6.2593,6.0535,5.9122,5.9148,5.9646,6.024,6.0903,6.1407,6.2046,6.2803,6.3307,6.3547,6.3573,6.3573,6.3526,6.341,6.341,6.341,6.3436,6.3934,6.4144,6.4196,6.4717,6.4927,6.4823,6.3802,6.341,6.341,6.341,6.341,6.3433,6.3576,6.3599,6.426,6.8321,6.6918,6.4355,6.8415,7.0013,7.0385,7.0385,7.3844,7.8414,8.225,8.0395,7.9551,8.7436,8.6894,8.5668,8.9578,9.1008,9.0391,8.6475,8.5111,8.3313,7.9093,7.9095,7.827,7.4107,7.6938,0.0,7.4038,7.7041,7.9495,7.9381,7.9381,7.9374,7.9374,7.5503,7.4653,7.8342,7.8304,7.9762,8.3318,8.7194,8.7389,8.3451,8.2611,8.1257,7.936,0.0,0.0,0.0,0.0,0.0,0.0,0.0,0.0,0.0,0.0,0.0,0.0,0.0,0.0,0.0,0.0,0.0,0.0,0.0,0.0,0.0,0.0,0.0,0.0,5.2118,5.2407,5.3712,5.4219,5.4785,5.5674,5.603,5.6699,5.7925,5.7577,5.7472,5.7905,5.8091,5.8636,5.9572,5.985,6.0192,6.0741,6.0923,6.1462,6.2216,6.2216,6.2606,6.3358,6.3358,6.3358,6.3407,6.3566,6.362,6.3646,6.3828,6.344,6.2713,6.2323,6.2216,6.2216,6.2216,6.2216,6.2216,6.2216,6.2216,6.2423,6.3789,6.3326,6.2524,6.4243,6.6746,6.853,6.6305,7.067,7.5789,7.4823,7.5524,7.8012,8.3837,8.4372,8.3958,8.5342,8.796,8.8019,8.1292,7.9411,7.6694,6.9632,7.1423,7.3219,7.1451,7.041,7.0438,7.2102,7.1259,7.0617,7.0955,7.07,7.0475,7.0475,6.8771,6.9317,7.3217,7.3356,7.6266,8.2916,8.4008,8.509,8.637,8.5138,8.2509,7.8524,0.0,0.0,0.0,0.0,0.0,0.0,0.0,0.0,0.0,0.0,0.0,0.0,0.0,0.0,0.0,0.0,0.0,0.0,0.0,0.0,0.0,0.0,0.0,0.0,0.0,0.0,5.0686,5.2018,0.0,5.2206,5.331,5.407,5.407,5.4776,5.5472,5.6064,5.6506,5.7155,5.8091,5.8368,5.8632,5.8974,5.916,5.9753,6.0734,6.0734,6.1202,6.2112,6.2112,6.2112,6.2138,6.232,6.2401,6.2349,6.1774,6.1049,6.0377,6.0377,6.0377,6.0377,6.0377,6.0377,6.0377,6.0377,6.0377,6.0377,6.0377,6.0244,6.0192,6.0718,6.269,6.4391,6.2618,6.599,7.0055,6.9654,7.0392,7.2826,7.8943,7.9344,7.8662,8.0109,8.2475,8.1889,7.3848,7.2913,7.1204,6.4229,6.5731,6.7874,6.778,6.582,6.5605,6.8974,6.7162,6.5678,6.6017,6.5731,6.5548,6.5548,6.516,6.6043,6.8653,7.0142,7.3845,8.0382,8.0184,8.1557,8.4959,8.2374,7.9108,0.0,0.0,0.0,0.0,0.0,0.0,0.0,0.0,0.0,0.0,0.0,0.0,0.0,0.0,0.0,0.0,0.0,0.0,0.0,0.0,0.0,0.0,0.0,0.0,0.0,0.0,0.0,4.9325,5.046,0.0,0.0,0.0,0.0,5.1199,5.2265,5.3168,5.3654,5.4771,5.5659,5.624,5.6827,5.7207,5.7285,5.7788,5.8355,5.8992,5.8992,5.9304,5.9783,5.9783,5.9783,5.9831,6.0283,6.0494,6.0387,5.8674,5.7974,5.7974,5.7969,5.7943,5.7969,5.7995,5.7995,5.7969,5.8021,5.8021,5.7974,5.7974,5.7653,5.7337,5.7814,5.7969,0.0,0.0,6.0095,6.1634,6.6673,6.5121,6.4409,7.3017,7.2105,7.0366,7.4243,7.5201,7.2907,0.0,6.5785,6.6756,6.2847,0.0,6.2507,6.3098,6.3254,6.3698,6.4717,6.4849,6.4901,6.4927,6.4927,6.4927,6.4927,6.4927,6.4901,6.4875,6.8477,7.2184,7.5773,7.5773,7.6879,7.9292,7.4677,0.0,0.0,0.0,0.0,0.0,0.0,0.0,0.0,0.0,0.0,0.0,0.0,0.0,0.0,0.0,0.0,0.0,0.0,0.0,0.0,0.0,0.0,0.0,0.0,0.0,0.0,4.511,4.6417,4.7041,4.8478,4.9042,0.0,0.0,0.0,0.0,0.0,0.0,5.1374,5.2057,5.3057,5.4439,5.4667,5.5321,5.6624,5.678,5.7165,5.7801,5.7801,5.8065,5.8566,5.8566,5.8566,5.8566,5.87,5.8752,5.8644,5.6931,5.623,5.6204,5.5799,5.5638,5.569,5.6095,5.5986,5.5768,5.6546,5.6572,5.623,5.623,5.6173,5.6012,5.5721,0.0,0.0,0.0,0.0,5.8695,6.0908,6.1006,6.2058,6.8181,6.8851,6.8492,6.9917,7.2272,7.1352,0.0,6.1205,6.1437,5.9523,0.0,0.0,0.0,0.0,6.2921,6.3672,6.4116,6.4508,6.4875,6.4927,6.4927,6.4927,6.4927,6.4745,6.4378,6.5312,6.8442,7.4181,7.0905,7.151,7.6922,0.0,0.0,0.0,0.0,0.0,0.0,0.0,0.0,0.0,0.0,0.0,0.0,0.0,0.0,0.0,0.0,0.0,0.0,0.0,0.0,0.0,0.0,0.0,0.0,0.0,0.0,0.0,4.2938,4.4513,4.5395,4.6348,4.6651,0.0,0.0,0.0,0.0,0.0,0.0,0.0,0.0,0.0,5.2343,5.2395,5.2973,5.4153,5.4672,5.5238,5.5804,5.635,5.6848,5.7377,5.7377,5.7377,5.7377,5.7377,5.6936,5.6178,5.5238,5.4517,5.4049,0.0,0.0,0.0,0.0,5.3518,5.335,5.3966,5.3971,0.0,5.3732,0.0,0.0,0.0,0.0,0.0,0.0,0.0,0.0,0.0,0.0,5.957,6.2729,6.3698,6.3978,6.4285,6.4893,6.3922,0.0,5.7939,5.7861,5.7429,0.0,0.0,0.0,0.0,6.1702,6.2791,6.3648,6.4272,6.4535,6.4795,6.4927,6.4927,6.4717,6.4456,6.4168,6.365,6.5563,7.0412,6.5889,6.525,0.0,0.0,0.0,0.0,0.0,0.0,0.0,0.0,0.0,0.0,0.0,0.0,0.0,0.0,0.0,0.0,0.0,0.0,0.0,0.0,0.0,0.0,0.0,0.0,0.0,0.0,0.0,0.0,0.0,4.2753,4.3913,0.0,0.0,0.0,0.0,0.0,0.0,0.0,0.0,0.0,0.0,0.0,0.0,0.0,5.0412,5.1076,5.2161,5.2986,5.342,5.4511,5.5269,5.5721,5.5721,5.5799,5.5928,5.5773,0.0,5.3602,5.3466,0.0,0.0,0.0,0.0,0.0,0.0,0.0,0.0,0.0,0.0,0.0,0.0,0.0,0.0,0.0,0.0,0.0,0.0,0.0,0.0,0.0,0.0,5.7125,5.7576,5.8169,5.8602,0.0,5.6517,5.504,5.5872,5.5664,0.0,0.0,0.0,0.0,0.0,0.0,0.0,6.1835,6.3079,6.3908,6.4142,6.4535,6.4847,6.4847,6.4404,6.4064,6.383,6.2793,6.3298,6.5867,6.1309,0.0,0.0,0.0,0.0,0.0,0.0,0.0,0.0,0.0,0.0,0.0,0.0,0.0,0.0,0.0,0.0,0.0,0.0,0.0,0.0,0.0,0.0,0.0,0.0,0.0,0.0,0.0,0.0,0.0,0.0,0.0,0.0,0.0,0.0,0.0,0.0,0.0,0.0,0.0,0.0,0.0,0.0,0.0,0.0,0.0,0.0,0.0,0.0,0.0,0.0,5.1771,5.2115,5.22,5.22,5.2739,5.359,5.2635,5.2258,5.2316,5.1459,0.0,0.0,0.0,0.0,0.0,0.0,0.0,0.0,0.0,0.0,0.0,0.0,0.0,0.0,0.0,0.0,0.0,0.0,0.0,0.0,0.0,0.0,0.0,0.0,5.5799,5.5939,0.0,0.0,0.0,0.0,0.0,0.0,0.0,0.0,0.0,0.0,0.0,0.0,6.0069,6.1312,6.2583,6.3988,6.4222,6.4274,6.4274,6.422,6.3544,6.2141,6.1367,6.17,0.0,0.0,0.0,0.0,0.0,0.0,0.0,0.0,0.0,0.0,0.0,0.0,0.0,0.0,0.0,0.0,0.0,0.0,0.0,0.0,0.0,0.0,0.0,0.0,0.0,0.0,0.0,0.0,0.0,0.0,0.0,0.0,0.0,0.0,0.0,0.0,0.0,0.0,0.0,0.0,0.0,0.0,0.0,0.0,0.0,0.0,0.0,0.0,0.0,0.0,0.0,0.0,0.0,0.0,0.0,0.0,0.0,0.0,0.0,4.9836,0.0,0.0,0.0,0.0,0.0,0.0,0.0,0.0,0.0,0.0,0.0,0.0,0.0,0.0,0.0,0.0,0.0,0.0,0.0,0.0,0.0,0.0,0.0,0.0,0.0,0.0,0.0,0.0,0.0,0.0,0.0,0.0,0.0,0.0,0.0,0.0,0.0,0.0,0.0,0.0,5.9624,6.0893,6.2164,6.3594,6.375,6.3854,6.4116,6.3336,6.2325,6.1185,5.9731,0.0,0.0,0.0,0.0,0.0,0.0,0.0,0.0,0.0,0.0,0.0,0.0,0.0,0.0,0.0,0.0,0.0,0.0,0.0,0.0,0.0,0.0,0.0,0.0,0.0,0.0,0.0,0.0,0.0,0.0,0.0,0.0,0.0,0.0,0.0,0.0,0.0,0.0,0.0,0.0,0.0,0.0,0.0,0.0,0.0,0.0,0.0,0.0,0.0,0.0,0.0,0.0,0.0,0.0,0.0,0.0,0.0,0.0,0.0,4.865,0.0,0.0,0.0,0.0,0.0,0.0,0.0,0.0,0.0,0.0,0.0,0.0,0.0,0.0,0.0,0.0,0.0,0.0,0.0,0.0,0.0,0.0,0.0,0.0,0.0,0.0,0.0,0.0,0.0,0.0,0.0,0.0,0.0,0.0,0.0,0.0,0.0,0.0,0.0,0.0,0.0,5.8874,6.0374,6.1696,6.2864,6.3098,6.3334,6.3752,6.2453,6.1182,6.0179,5.8251,0.0,0.0,0.0,0.0,0.0,0.0,0.0,0.0,0.0,0.0,0.0,0.0,0.0,0.0,0.0,0.0,0.0,0.0,0.0,0.0,0.0,0.0,0.0,0.0,0.0,0.0,0.0,0.0,0.0,0.0,0.0,0.0,0.0,0.0,0.0,0.0,0.0,0.0,0.0,0.0,0.0,0.0,0.0,0.0,0.0,0.0,0.0,0.0,0.0,0.0,0.0,0.0,0.0,0.0,0.0,0.0,0.0,0.0,0.0,0.0,0.0,0.0,0.0,0.0,0.0,0.0,0.0,0.0,0.0,0.0,0.0,0.0,0.0,0.0,0.0,0.0,0.0,0.0,0.0,0.0,0.0,0.0,0.0,0.0,0.0,0.0,0.0,0.0,0.0,0.0,0.0,0.0,0.0,0.0,0.0,0.0,0.0,0.0,0.0,0.0,0.0,5.6525,5.8644,6.0481,6.167,6.2196,6.2533,6.2562,6.1985,6.0685,5.8489,0.0,0.0,0.0,0.0,0.0,0.0,0.0,0.0,0.0,0.0,0.0,0.0,0.0,0.0,0.0,0.0,0.0,0.0,0.0,0.0,0.0,0.0,0.0,0.0,0.0,0.0,0.0,0.0,0.0,0.0,0.0,0.0,0.0,0.0,0.0,0.0,0.0,0.0,0.0,0.0,0.0,0.0,0.0,0.0,0.0,0.0,0.0,0.0,0.0,0.0,0.0,0.0,0.0,0.0,0.0,0.0,0.0,0.0,0.0,0.0,0.0,0.0,0.0,0.0,0.0,0.0,0.0,0.0,0.0,0.0,0.0,0.0,0.0,0.0,0.0,0.0,0.0,0.0,0.0,0.0,0.0,0.0,0.0,0.0,0.0,0.0,0.0,0.0,0.0,0.0,0.0,0.0,0.0,0.0,0.0,0.0,0.0,0.0,0.0,0.0,0.0,0.0,5.677,5.8666,6.0325,6.1514,6.1803,6.191,6.191,6.1078,5.9549,5.7221,0.0,0.0,0.0,0.0,0.0,0.0,0.0,0.0,0.0,0.0,0.0,0.0,0.0,0.0,0.0,0.0,0.0,0.0,0.0,0.0,0.0,0.0,0.0,0.0,0.0,0.0,0.0,0.0,0.0,0.0,0.0,0.0,0.0,0.0,0.0,0.0,0.0,0.0,0.0,0.0,0.0,0.0,0.0,0.0,0.0,0.0,0.0,0.0,0.0,0.0,0.0,0.0,0.0,0.0,0.0,0.0,0.0,0.0,0.0,0.0,0.0,0.0,0.0,0.0,0.0,0.0,0.0,0.0,0.0,0.0,0.0,0.0,0.0,0.0,0.0,0.0,0.0,0.0,0.0,0.0,0.0,0.0,0.0,0.0,0.0,0.0,0.0,0.0,0.0,0.0,0.0,0.0,0.0,0.0,0.0,0.0,0.0,0.0,0.0,0.0,0.0,0.0,5.6397,5.8221,5.9805,6.0971,6.1101,6.1179,6.1312,6.0117,5.8437,5.6266,0.0,0.0,0.0,0.0,0.0,0.0,0.0,0.0,0.0,0.0,0.0,0.0,0.0,0.0,0.0,0.0,0.0,0.0,0.0,0.0,0.0,0.0,0.0,0.0,0.0,0.0,0.0,0.0,0.0,0.0,0.0,0.0,0.0,0.0,0.0,0.0,0.0,0.0,0.0,0.0,0.0,0.0,0.0,0.0,0.0,0.0,0.0,0.0,0.0,0.0,0.0,0.0,0.0,0.0,0.0,0.0,0.0,0.0,0.0,0.0,0.0,0.0,0.0,0.0,0.0,0.0,0.0,0.0,0.0,0.0,0.0,0.0,0.0,0.0,0.0,0.0,0.0,0.0,0.0,0.0,0.0,0.0,0.0,0.0,0.0,0.0,0.0,0.0,0.0,0.0,0.0,0.0,0.0,0.0,0.0,0.0,0.0,0.0,0.0,0.0,0.0,0.0,5.4769,5.6787,5.8592,5.9779,5.9909,6.0095,6.0621,5.9115,5.7424,0.0,0.0,0.0,0.0,0.0,0.0,0.0,0.0,0.0,0.0,0.0,0.0,0.0,0.0,0.0,0.0,0.0,0.0,0.0,0.0,0.0,0.0,0.0,0.0,0.0,0.0,0.0,0.0,0.0,0.0,0.0,0.0,0.0,0.0,0.0,0.0,0.0,0.0,0.0,0.0,0.0,0.0,0.0,0.0,0.0,0.0,0.0,0.0,0.0,0.0,0.0,0.0,0.0,0.0,0.0,0.0,0.0,0.0,0.0,0.0,0.0,0.0,0.0,0.0,0.0,0.0,0.0,0.0,0.0,0.0,0.0,0.0,0.0,0.0,0.0,0.0,0.0,0.0,0.0,0.0,0.0,0.0,0.0,0.0,0.0,0.0,0.0,0.0,0.0,0.0,0.0,0.0,0.0,0.0,0.0,0.0,0.0,0.0,0.0,0.0,0.0,0.0,0.0,5.4691,5.6444,5.8039,0.0,5.9649,5.9805,5.9598,5.8692,5.7238,5.5196,0.0,0.0,0.0,0.0,0.0,0.0,0.0,0.0,0.0,0.0,0.0,0.0,0.0,0.0,0.0,0.0,0.0,0.0,0.0,0.0,0.0,0.0,0.0,0.0,0.0,0.0,0.0,0.0,0.0,0.0,0.0,0.0,0.0,0.0,0.0,0.0,0.0,0.0,0.0,0.0,0.0,0.0,0.0,0.0,0.0,0.0,0.0,0.0,0.0,0.0,0.0,0.0,0.0,0.0,0.0,0.0,0.0,0.0,0.0,0.0,0.0,0.0,0.0,0.0,0.0,0.0,0.0,0.0,0.0,0.0,0.0,0.0,0.0,0.0,0.0,0.0,0.0,0.0,0.0,0.0,0.0,0.0,0.0,0.0,0.0,0.0,0.0,0.0,0.0,0.0,0.0,0.0,0.0,0.0,0.0,0.0,0.0,0.0,0.0,0.0,0.0,0.0,0.0,5.5934,5.742,0.0,5.9004,5.9082,5.8762,5.7943,5.6615,5.4572,0.0,0.0,0.0,0.0,0.0,0.0,0.0,0.0,0.0,0.0,0.0,0.0,0.0,0.0,0.0,0.0,0.0,0.0,0.0,0.0,0.0,0.0,0.0,0.0,0.0,0.0,0.0,0.0,0.0,0.0,0.0,0.0,0.0,0.0,0.0,0.0,0.0,0.0,0.0,0.0,0.0,0.0,0.0,0.0,0.0,0.0,0.0,0.0,0.0,0.0,0.0,0.0,0.0,0.0,0.0,0.0,0.0,0.0,0.0,0.0,0.0,0.0,0.0,0.0,0.0,0.0,0.0,0.0,0.0,0.0,0.0,0.0,0.0,0.0,0.0,0.0,0.0,0.0,0.0,0.0,0.0,0.0,0.0,0.0,0.0,0.0,0.0,0.0,0.0,0.0,0.0,0.0,0.0,0.0,0.0,0.0,0.0,0.0,0.0,0.0,0.0,0.0,0.0,5.5275,5.6707,5.7943,5.8025,5.8021,5.8073,5.7013,5.5612,5.394,5.3304,0.0,0.0,0.0,0.0,0.0,0.0,0.0,0.0,0.0,0.0,0.0,0.0,0.0,0.0,0.0,0.0,0.0,0.0,0.0,0.0,0.0,0.0,0.0,0.0,0.0,0.0,0.0,0.0,0.0,0.0,0.0,0.0,0.0,0.0,0.0,0.0,0.0,0.0,0.0,0.0,0.0,0.0,0.0,0.0,0.0,0.0,0.0,0.0,0.0,0.0,0.0,0.0,0.0,0.0,0.0,0.0,0.0,0.0,0.0,0.0,0.0,0.0,0.0,0.0,0.0,0.0,0.0,0.0,0.0,0.0,0.0,0.0,0.0,0.0,0.0,0.0,0.0,0.0,0.0,0.0,0.0,0.0,0.0,0.0,0.0,0.0,0.0,0.0,0.0,0.0,0.0,0.0,0.0,0.0,0.0,0.0,0.0,0.0,0.0,0.0,0.0,0.0,5.4936,5.5794,5.7363,5.7087,5.6987,5.7472,5.6438,5.5218,5.3914,5.2901,0.0,0.0,0.0,0.0,0.0,0.0,0.0,0.0,0.0,0.0,0.0,0.0,0.0,0.0,0.0,0.0,0.0,0.0,0.0,0.0,0.0,0.0,0.0,0.0,0.0,0.0,0.0,0.0,0.0,0.0,0.0,0.0,0.0,0.0,0.0,0.0,0.0,0.0,0.0,0.0,0.0,0.0,0.0,0.0,0.0,0.0,0.0,0.0,0.0,0.0,0.0,0.0,0.0,0.0,0.0,0.0,0.0,0.0,0.0,0.0,0.0,0.0,0.0,0.0,0.0,0.0,0.0,0.0,0.0,0.0,0.0,0.0,0.0,0.0,0.0,0.0,0.0,0.0,0.0,0.0,0.0,0.0,0.0,0.0,0.0,0.0,0.0,0.0,0.0,0.0,0.0,0.0,0.0,0.0,0.0,0.0,0.0,0.0,0.0,0.0,0.0,0.0,5.3272,5.4344,5.635,5.6442,5.6395,5.6537,5.5965,5.5005,5.357,5.2187,0.0,0.0,0.0,0.0,0.0,0.0,0.0,0.0,0.0,0.0,0.0,0.0,0.0,0.0,0.0,0.0,0.0,0.0,0.0,0.0,0.0,0.0,0.0,0.0,0.0,0.0,0.0,0.0,0.0,0.0,0.0,0.0,0.0,0.0,0.0,0.0,0.0,0.0,0.0,0.0,0.0,0.0,0.0,0.0,0.0,0.0,0.0,0.0,0.0,0.0,0.0,0.0,0.0,0.0,0.0,0.0,0.0,0.0,0.0,0.0,0.0,0.0,0.0,0.0,0.0,0.0,0.0,0.0,0.0,0.0,0.0,0.0,0.0,0.0,0.0,0.0,0.0,0.0,0.0,0.0,0.0,0.0,0.0,0.0,0.0,0.0,0.0,0.0,0.0,0.0,0.0,0.0,0.0,0.0,0.0,0.0,0.0,0.0,0.0,0.0,0.0,0.0,0.0,5.3011,5.5005,5.5789,5.5975,5.5633,5.5446,5.4641,5.3038,0.0,0.0,0.0,0.0,0.0,0.0,0.0,0.0,0.0,0.0,0.0,0.0,0.0,0.0,0.0,0.0,0.0,0.0,0.0,0.0,0.0,0.0,0.0,0.0,0.0,0.0,0.0,0.0,0.0,0.0,0.0,0.0,0.0,0.0,0.0,0.0,0.0,0.0,0.0,0.0,0.0,0.0,0.0,0.0,0.0,0.0,0.0,0.0,0.0,0.0,0.0,0.0,0.0,0.0,0.0,0.0,0.0,0.0,0.0,0.0,0.0,0.0,0.0,0.0,0.0,0.0,0.0,0.0,0.0,0.0,0.0,0.0,0.0,0.0,0.0,0.0,0.0,0.0,0.0,0.0,0.0,0.0,0.0,0.0,0.0,0.0,0.0,0.0,0.0,0.0,0.0,0.0,0.0,0.0,0.0,0.0,0.0,0.0,0.0,0.0,0.0,0.0,0.0,0.0,0.0,5.3428,5.4416,5.5196,5.5555,5.4693,5.3556,5.2336,0.0,0.0,0.0,0.0,0.0,0.0,0.0,0.0,0.0,0.0,0.0,0.0,0.0,0.0]}]]]